<?xml version="1.0" encoding="UTF-8" standalone="no" ?>
<gpx xmlns="http://www.topografix.com/GPX/1/1" xmlns:xsi="http://www.w3.org/2001/XMLSchema-instance" xsi:schemaLocation="http://www.topografix.com/GPX/1/1 http://www.topografix.com/GPX/1/1/gpx.xsd" version="1.1" creator="VisuGPX - https://www.visugpx.com">
  <metadata>
    <name>Chars - Marines</name>
    <desc><![CDATA[Randonnée en boucle de 23 km à partir de la gare de Chars]]></desc>
  </metadata>
  <trk>
    <name><![CDATA[Chars - Marines_R]]></name>
    <trkseg>
      <trkpt lat="49.16259" lon="1.93651">
        <ele>63.17</ele>
        <time>2019-07-07T07:08:03Z</time>
      </trkpt>
      <trkpt lat="49.16261" lon="1.93658">
        <ele>62.63</ele>
        <time>2019-07-07T07:12:38Z</time>
      </trkpt>
      <trkpt lat="49.16261" lon="1.93658">
        <ele>63.26</ele>
        <time>2019-07-07T07:13:12Z</time>
      </trkpt>
      <trkpt lat="49.16261" lon="1.9366">
        <ele>63.09</ele>
        <time>2019-07-07T07:13:33Z</time>
      </trkpt>
      <trkpt lat="49.16268" lon="1.93659">
        <ele>63.23</ele>
        <time>2019-07-07T07:13:44Z</time>
      </trkpt>
      <trkpt lat="49.16278" lon="1.93657">
        <ele>62.48</ele>
        <time>2019-07-07T07:13:53Z</time>
      </trkpt>
      <trkpt lat="49.16279" lon="1.93637">
        <ele>61.82</ele>
        <time>2019-07-07T07:14:08Z</time>
      </trkpt>
      <trkpt lat="49.16278" lon="1.93631">
        <ele>61.84</ele>
        <time>2019-07-07T07:14:12Z</time>
      </trkpt>
      <trkpt lat="49.16275" lon="1.93617">
        <ele>61.98</ele>
        <time>2019-07-07T07:14:21Z</time>
      </trkpt>
      <trkpt lat="49.16272" lon="1.93594">
        <ele>62.6</ele>
        <time>2019-07-07T07:14:37Z</time>
      </trkpt>
      <trkpt lat="49.16266" lon="1.93563">
        <ele>63.43</ele>
        <time>2019-07-07T07:14:54Z</time>
      </trkpt>
      <trkpt lat="49.16263" lon="1.93551">
        <ele>64.47</ele>
        <time>2019-07-07T07:15:02Z</time>
      </trkpt>
      <trkpt lat="49.1625" lon="1.93543">
        <ele>64.57</ele>
        <time>2019-07-07T07:15:17Z</time>
      </trkpt>
      <trkpt lat="49.16253" lon="1.93537">
        <ele>65.04</ele>
        <time>2019-07-07T07:15:24Z</time>
      </trkpt>
      <trkpt lat="49.16256" lon="1.93534">
        <ele>65.38</ele>
        <time>2019-07-07T07:15:28Z</time>
      </trkpt>
      <trkpt lat="49.16257" lon="1.93531">
        <ele>65.47</ele>
        <time>2019-07-07T07:15:30Z</time>
      </trkpt>
      <trkpt lat="49.16269" lon="1.93525">
        <ele>66.34</ele>
        <time>2019-07-07T07:15:43Z</time>
      </trkpt>
      <trkpt lat="49.16284" lon="1.93512">
        <ele>66.98</ele>
        <time>2019-07-07T07:16:01Z</time>
      </trkpt>
      <trkpt lat="49.16302" lon="1.93499">
        <ele>67.85</ele>
        <time>2019-07-07T07:16:19Z</time>
      </trkpt>
      <trkpt lat="49.16316" lon="1.9349">
        <ele>68.16</ele>
        <time>2019-07-07T07:16:32Z</time>
      </trkpt>
      <trkpt lat="49.1632" lon="1.93485">
        <ele>69.24</ele>
        <time>2019-07-07T07:16:38Z</time>
      </trkpt>
      <trkpt lat="49.16323" lon="1.93483">
        <ele>69.23</ele>
        <time>2019-07-07T07:16:41Z</time>
      </trkpt>
      <trkpt lat="49.16341" lon="1.93468">
        <ele>70.75</ele>
        <time>2019-07-07T07:16:59Z</time>
      </trkpt>
      <trkpt lat="49.16356" lon="1.9346">
        <ele>72.44</ele>
        <time>2019-07-07T07:17:16Z</time>
      </trkpt>
      <trkpt lat="49.16358" lon="1.93458">
        <ele>72.78</ele>
        <time>2019-07-07T07:17:19Z</time>
      </trkpt>
      <trkpt lat="49.16362" lon="1.93456">
        <ele>73.54</ele>
        <time>2019-07-07T07:17:22Z</time>
      </trkpt>
      <trkpt lat="49.16386" lon="1.93445">
        <ele>75.71</ele>
        <time>2019-07-07T07:17:44Z</time>
      </trkpt>
      <trkpt lat="49.16402" lon="1.93441">
        <ele>76.8</ele>
        <time>2019-07-07T07:17:58Z</time>
      </trkpt>
      <trkpt lat="49.16404" lon="1.93441">
        <ele>76.77</ele>
        <time>2019-07-07T07:17:59Z</time>
      </trkpt>
      <trkpt lat="49.16421" lon="1.93438">
        <ele>78.27</ele>
        <time>2019-07-07T07:18:14Z</time>
      </trkpt>
      <trkpt lat="49.16438" lon="1.93438">
        <ele>79.29</ele>
        <time>2019-07-07T07:18:28Z</time>
      </trkpt>
      <trkpt lat="49.16461" lon="1.93439">
        <ele>80.52</ele>
        <time>2019-07-07T07:18:47Z</time>
      </trkpt>
      <trkpt lat="49.1648" lon="1.93437">
        <ele>81.3</ele>
        <time>2019-07-07T07:19:04Z</time>
      </trkpt>
      <trkpt lat="49.16497" lon="1.93435">
        <ele>81.98</ele>
        <time>2019-07-07T07:19:19Z</time>
      </trkpt>
      <trkpt lat="49.16511" lon="1.9343">
        <ele>82.79</ele>
        <time>2019-07-07T07:19:32Z</time>
      </trkpt>
      <trkpt lat="49.16529" lon="1.93425">
        <ele>83.9</ele>
        <time>2019-07-07T07:19:48Z</time>
      </trkpt>
      <trkpt lat="49.16541" lon="1.93419">
        <ele>83.99</ele>
        <time>2019-07-07T07:19:58Z</time>
      </trkpt>
      <trkpt lat="49.16549" lon="1.93416">
        <ele>84.42</ele>
        <time>2019-07-07T07:20:05Z</time>
      </trkpt>
      <trkpt lat="49.16569" lon="1.93405">
        <ele>85.32</ele>
        <time>2019-07-07T07:20:22Z</time>
      </trkpt>
      <trkpt lat="49.16585" lon="1.93393">
        <ele>86.13</ele>
        <time>2019-07-07T07:20:38Z</time>
      </trkpt>
      <trkpt lat="49.16596" lon="1.93384">
        <ele>86.96</ele>
        <time>2019-07-07T07:20:52Z</time>
      </trkpt>
      <trkpt lat="49.16599" lon="1.93384">
        <ele>87.04</ele>
        <time>2019-07-07T07:20:59Z</time>
      </trkpt>
      <trkpt lat="49.16604" lon="1.9338">
        <ele>87.18</ele>
        <time>2019-07-07T07:21:03Z</time>
      </trkpt>
      <trkpt lat="49.16617" lon="1.9337">
        <ele>87.2</ele>
        <time>2019-07-07T07:21:16Z</time>
      </trkpt>
      <trkpt lat="49.16632" lon="1.93358">
        <ele>87.25</ele>
        <time>2019-07-07T07:21:30Z</time>
      </trkpt>
      <trkpt lat="49.16639" lon="1.93351">
        <ele>87.22</ele>
        <time>2019-07-07T07:21:43Z</time>
      </trkpt>
      <trkpt lat="49.16639" lon="1.93351">
        <ele>87.65</ele>
        <time>2019-07-07T07:21:44Z</time>
      </trkpt>
      <trkpt lat="49.16644" lon="1.9335">
        <ele>87.07</ele>
        <time>2019-07-07T07:21:48Z</time>
      </trkpt>
      <trkpt lat="49.1666" lon="1.93339">
        <ele>87.25</ele>
        <time>2019-07-07T07:22:04Z</time>
      </trkpt>
      <trkpt lat="49.16679" lon="1.93331">
        <ele>86.81</ele>
        <time>2019-07-07T07:22:20Z</time>
      </trkpt>
      <trkpt lat="49.167" lon="1.93325">
        <ele>86.36</ele>
        <time>2019-07-07T07:22:37Z</time>
      </trkpt>
      <trkpt lat="49.16722" lon="1.93325">
        <ele>86.34</ele>
        <time>2019-07-07T07:22:55Z</time>
      </trkpt>
      <trkpt lat="49.16746" lon="1.93326">
        <ele>85.83</ele>
        <time>2019-07-07T07:23:14Z</time>
      </trkpt>
      <trkpt lat="49.16767" lon="1.93328">
        <ele>85.2</ele>
        <time>2019-07-07T07:23:32Z</time>
      </trkpt>
      <trkpt lat="49.16789" lon="1.93326">
        <ele>84.45</ele>
        <time>2019-07-07T07:23:51Z</time>
      </trkpt>
      <trkpt lat="49.16809" lon="1.93319">
        <ele>83.58</ele>
        <time>2019-07-07T07:24:09Z</time>
      </trkpt>
      <trkpt lat="49.16821" lon="1.93308">
        <ele>82.2</ele>
        <time>2019-07-07T07:24:24Z</time>
      </trkpt>
      <trkpt lat="49.16832" lon="1.93297">
        <ele>80.72</ele>
        <time>2019-07-07T07:24:42Z</time>
      </trkpt>
      <trkpt lat="49.16834" lon="1.93295">
        <ele>80.93</ele>
        <time>2019-07-07T07:24:44Z</time>
      </trkpt>
      <trkpt lat="49.16844" lon="1.93284">
        <ele>78.52</ele>
        <time>2019-07-07T07:25:00Z</time>
      </trkpt>
      <trkpt lat="49.16857" lon="1.93273">
        <ele>75.87</ele>
        <time>2019-07-07T07:25:20Z</time>
      </trkpt>
      <trkpt lat="49.16875" lon="1.9326">
        <ele>72.79</ele>
        <time>2019-07-07T07:25:40Z</time>
      </trkpt>
      <trkpt lat="49.16898" lon="1.9325">
        <ele>70.7</ele>
        <time>2019-07-07T07:26:00Z</time>
      </trkpt>
      <trkpt lat="49.16919" lon="1.93239">
        <ele>69.41</ele>
        <time>2019-07-07T07:26:21Z</time>
      </trkpt>
      <trkpt lat="49.16942" lon="1.93236">
        <ele>67.68</ele>
        <time>2019-07-07T07:26:43Z</time>
      </trkpt>
      <trkpt lat="49.16971" lon="1.93235">
        <ele>66.19</ele>
        <time>2019-07-07T07:27:02Z</time>
      </trkpt>
      <trkpt lat="49.16988" lon="1.93243">
        <ele>65.59</ele>
        <time>2019-07-07T07:27:16Z</time>
      </trkpt>
      <trkpt lat="49.17023" lon="1.93253">
        <ele>65</ele>
        <time>2019-07-07T07:27:37Z</time>
      </trkpt>
      <trkpt lat="49.17042" lon="1.93267">
        <ele>63.72</ele>
        <time>2019-07-07T07:27:52Z</time>
      </trkpt>
      <trkpt lat="49.17059" lon="1.93277">
        <ele>63.87</ele>
        <time>2019-07-07T07:28:07Z</time>
      </trkpt>
      <trkpt lat="49.17068" lon="1.9328">
        <ele>63.64</ele>
        <time>2019-07-07T07:28:16Z</time>
      </trkpt>
      <trkpt lat="49.17084" lon="1.93291">
        <ele>63</ele>
        <time>2019-07-07T07:28:31Z</time>
      </trkpt>
      <trkpt lat="49.17086" lon="1.93292">
        <ele>62.47</ele>
        <time>2019-07-07T07:28:34Z</time>
      </trkpt>
      <trkpt lat="49.17098" lon="1.93301">
        <ele>62.19</ele>
        <time>2019-07-07T07:28:47Z</time>
      </trkpt>
      <trkpt lat="49.17104" lon="1.93304">
        <ele>62.16</ele>
        <time>2019-07-07T07:28:52Z</time>
      </trkpt>
      <trkpt lat="49.17111" lon="1.93307">
        <ele>62.34</ele>
        <time>2019-07-07T07:29:00Z</time>
      </trkpt>
      <trkpt lat="49.17125" lon="1.9331">
        <ele>62.02</ele>
        <time>2019-07-07T07:29:14Z</time>
      </trkpt>
      <trkpt lat="49.17142" lon="1.9331">
        <ele>62</ele>
        <time>2019-07-07T07:29:27Z</time>
      </trkpt>
      <trkpt lat="49.1716" lon="1.93306">
        <ele>61.7</ele>
        <time>2019-07-07T07:29:41Z</time>
      </trkpt>
      <trkpt lat="49.17175" lon="1.93296">
        <ele>61.81</ele>
        <time>2019-07-07T07:29:54Z</time>
      </trkpt>
      <trkpt lat="49.17192" lon="1.93282">
        <ele>61.36</ele>
        <time>2019-07-07T07:30:10Z</time>
      </trkpt>
      <trkpt lat="49.17208" lon="1.9327">
        <ele>61.93</ele>
        <time>2019-07-07T07:30:25Z</time>
      </trkpt>
      <trkpt lat="49.17224" lon="1.93261">
        <ele>61.22</ele>
        <time>2019-07-07T07:30:40Z</time>
      </trkpt>
      <trkpt lat="49.1724" lon="1.93254">
        <ele>61.84</ele>
        <time>2019-07-07T07:30:54Z</time>
      </trkpt>
      <trkpt lat="49.17258" lon="1.93246">
        <ele>61.35</ele>
        <time>2019-07-07T07:31:10Z</time>
      </trkpt>
      <trkpt lat="49.17268" lon="1.93244">
        <ele>60.81</ele>
        <time>2019-07-07T07:31:20Z</time>
      </trkpt>
      <trkpt lat="49.17271" lon="1.93242">
        <ele>60.51</ele>
        <time>2019-07-07T07:31:23Z</time>
      </trkpt>
      <trkpt lat="49.17279" lon="1.93235">
        <ele>60.18</ele>
        <time>2019-07-07T07:31:37Z</time>
      </trkpt>
      <trkpt lat="49.17297" lon="1.93221">
        <ele>60.2</ele>
        <time>2019-07-07T07:31:56Z</time>
      </trkpt>
      <trkpt lat="49.17312" lon="1.93207">
        <ele>59.96</ele>
        <time>2019-07-07T07:32:13Z</time>
      </trkpt>
      <trkpt lat="49.17322" lon="1.93193">
        <ele>60.16</ele>
        <time>2019-07-07T07:32:27Z</time>
      </trkpt>
      <trkpt lat="49.17344" lon="1.93184">
        <ele>60.07</ele>
        <time>2019-07-07T07:32:48Z</time>
      </trkpt>
      <trkpt lat="49.17365" lon="1.93186">
        <ele>59.71</ele>
        <time>2019-07-07T07:33:03Z</time>
      </trkpt>
      <trkpt lat="49.17381" lon="1.9319">
        <ele>59.25</ele>
        <time>2019-07-07T07:33:17Z</time>
      </trkpt>
      <trkpt lat="49.17401" lon="1.93192">
        <ele>59.63</ele>
        <time>2019-07-07T07:33:35Z</time>
      </trkpt>
      <trkpt lat="49.17417" lon="1.93185">
        <ele>60.28</ele>
        <time>2019-07-07T07:33:51Z</time>
      </trkpt>
      <trkpt lat="49.17436" lon="1.93179">
        <ele>60.29</ele>
        <time>2019-07-07T07:34:10Z</time>
      </trkpt>
      <trkpt lat="49.17437" lon="1.93179">
        <ele>60.56</ele>
        <time>2019-07-07T07:34:11Z</time>
      </trkpt>
      <trkpt lat="49.17441" lon="1.93182">
        <ele>60.29</ele>
        <time>2019-07-07T07:34:32Z</time>
      </trkpt>
      <trkpt lat="49.17449" lon="1.9318">
        <ele>60</ele>
        <time>2019-07-07T07:34:57Z</time>
      </trkpt>
      <trkpt lat="49.1745" lon="1.93178">
        <ele>60.53</ele>
        <time>2019-07-07T07:35:15Z</time>
      </trkpt>
      <trkpt lat="49.17449" lon="1.93179">
        <ele>60.26</ele>
        <time>2019-07-07T07:35:36Z</time>
      </trkpt>
      <trkpt lat="49.1745" lon="1.93176">
        <ele>59.86</ele>
        <time>2019-07-07T07:35:59Z</time>
      </trkpt>
      <trkpt lat="49.17451" lon="1.93177">
        <ele>60.15</ele>
        <time>2019-07-07T07:36:12Z</time>
      </trkpt>
      <trkpt lat="49.17458" lon="1.9318">
        <ele>60.1</ele>
        <time>2019-07-07T07:36:31Z</time>
      </trkpt>
      <trkpt lat="49.17459" lon="1.93179">
        <ele>60.19</ele>
        <time>2019-07-07T07:36:45Z</time>
      </trkpt>
      <trkpt lat="49.17461" lon="1.93178">
        <ele>60.32</ele>
        <time>2019-07-07T07:36:47Z</time>
      </trkpt>
      <trkpt lat="49.17467" lon="1.93173">
        <ele>60.23</ele>
        <time>2019-07-07T07:36:57Z</time>
      </trkpt>
      <trkpt lat="49.17479" lon="1.93153">
        <ele>60.32</ele>
        <time>2019-07-07T07:37:15Z</time>
      </trkpt>
      <trkpt lat="49.1749" lon="1.93139">
        <ele>60.33</ele>
        <time>2019-07-07T07:37:31Z</time>
      </trkpt>
      <trkpt lat="49.17505" lon="1.93124">
        <ele>59.87</ele>
        <time>2019-07-07T07:37:47Z</time>
      </trkpt>
      <trkpt lat="49.17517" lon="1.93104">
        <ele>59.81</ele>
        <time>2019-07-07T07:38:07Z</time>
      </trkpt>
      <trkpt lat="49.17526" lon="1.93094">
        <ele>59.33</ele>
        <time>2019-07-07T07:38:24Z</time>
      </trkpt>
      <trkpt lat="49.1753" lon="1.93092">
        <ele>59.55</ele>
        <time>2019-07-07T07:38:32Z</time>
      </trkpt>
      <trkpt lat="49.17536" lon="1.9309">
        <ele>60.23</ele>
        <time>2019-07-07T07:38:49Z</time>
      </trkpt>
      <trkpt lat="49.17543" lon="1.93093">
        <ele>58.69</ele>
        <time>2019-07-07T07:39:03Z</time>
      </trkpt>
      <trkpt lat="49.17551" lon="1.93102">
        <ele>58.84</ele>
        <time>2019-07-07T07:39:14Z</time>
      </trkpt>
      <trkpt lat="49.17569" lon="1.93107">
        <ele>58.64</ele>
        <time>2019-07-07T07:39:26Z</time>
      </trkpt>
      <trkpt lat="49.1759" lon="1.93112">
        <ele>58.79</ele>
        <time>2019-07-07T07:39:40Z</time>
      </trkpt>
      <trkpt lat="49.1761" lon="1.93122">
        <ele>59.09</ele>
        <time>2019-07-07T07:39:55Z</time>
      </trkpt>
      <trkpt lat="49.17612" lon="1.93127">
        <ele>59.82</ele>
        <time>2019-07-07T07:40:14Z</time>
      </trkpt>
      <trkpt lat="49.17617" lon="1.93132">
        <ele>59.29</ele>
        <time>2019-07-07T07:40:40Z</time>
      </trkpt>
      <trkpt lat="49.17624" lon="1.93137">
        <ele>58.97</ele>
        <time>2019-07-07T07:40:46Z</time>
      </trkpt>
      <trkpt lat="49.17631" lon="1.93141">
        <ele>58.9</ele>
        <time>2019-07-07T07:40:58Z</time>
      </trkpt>
      <trkpt lat="49.17637" lon="1.93144">
        <ele>59.28</ele>
        <time>2019-07-07T07:41:05Z</time>
      </trkpt>
      <trkpt lat="49.17649" lon="1.9315">
        <ele>58.9</ele>
        <time>2019-07-07T07:41:19Z</time>
      </trkpt>
      <trkpt lat="49.17652" lon="1.93151">
        <ele>59.23</ele>
        <time>2019-07-07T07:41:22Z</time>
      </trkpt>
      <trkpt lat="49.17658" lon="1.93154">
        <ele>59.02</ele>
        <time>2019-07-07T07:41:29Z</time>
      </trkpt>
      <trkpt lat="49.1767" lon="1.93162">
        <ele>59.33</ele>
        <time>2019-07-07T07:41:40Z</time>
      </trkpt>
      <trkpt lat="49.17688" lon="1.93162">
        <ele>60.45</ele>
        <time>2019-07-07T07:41:57Z</time>
      </trkpt>
      <trkpt lat="49.17703" lon="1.9315">
        <ele>61.66</ele>
        <time>2019-07-07T07:42:15Z</time>
      </trkpt>
      <trkpt lat="49.17719" lon="1.93141">
        <ele>63.28</ele>
        <time>2019-07-07T07:42:36Z</time>
      </trkpt>
      <trkpt lat="49.17735" lon="1.93151">
        <ele>63.8</ele>
        <time>2019-07-07T07:42:55Z</time>
      </trkpt>
      <trkpt lat="49.17738" lon="1.93153">
        <ele>64.23</ele>
        <time>2019-07-07T07:42:57Z</time>
      </trkpt>
      <trkpt lat="49.1775" lon="1.93164">
        <ele>65.19</ele>
        <time>2019-07-07T07:43:10Z</time>
      </trkpt>
      <trkpt lat="49.17768" lon="1.93186">
        <ele>66.49</ele>
        <time>2019-07-07T07:43:28Z</time>
      </trkpt>
      <trkpt lat="49.17777" lon="1.93201">
        <ele>67.32</ele>
        <time>2019-07-07T07:43:46Z</time>
      </trkpt>
      <trkpt lat="49.17794" lon="1.93215">
        <ele>68.22</ele>
        <time>2019-07-07T07:44:06Z</time>
      </trkpt>
      <trkpt lat="49.17818" lon="1.93233">
        <ele>70.12</ele>
        <time>2019-07-07T07:44:29Z</time>
      </trkpt>
      <trkpt lat="49.17839" lon="1.93245">
        <ele>71.21</ele>
        <time>2019-07-07T07:44:51Z</time>
      </trkpt>
      <trkpt lat="49.17861" lon="1.93257">
        <ele>72.07</ele>
        <time>2019-07-07T07:45:14Z</time>
      </trkpt>
      <trkpt lat="49.17883" lon="1.93263">
        <ele>73.35</ele>
        <time>2019-07-07T07:45:34Z</time>
      </trkpt>
      <trkpt lat="49.17905" lon="1.93279">
        <ele>74.31</ele>
        <time>2019-07-07T07:45:53Z</time>
      </trkpt>
      <trkpt lat="49.17922" lon="1.93288">
        <ele>75.47</ele>
        <time>2019-07-07T07:46:11Z</time>
      </trkpt>
      <trkpt lat="49.17926" lon="1.93292">
        <ele>75.63</ele>
        <time>2019-07-07T07:46:28Z</time>
      </trkpt>
      <trkpt lat="49.17927" lon="1.93292">
        <ele>75.26</ele>
        <time>2019-07-07T07:46:55Z</time>
      </trkpt>
      <trkpt lat="49.17927" lon="1.93295">
        <ele>75.02</ele>
        <time>2019-07-07T07:47:22Z</time>
      </trkpt>
      <trkpt lat="49.17926" lon="1.93296">
        <ele>74.34</ele>
        <time>2019-07-07T07:47:51Z</time>
      </trkpt>
      <trkpt lat="49.17924" lon="1.93292">
        <ele>74.17</ele>
        <time>2019-07-07T07:48:20Z</time>
      </trkpt>
      <trkpt lat="49.17924" lon="1.93291">
        <ele>74.41</ele>
        <time>2019-07-07T07:48:49Z</time>
      </trkpt>
      <trkpt lat="49.17928" lon="1.93287">
        <ele>73.85</ele>
        <time>2019-07-07T07:49:18Z</time>
      </trkpt>
      <trkpt lat="49.17927" lon="1.93294">
        <ele>74.06</ele>
        <time>2019-07-07T07:49:45Z</time>
      </trkpt>
      <trkpt lat="49.17925" lon="1.93296">
        <ele>74.17</ele>
        <time>2019-07-07T07:50:13Z</time>
      </trkpt>
      <trkpt lat="49.17926" lon="1.93296">
        <ele>74.07</ele>
        <time>2019-07-07T07:50:17Z</time>
      </trkpt>
      <trkpt lat="49.17928" lon="1.93294">
        <ele>74.7</ele>
        <time>2019-07-07T07:50:19Z</time>
      </trkpt>
      <trkpt lat="49.17929" lon="1.93297">
        <ele>73.96</ele>
        <time>2019-07-07T07:50:43Z</time>
      </trkpt>
      <trkpt lat="49.17928" lon="1.93297">
        <ele>74.11</ele>
        <time>2019-07-07T07:50:49Z</time>
      </trkpt>
      <trkpt lat="49.1794" lon="1.93296">
        <ele>74.49</ele>
        <time>2019-07-07T07:51:11Z</time>
      </trkpt>
      <trkpt lat="49.17957" lon="1.93296">
        <ele>75.39</ele>
        <time>2019-07-07T07:51:31Z</time>
      </trkpt>
      <trkpt lat="49.17977" lon="1.93297">
        <ele>75.97</ele>
        <time>2019-07-07T07:51:52Z</time>
      </trkpt>
      <trkpt lat="49.18" lon="1.93298">
        <ele>76.08</ele>
        <time>2019-07-07T07:52:14Z</time>
      </trkpt>
      <trkpt lat="49.18025" lon="1.93302">
        <ele>76.55</ele>
        <time>2019-07-07T07:52:36Z</time>
      </trkpt>
      <trkpt lat="49.18043" lon="1.93304">
        <ele>77.32</ele>
        <time>2019-07-07T07:52:55Z</time>
      </trkpt>
      <trkpt lat="49.18067" lon="1.93307">
        <ele>77.35</ele>
        <time>2019-07-07T07:53:16Z</time>
      </trkpt>
      <trkpt lat="49.18092" lon="1.93308">
        <ele>77.77</ele>
        <time>2019-07-07T07:53:36Z</time>
      </trkpt>
      <trkpt lat="49.18113" lon="1.93312">
        <ele>78.47</ele>
        <time>2019-07-07T07:53:59Z</time>
      </trkpt>
      <trkpt lat="49.18132" lon="1.93314">
        <ele>79</ele>
        <time>2019-07-07T07:54:17Z</time>
      </trkpt>
      <trkpt lat="49.18151" lon="1.93319">
        <ele>80.07</ele>
        <time>2019-07-07T07:54:34Z</time>
      </trkpt>
      <trkpt lat="49.18162" lon="1.93319">
        <ele>80.28</ele>
        <time>2019-07-07T07:54:45Z</time>
      </trkpt>
      <trkpt lat="49.18185" lon="1.9332">
        <ele>82.14</ele>
        <time>2019-07-07T07:55:07Z</time>
      </trkpt>
      <trkpt lat="49.18208" lon="1.93323">
        <ele>83.14</ele>
        <time>2019-07-07T07:55:28Z</time>
      </trkpt>
      <trkpt lat="49.18229" lon="1.93326">
        <ele>84.27</ele>
        <time>2019-07-07T07:55:49Z</time>
      </trkpt>
      <trkpt lat="49.18249" lon="1.93331">
        <ele>84.85</ele>
        <time>2019-07-07T07:56:09Z</time>
      </trkpt>
      <trkpt lat="49.1825" lon="1.93331">
        <ele>85.14</ele>
        <time>2019-07-07T07:56:10Z</time>
      </trkpt>
      <trkpt lat="49.18262" lon="1.93332">
        <ele>85.33</ele>
        <time>2019-07-07T07:56:25Z</time>
      </trkpt>
      <trkpt lat="49.18281" lon="1.93335">
        <ele>86.47</ele>
        <time>2019-07-07T07:56:45Z</time>
      </trkpt>
      <trkpt lat="49.18298" lon="1.93341">
        <ele>87.12</ele>
        <time>2019-07-07T07:57:03Z</time>
      </trkpt>
      <trkpt lat="49.1832" lon="1.93347">
        <ele>88.31</ele>
        <time>2019-07-07T07:57:26Z</time>
      </trkpt>
      <trkpt lat="49.18346" lon="1.93352">
        <ele>89.96</ele>
        <time>2019-07-07T07:57:47Z</time>
      </trkpt>
      <trkpt lat="49.18359" lon="1.93353">
        <ele>90.62</ele>
        <time>2019-07-07T07:58:03Z</time>
      </trkpt>
      <trkpt lat="49.18382" lon="1.93359">
        <ele>90.76</ele>
        <time>2019-07-07T07:58:24Z</time>
      </trkpt>
      <trkpt lat="49.184" lon="1.93367">
        <ele>91.62</ele>
        <time>2019-07-07T07:58:43Z</time>
      </trkpt>
      <trkpt lat="49.1842" lon="1.93375">
        <ele>91.94</ele>
        <time>2019-07-07T07:59:04Z</time>
      </trkpt>
      <trkpt lat="49.18445" lon="1.93384">
        <ele>92.76</ele>
        <time>2019-07-07T07:59:26Z</time>
      </trkpt>
      <trkpt lat="49.18466" lon="1.93391">
        <ele>92.85</ele>
        <time>2019-07-07T07:59:46Z</time>
      </trkpt>
      <trkpt lat="49.18487" lon="1.93402">
        <ele>92.58</ele>
        <time>2019-07-07T08:00:05Z</time>
      </trkpt>
      <trkpt lat="49.1851" lon="1.93409">
        <ele>92.4</ele>
        <time>2019-07-07T08:00:24Z</time>
      </trkpt>
      <trkpt lat="49.1853" lon="1.93415">
        <ele>92.53</ele>
        <time>2019-07-07T08:00:43Z</time>
      </trkpt>
      <trkpt lat="49.18552" lon="1.9342">
        <ele>92.66</ele>
        <time>2019-07-07T08:01:02Z</time>
      </trkpt>
      <trkpt lat="49.18576" lon="1.93421">
        <ele>93.08</ele>
        <time>2019-07-07T08:01:24Z</time>
      </trkpt>
      <trkpt lat="49.18598" lon="1.93428">
        <ele>92.84</ele>
        <time>2019-07-07T08:01:43Z</time>
      </trkpt>
      <trkpt lat="49.18618" lon="1.93432">
        <ele>92.98</ele>
        <time>2019-07-07T08:02:02Z</time>
      </trkpt>
      <trkpt lat="49.18638" lon="1.93433">
        <ele>93.56</ele>
        <time>2019-07-07T08:02:22Z</time>
      </trkpt>
      <trkpt lat="49.1866" lon="1.93438">
        <ele>93.31</ele>
        <time>2019-07-07T08:02:41Z</time>
      </trkpt>
      <trkpt lat="49.18687" lon="1.93441">
        <ele>92.59</ele>
        <time>2019-07-07T08:03:04Z</time>
      </trkpt>
      <trkpt lat="49.18702" lon="1.93444">
        <ele>92.19</ele>
        <time>2019-07-07T08:03:17Z</time>
      </trkpt>
      <trkpt lat="49.18711" lon="1.93445">
        <ele>92.74</ele>
        <time>2019-07-07T08:03:24Z</time>
      </trkpt>
      <trkpt lat="49.18734" lon="1.93449">
        <ele>91.97</ele>
        <time>2019-07-07T08:03:43Z</time>
      </trkpt>
      <trkpt lat="49.18749" lon="1.93452">
        <ele>91.6</ele>
        <time>2019-07-07T08:03:58Z</time>
      </trkpt>
      <trkpt lat="49.18769" lon="1.93452">
        <ele>91.49</ele>
        <time>2019-07-07T08:04:21Z</time>
      </trkpt>
      <trkpt lat="49.18776" lon="1.93453">
        <ele>91.05</ele>
        <time>2019-07-07T08:04:27Z</time>
      </trkpt>
      <trkpt lat="49.18792" lon="1.9346">
        <ele>91.41</ele>
        <time>2019-07-07T08:04:43Z</time>
      </trkpt>
      <trkpt lat="49.18815" lon="1.93461">
        <ele>91.94</ele>
        <time>2019-07-07T08:05:04Z</time>
      </trkpt>
      <trkpt lat="49.18839" lon="1.93466">
        <ele>91.85</ele>
        <time>2019-07-07T08:05:22Z</time>
      </trkpt>
      <trkpt lat="49.18858" lon="1.93469">
        <ele>92.13</ele>
        <time>2019-07-07T08:05:41Z</time>
      </trkpt>
      <trkpt lat="49.18879" lon="1.93475">
        <ele>91.79</ele>
        <time>2019-07-07T08:06:02Z</time>
      </trkpt>
      <trkpt lat="49.18905" lon="1.93477">
        <ele>92.54</ele>
        <time>2019-07-07T08:06:24Z</time>
      </trkpt>
      <trkpt lat="49.18926" lon="1.9348">
        <ele>92.33</ele>
        <time>2019-07-07T08:06:46Z</time>
      </trkpt>
      <trkpt lat="49.18928" lon="1.93511">
        <ele>92.94</ele>
        <time>2019-07-07T08:07:06Z</time>
      </trkpt>
      <trkpt lat="49.18933" lon="1.93517">
        <ele>92.88</ele>
        <time>2019-07-07T08:07:23Z</time>
      </trkpt>
      <trkpt lat="49.18937" lon="1.93504">
        <ele>92.34</ele>
        <time>2019-07-07T08:07:34Z</time>
      </trkpt>
      <trkpt lat="49.18951" lon="1.93492">
        <ele>92.63</ele>
        <time>2019-07-07T08:07:53Z</time>
      </trkpt>
      <trkpt lat="49.18957" lon="1.93494">
        <ele>92.46</ele>
        <time>2019-07-07T08:08:09Z</time>
      </trkpt>
      <trkpt lat="49.18958" lon="1.93492">
        <ele>93.06</ele>
        <time>2019-07-07T08:08:11Z</time>
      </trkpt>
      <trkpt lat="49.18962" lon="1.9349">
        <ele>93.03</ele>
        <time>2019-07-07T08:08:19Z</time>
      </trkpt>
      <trkpt lat="49.18974" lon="1.93491">
        <ele>92.81</ele>
        <time>2019-07-07T08:08:37Z</time>
      </trkpt>
      <trkpt lat="49.18988" lon="1.93494">
        <ele>92.42</ele>
        <time>2019-07-07T08:08:53Z</time>
      </trkpt>
      <trkpt lat="49.19003" lon="1.93496">
        <ele>92.61</ele>
        <time>2019-07-07T08:09:14Z</time>
      </trkpt>
      <trkpt lat="49.19021" lon="1.93502">
        <ele>92.57</ele>
        <time>2019-07-07T08:09:36Z</time>
      </trkpt>
      <trkpt lat="49.19042" lon="1.93506">
        <ele>91.44</ele>
        <time>2019-07-07T08:09:54Z</time>
      </trkpt>
      <trkpt lat="49.19059" lon="1.93505">
        <ele>90.4</ele>
        <time>2019-07-07T08:10:16Z</time>
      </trkpt>
      <trkpt lat="49.19059" lon="1.93505">
        <ele>90.4</ele>
        <time>2019-07-07T08:10:18Z</time>
      </trkpt>
      <trkpt lat="49.19088" lon="1.93506">
        <ele>89.74</ele>
        <time>2019-07-07T08:10:39Z</time>
      </trkpt>
      <trkpt lat="49.19101" lon="1.93507">
        <ele>89.42</ele>
        <time>2019-07-07T08:10:49Z</time>
      </trkpt>
      <trkpt lat="49.19124" lon="1.93508">
        <ele>88.1</ele>
        <time>2019-07-07T08:11:05Z</time>
      </trkpt>
      <trkpt lat="49.19141" lon="1.93509">
        <ele>87.71</ele>
        <time>2019-07-07T08:11:21Z</time>
      </trkpt>
      <trkpt lat="49.19158" lon="1.93506">
        <ele>87.48</ele>
        <time>2019-07-07T08:11:35Z</time>
      </trkpt>
      <trkpt lat="49.19172" lon="1.93504">
        <ele>87.4</ele>
        <time>2019-07-07T08:11:48Z</time>
      </trkpt>
      <trkpt lat="49.19187" lon="1.93503">
        <ele>86.31</ele>
        <time>2019-07-07T08:12:02Z</time>
      </trkpt>
      <trkpt lat="49.19192" lon="1.93502">
        <ele>86.14</ele>
        <time>2019-07-07T08:12:09Z</time>
      </trkpt>
      <trkpt lat="49.19208" lon="1.935">
        <ele>85.54</ele>
        <time>2019-07-07T08:12:25Z</time>
      </trkpt>
      <trkpt lat="49.19219" lon="1.93499">
        <ele>85.7</ele>
        <time>2019-07-07T08:12:38Z</time>
      </trkpt>
      <trkpt lat="49.19223" lon="1.93499">
        <ele>84.97</ele>
        <time>2019-07-07T08:12:42Z</time>
      </trkpt>
      <trkpt lat="49.19237" lon="1.93496">
        <ele>84.41</ele>
        <time>2019-07-07T08:12:56Z</time>
      </trkpt>
      <trkpt lat="49.19238" lon="1.93496">
        <ele>84.34</ele>
        <time>2019-07-07T08:12:57Z</time>
      </trkpt>
      <trkpt lat="49.19241" lon="1.93496">
        <ele>84.09</ele>
        <time>2019-07-07T08:13:00Z</time>
      </trkpt>
      <trkpt lat="49.19253" lon="1.93499">
        <ele>83.69</ele>
        <time>2019-07-07T08:13:12Z</time>
      </trkpt>
      <trkpt lat="49.19267" lon="1.93502">
        <ele>83.06</ele>
        <time>2019-07-07T08:13:25Z</time>
      </trkpt>
      <trkpt lat="49.1927" lon="1.93502">
        <ele>82.65</ele>
        <time>2019-07-07T08:13:28Z</time>
      </trkpt>
      <trkpt lat="49.19281" lon="1.93503">
        <ele>82.1</ele>
        <time>2019-07-07T08:13:38Z</time>
      </trkpt>
      <trkpt lat="49.19284" lon="1.93504">
        <ele>81.67</ele>
        <time>2019-07-07T08:13:41Z</time>
      </trkpt>
      <trkpt lat="49.19294" lon="1.93507">
        <ele>81.71</ele>
        <time>2019-07-07T08:13:50Z</time>
      </trkpt>
      <trkpt lat="49.19298" lon="1.93508">
        <ele>81.47</ele>
        <time>2019-07-07T08:13:54Z</time>
      </trkpt>
      <trkpt lat="49.19309" lon="1.93511">
        <ele>80.82</ele>
        <time>2019-07-07T08:14:05Z</time>
      </trkpt>
      <trkpt lat="49.19311" lon="1.93511">
        <ele>80.88</ele>
        <time>2019-07-07T08:14:07Z</time>
      </trkpt>
      <trkpt lat="49.19322" lon="1.93517">
        <ele>80.5</ele>
        <time>2019-07-07T08:14:17Z</time>
      </trkpt>
      <trkpt lat="49.19331" lon="1.93523">
        <ele>79.72</ele>
        <time>2019-07-07T08:14:26Z</time>
      </trkpt>
      <trkpt lat="49.19344" lon="1.93537">
        <ele>78.57</ele>
        <time>2019-07-07T08:14:40Z</time>
      </trkpt>
      <trkpt lat="49.19356" lon="1.93552">
        <ele>77.66</ele>
        <time>2019-07-07T08:14:54Z</time>
      </trkpt>
      <trkpt lat="49.19371" lon="1.93567">
        <ele>77.39</ele>
        <time>2019-07-07T08:15:07Z</time>
      </trkpt>
      <trkpt lat="49.19381" lon="1.93572">
        <ele>77.87</ele>
        <time>2019-07-07T08:15:21Z</time>
      </trkpt>
      <trkpt lat="49.19381" lon="1.93575">
        <ele>77.98</ele>
        <time>2019-07-07T08:15:24Z</time>
      </trkpt>
      <trkpt lat="49.19381" lon="1.93582">
        <ele>78.7</ele>
        <time>2019-07-07T08:15:39Z</time>
      </trkpt>
      <trkpt lat="49.19379" lon="1.93584">
        <ele>78.73</ele>
        <time>2019-07-07T08:15:45Z</time>
      </trkpt>
      <trkpt lat="49.19375" lon="1.93596">
        <ele>78.26</ele>
        <time>2019-07-07T08:15:57Z</time>
      </trkpt>
      <trkpt lat="49.19373" lon="1.936">
        <ele>78.45</ele>
        <time>2019-07-07T08:16:00Z</time>
      </trkpt>
      <trkpt lat="49.19361" lon="1.93625">
        <ele>80.74</ele>
        <time>2019-07-07T08:16:22Z</time>
      </trkpt>
      <trkpt lat="49.19354" lon="1.9364">
        <ele>81.99</ele>
        <time>2019-07-07T08:16:37Z</time>
      </trkpt>
      <trkpt lat="49.19349" lon="1.93651">
        <ele>83.01</ele>
        <time>2019-07-07T08:16:49Z</time>
      </trkpt>
      <trkpt lat="49.19347" lon="1.93656">
        <ele>83.66</ele>
        <time>2019-07-07T08:16:53Z</time>
      </trkpt>
      <trkpt lat="49.19331" lon="1.93682">
        <ele>84.25</ele>
        <time>2019-07-07T08:17:15Z</time>
      </trkpt>
      <trkpt lat="49.1933" lon="1.93684">
        <ele>84.83</ele>
        <time>2019-07-07T08:17:17Z</time>
      </trkpt>
      <trkpt lat="49.19316" lon="1.9371">
        <ele>84.91</ele>
        <time>2019-07-07T08:17:36Z</time>
      </trkpt>
      <trkpt lat="49.19309" lon="1.93726">
        <ele>85.72</ele>
        <time>2019-07-07T08:17:50Z</time>
      </trkpt>
      <trkpt lat="49.19303" lon="1.9374">
        <ele>86.03</ele>
        <time>2019-07-07T08:18:02Z</time>
      </trkpt>
      <trkpt lat="49.19294" lon="1.93757">
        <ele>86.34</ele>
        <time>2019-07-07T08:18:16Z</time>
      </trkpt>
      <trkpt lat="49.19291" lon="1.93766">
        <ele>86.65</ele>
        <time>2019-07-07T08:18:23Z</time>
      </trkpt>
      <trkpt lat="49.19287" lon="1.93776">
        <ele>86.83</ele>
        <time>2019-07-07T08:18:32Z</time>
      </trkpt>
      <trkpt lat="49.19285" lon="1.93779">
        <ele>86.96</ele>
        <time>2019-07-07T08:18:34Z</time>
      </trkpt>
      <trkpt lat="49.19278" lon="1.93795">
        <ele>87.31</ele>
        <time>2019-07-07T08:18:47Z</time>
      </trkpt>
      <trkpt lat="49.19274" lon="1.93804">
        <ele>87.76</ele>
        <time>2019-07-07T08:18:55Z</time>
      </trkpt>
      <trkpt lat="49.19272" lon="1.93808">
        <ele>87.61</ele>
        <time>2019-07-07T08:18:58Z</time>
      </trkpt>
      <trkpt lat="49.19268" lon="1.93814">
        <ele>88.13</ele>
        <time>2019-07-07T08:19:02Z</time>
      </trkpt>
      <trkpt lat="49.19258" lon="1.93836">
        <ele>88.66</ele>
        <time>2019-07-07T08:19:18Z</time>
      </trkpt>
      <trkpt lat="49.1925" lon="1.93853">
        <ele>88.89</ele>
        <time>2019-07-07T08:19:31Z</time>
      </trkpt>
      <trkpt lat="49.19245" lon="1.93862">
        <ele>89.16</ele>
        <time>2019-07-07T08:19:40Z</time>
      </trkpt>
      <trkpt lat="49.19243" lon="1.93867">
        <ele>88.3</ele>
        <time>2019-07-07T08:19:43Z</time>
      </trkpt>
      <trkpt lat="49.19235" lon="1.93882">
        <ele>89.62</ele>
        <time>2019-07-07T08:19:56Z</time>
      </trkpt>
      <trkpt lat="49.19229" lon="1.93893">
        <ele>89.69</ele>
        <time>2019-07-07T08:20:07Z</time>
      </trkpt>
      <trkpt lat="49.19222" lon="1.93906">
        <ele>89.61</ele>
        <time>2019-07-07T08:20:19Z</time>
      </trkpt>
      <trkpt lat="49.19215" lon="1.9392">
        <ele>89.1</ele>
        <time>2019-07-07T08:20:33Z</time>
      </trkpt>
      <trkpt lat="49.19208" lon="1.93933">
        <ele>89.8</ele>
        <time>2019-07-07T08:20:47Z</time>
      </trkpt>
      <trkpt lat="49.19206" lon="1.93937">
        <ele>89.73</ele>
        <time>2019-07-07T08:20:50Z</time>
      </trkpt>
      <trkpt lat="49.19197" lon="1.93955">
        <ele>89.67</ele>
        <time>2019-07-07T08:21:04Z</time>
      </trkpt>
      <trkpt lat="49.19194" lon="1.93963">
        <ele>89.99</ele>
        <time>2019-07-07T08:21:15Z</time>
      </trkpt>
      <trkpt lat="49.19192" lon="1.93964">
        <ele>89.92</ele>
        <time>2019-07-07T08:21:38Z</time>
      </trkpt>
      <trkpt lat="49.19192" lon="1.93969">
        <ele>90.19</ele>
        <time>2019-07-07T08:21:57Z</time>
      </trkpt>
      <trkpt lat="49.1919" lon="1.93968">
        <ele>90.32</ele>
        <time>2019-07-07T08:22:21Z</time>
      </trkpt>
      <trkpt lat="49.1919" lon="1.93968">
        <ele>90.6</ele>
        <time>2019-07-07T08:22:45Z</time>
      </trkpt>
      <trkpt lat="49.19188" lon="1.9397">
        <ele>90.88</ele>
        <time>2019-07-07T08:23:16Z</time>
      </trkpt>
      <trkpt lat="49.19186" lon="1.93975">
        <ele>91.01</ele>
        <time>2019-07-07T08:23:30Z</time>
      </trkpt>
      <trkpt lat="49.19185" lon="1.93979">
        <ele>90.77</ele>
        <time>2019-07-07T08:23:33Z</time>
      </trkpt>
      <trkpt lat="49.19182" lon="1.93981">
        <ele>91.14</ele>
        <time>2019-07-07T08:23:37Z</time>
      </trkpt>
      <trkpt lat="49.19171" lon="1.94003">
        <ele>91.04</ele>
        <time>2019-07-07T08:23:55Z</time>
      </trkpt>
      <trkpt lat="49.19165" lon="1.94018">
        <ele>91.49</ele>
        <time>2019-07-07T08:24:07Z</time>
      </trkpt>
      <trkpt lat="49.19164" lon="1.94021">
        <ele>91.63</ele>
        <time>2019-07-07T08:24:09Z</time>
      </trkpt>
      <trkpt lat="49.19163" lon="1.94025">
        <ele>91.5</ele>
        <time>2019-07-07T08:24:12Z</time>
      </trkpt>
      <trkpt lat="49.19162" lon="1.94029">
        <ele>91.21</ele>
        <time>2019-07-07T08:24:15Z</time>
      </trkpt>
      <trkpt lat="49.19157" lon="1.94043">
        <ele>91.97</ele>
        <time>2019-07-07T08:24:24Z</time>
      </trkpt>
      <trkpt lat="49.19145" lon="1.94067">
        <ele>92.34</ele>
        <time>2019-07-07T08:24:41Z</time>
      </trkpt>
      <trkpt lat="49.19136" lon="1.94087">
        <ele>92.68</ele>
        <time>2019-07-07T08:24:55Z</time>
      </trkpt>
      <trkpt lat="49.19127" lon="1.94104">
        <ele>93.07</ele>
        <time>2019-07-07T08:25:11Z</time>
      </trkpt>
      <trkpt lat="49.19122" lon="1.94112">
        <ele>93.01</ele>
        <time>2019-07-07T08:25:23Z</time>
      </trkpt>
      <trkpt lat="49.19112" lon="1.9413">
        <ele>93.84</ele>
        <time>2019-07-07T08:25:38Z</time>
      </trkpt>
      <trkpt lat="49.19102" lon="1.94151">
        <ele>94.4</ele>
        <time>2019-07-07T08:25:53Z</time>
      </trkpt>
      <trkpt lat="49.19099" lon="1.94158">
        <ele>94.2</ele>
        <time>2019-07-07T08:25:59Z</time>
      </trkpt>
      <trkpt lat="49.1909" lon="1.94176">
        <ele>94.19</ele>
        <time>2019-07-07T08:26:13Z</time>
      </trkpt>
      <trkpt lat="49.19088" lon="1.94181">
        <ele>94.8</ele>
        <time>2019-07-07T08:26:17Z</time>
      </trkpt>
      <trkpt lat="49.19086" lon="1.94185">
        <ele>94.21</ele>
        <time>2019-07-07T08:26:21Z</time>
      </trkpt>
      <trkpt lat="49.19084" lon="1.94189">
        <ele>94.37</ele>
        <time>2019-07-07T08:26:24Z</time>
      </trkpt>
      <trkpt lat="49.19081" lon="1.94196">
        <ele>94.42</ele>
        <time>2019-07-07T08:26:30Z</time>
      </trkpt>
      <trkpt lat="49.19071" lon="1.94214">
        <ele>94.82</ele>
        <time>2019-07-07T08:26:44Z</time>
      </trkpt>
      <trkpt lat="49.19064" lon="1.94226">
        <ele>94.7</ele>
        <time>2019-07-07T08:26:56Z</time>
      </trkpt>
      <trkpt lat="49.1906" lon="1.94235">
        <ele>95.2</ele>
        <time>2019-07-07T08:27:04Z</time>
      </trkpt>
      <trkpt lat="49.19058" lon="1.94237">
        <ele>95.23</ele>
        <time>2019-07-07T08:27:06Z</time>
      </trkpt>
      <trkpt lat="49.19045" lon="1.94259">
        <ele>95.33</ele>
        <time>2019-07-07T08:27:22Z</time>
      </trkpt>
      <trkpt lat="49.19034" lon="1.94279">
        <ele>95.81</ele>
        <time>2019-07-07T08:27:38Z</time>
      </trkpt>
      <trkpt lat="49.19033" lon="1.94282">
        <ele>95.75</ele>
        <time>2019-07-07T08:27:40Z</time>
      </trkpt>
      <trkpt lat="49.1903" lon="1.94283">
        <ele>95.74</ele>
        <time>2019-07-07T08:27:42Z</time>
      </trkpt>
      <trkpt lat="49.19018" lon="1.94297">
        <ele>95.43</ele>
        <time>2019-07-07T08:27:55Z</time>
      </trkpt>
      <trkpt lat="49.19011" lon="1.94309">
        <ele>95.72</ele>
        <time>2019-07-07T08:28:04Z</time>
      </trkpt>
      <trkpt lat="49.18998" lon="1.94326">
        <ele>96.59</ele>
        <time>2019-07-07T08:28:19Z</time>
      </trkpt>
      <trkpt lat="49.18997" lon="1.94326">
        <ele>96.26</ele>
        <time>2019-07-07T08:28:20Z</time>
      </trkpt>
      <trkpt lat="49.1898" lon="1.94346">
        <ele>96.5</ele>
        <time>2019-07-07T08:28:39Z</time>
      </trkpt>
      <trkpt lat="49.18968" lon="1.9436">
        <ele>96.49</ele>
        <time>2019-07-07T08:28:52Z</time>
      </trkpt>
      <trkpt lat="49.1895" lon="1.94378">
        <ele>96.55</ele>
        <time>2019-07-07T08:29:11Z</time>
      </trkpt>
      <trkpt lat="49.18947" lon="1.94382">
        <ele>97.16</ele>
        <time>2019-07-07T08:29:14Z</time>
      </trkpt>
      <trkpt lat="49.18933" lon="1.94395">
        <ele>97.39</ele>
        <time>2019-07-07T08:29:29Z</time>
      </trkpt>
      <trkpt lat="49.18932" lon="1.94396">
        <ele>97.48</ele>
        <time>2019-07-07T08:29:30Z</time>
      </trkpt>
      <trkpt lat="49.18929" lon="1.944">
        <ele>97.56</ele>
        <time>2019-07-07T08:29:34Z</time>
      </trkpt>
      <trkpt lat="49.18925" lon="1.94404">
        <ele>97.53</ele>
        <time>2019-07-07T08:29:38Z</time>
      </trkpt>
      <trkpt lat="49.18908" lon="1.94418">
        <ele>98.3</ele>
        <time>2019-07-07T08:29:55Z</time>
      </trkpt>
      <trkpt lat="49.18886" lon="1.94437">
        <ele>98.35</ele>
        <time>2019-07-07T08:30:16Z</time>
      </trkpt>
      <trkpt lat="49.18874" lon="1.94446">
        <ele>98.54</ele>
        <time>2019-07-07T08:30:30Z</time>
      </trkpt>
      <trkpt lat="49.1886" lon="1.94463">
        <ele>99.46</ele>
        <time>2019-07-07T08:30:49Z</time>
      </trkpt>
      <trkpt lat="49.18859" lon="1.94465">
        <ele>98.94</ele>
        <time>2019-07-07T08:31:08Z</time>
      </trkpt>
      <trkpt lat="49.18862" lon="1.94463">
        <ele>99.46</ele>
        <time>2019-07-07T08:31:35Z</time>
      </trkpt>
      <trkpt lat="49.18863" lon="1.94464">
        <ele>99.06</ele>
        <time>2019-07-07T08:32:01Z</time>
      </trkpt>
      <trkpt lat="49.18864" lon="1.94463">
        <ele>99.37</ele>
        <time>2019-07-07T08:32:30Z</time>
      </trkpt>
      <trkpt lat="49.18862" lon="1.94463">
        <ele>99.26</ele>
        <time>2019-07-07T08:32:56Z</time>
      </trkpt>
      <trkpt lat="49.18862" lon="1.94465">
        <ele>99.98</ele>
        <time>2019-07-07T08:33:22Z</time>
      </trkpt>
      <trkpt lat="49.18857" lon="1.94473">
        <ele>100</ele>
        <time>2019-07-07T08:33:36Z</time>
      </trkpt>
      <trkpt lat="49.18853" lon="1.9448">
        <ele>100.51</ele>
        <time>2019-07-07T08:33:47Z</time>
      </trkpt>
      <trkpt lat="49.18853" lon="1.9448">
        <ele>100.21</ele>
        <time>2019-07-07T08:34:03Z</time>
      </trkpt>
      <trkpt lat="49.18838" lon="1.945">
        <ele>100.76</ele>
        <time>2019-07-07T08:34:21Z</time>
      </trkpt>
      <trkpt lat="49.18828" lon="1.94511">
        <ele>101.16</ele>
        <time>2019-07-07T08:34:35Z</time>
      </trkpt>
      <trkpt lat="49.1882" lon="1.94521">
        <ele>102.15</ele>
        <time>2019-07-07T08:34:46Z</time>
      </trkpt>
      <trkpt lat="49.18809" lon="1.9454">
        <ele>102.72</ele>
        <time>2019-07-07T08:35:01Z</time>
      </trkpt>
      <trkpt lat="49.18807" lon="1.94543">
        <ele>102.99</ele>
        <time>2019-07-07T08:35:03Z</time>
      </trkpt>
      <trkpt lat="49.18798" lon="1.94561">
        <ele>103.48</ele>
        <time>2019-07-07T08:35:17Z</time>
      </trkpt>
      <trkpt lat="49.18789" lon="1.94581">
        <ele>104.39</ele>
        <time>2019-07-07T08:35:36Z</time>
      </trkpt>
      <trkpt lat="49.18787" lon="1.94583">
        <ele>103.88</ele>
        <time>2019-07-07T08:35:39Z</time>
      </trkpt>
      <trkpt lat="49.18785" lon="1.94584">
        <ele>104.31</ele>
        <time>2019-07-07T08:35:41Z</time>
      </trkpt>
      <trkpt lat="49.18776" lon="1.94593">
        <ele>104.99</ele>
        <time>2019-07-07T08:35:50Z</time>
      </trkpt>
      <trkpt lat="49.18771" lon="1.94611">
        <ele>105.36</ele>
        <time>2019-07-07T08:36:02Z</time>
      </trkpt>
      <trkpt lat="49.18768" lon="1.94625">
        <ele>106.37</ele>
        <time>2019-07-07T08:36:15Z</time>
      </trkpt>
      <trkpt lat="49.18768" lon="1.94653">
        <ele>106.95</ele>
        <time>2019-07-07T08:36:33Z</time>
      </trkpt>
      <trkpt lat="49.18771" lon="1.94673">
        <ele>107.79</ele>
        <time>2019-07-07T08:36:46Z</time>
      </trkpt>
      <trkpt lat="49.18769" lon="1.94702">
        <ele>108.72</ele>
        <time>2019-07-07T08:37:06Z</time>
      </trkpt>
      <trkpt lat="49.18767" lon="1.9474">
        <ele>110.22</ele>
        <time>2019-07-07T08:37:29Z</time>
      </trkpt>
      <trkpt lat="49.18768" lon="1.94775">
        <ele>112.8</ele>
        <time>2019-07-07T08:37:51Z</time>
      </trkpt>
      <trkpt lat="49.18776" lon="1.94808">
        <ele>113.85</ele>
        <time>2019-07-07T08:38:12Z</time>
      </trkpt>
      <trkpt lat="49.18783" lon="1.94851">
        <ele>113.18</ele>
        <time>2019-07-07T08:38:33Z</time>
      </trkpt>
      <trkpt lat="49.18788" lon="1.94868">
        <ele>113.16</ele>
        <time>2019-07-07T08:38:48Z</time>
      </trkpt>
      <trkpt lat="49.18798" lon="1.94898">
        <ele>112.6</ele>
        <time>2019-07-07T08:39:08Z</time>
      </trkpt>
      <trkpt lat="49.18808" lon="1.94937">
        <ele>111.79</ele>
        <time>2019-07-07T08:39:31Z</time>
      </trkpt>
      <trkpt lat="49.18818" lon="1.94971">
        <ele>111.51</ele>
        <time>2019-07-07T08:39:48Z</time>
      </trkpt>
      <trkpt lat="49.18823" lon="1.94988">
        <ele>109.97</ele>
        <time>2019-07-07T08:40:01Z</time>
      </trkpt>
      <trkpt lat="49.18827" lon="1.95008">
        <ele>109.38</ele>
        <time>2019-07-07T08:40:14Z</time>
      </trkpt>
      <trkpt lat="49.18826" lon="1.95012">
        <ele>109.57</ele>
        <time>2019-07-07T08:40:33Z</time>
      </trkpt>
      <trkpt lat="49.18827" lon="1.95014">
        <ele>109.73</ele>
        <time>2019-07-07T08:40:53Z</time>
      </trkpt>
      <trkpt lat="49.18827" lon="1.95025">
        <ele>108.65</ele>
        <time>2019-07-07T08:41:11Z</time>
      </trkpt>
      <trkpt lat="49.18827" lon="1.95036">
        <ele>108.27</ele>
        <time>2019-07-07T08:41:19Z</time>
      </trkpt>
      <trkpt lat="49.18826" lon="1.95041">
        <ele>109.09</ele>
        <time>2019-07-07T08:41:41Z</time>
      </trkpt>
      <trkpt lat="49.18825" lon="1.9504">
        <ele>109.07</ele>
        <time>2019-07-07T08:42:06Z</time>
      </trkpt>
      <trkpt lat="49.18824" lon="1.95047">
        <ele>108.73</ele>
        <time>2019-07-07T08:42:22Z</time>
      </trkpt>
      <trkpt lat="49.18825" lon="1.95075">
        <ele>107.56</ele>
        <time>2019-07-07T08:42:38Z</time>
      </trkpt>
      <trkpt lat="49.18824" lon="1.95079">
        <ele>107.95</ele>
        <time>2019-07-07T08:42:40Z</time>
      </trkpt>
      <trkpt lat="49.18824" lon="1.95106">
        <ele>107.2</ele>
        <time>2019-07-07T08:42:55Z</time>
      </trkpt>
      <trkpt lat="49.18827" lon="1.95134">
        <ele>106.71</ele>
        <time>2019-07-07T08:43:11Z</time>
      </trkpt>
      <trkpt lat="49.18831" lon="1.95149">
        <ele>105.07</ele>
        <time>2019-07-07T08:43:20Z</time>
      </trkpt>
      <trkpt lat="49.18833" lon="1.95155">
        <ele>105</ele>
        <time>2019-07-07T08:43:24Z</time>
      </trkpt>
      <trkpt lat="49.18838" lon="1.95173">
        <ele>104.24</ele>
        <time>2019-07-07T08:43:38Z</time>
      </trkpt>
      <trkpt lat="49.18842" lon="1.95184">
        <ele>103.39</ele>
        <time>2019-07-07T08:43:49Z</time>
      </trkpt>
      <trkpt lat="49.18849" lon="1.95201">
        <ele>103.91</ele>
        <time>2019-07-07T08:44:01Z</time>
      </trkpt>
      <trkpt lat="49.1886" lon="1.95237">
        <ele>102.36</ele>
        <time>2019-07-07T08:44:22Z</time>
      </trkpt>
      <trkpt lat="49.18867" lon="1.95263">
        <ele>101.35</ele>
        <time>2019-07-07T08:44:37Z</time>
      </trkpt>
      <trkpt lat="49.18874" lon="1.95292">
        <ele>101.4</ele>
        <time>2019-07-07T08:44:53Z</time>
      </trkpt>
      <trkpt lat="49.18874" lon="1.953">
        <ele>101.61</ele>
        <time>2019-07-07T08:45:08Z</time>
      </trkpt>
      <trkpt lat="49.18874" lon="1.95301">
        <ele>101.67</ele>
        <time>2019-07-07T08:45:29Z</time>
      </trkpt>
      <trkpt lat="49.18876" lon="1.95309">
        <ele>101.27</ele>
        <time>2019-07-07T08:45:39Z</time>
      </trkpt>
      <trkpt lat="49.18878" lon="1.95315">
        <ele>101.19</ele>
        <time>2019-07-07T08:45:43Z</time>
      </trkpt>
      <trkpt lat="49.18883" lon="1.95339">
        <ele>100.77</ele>
        <time>2019-07-07T08:45:58Z</time>
      </trkpt>
      <trkpt lat="49.18887" lon="1.95369">
        <ele>100.46</ele>
        <time>2019-07-07T08:46:14Z</time>
      </trkpt>
      <trkpt lat="49.1889" lon="1.95394">
        <ele>100.64</ele>
        <time>2019-07-07T08:46:28Z</time>
      </trkpt>
      <trkpt lat="49.18892" lon="1.95421">
        <ele>101.49</ele>
        <time>2019-07-07T08:46:43Z</time>
      </trkpt>
      <trkpt lat="49.18894" lon="1.95447">
        <ele>100.94</ele>
        <time>2019-07-07T08:46:58Z</time>
      </trkpt>
      <trkpt lat="49.18896" lon="1.95465">
        <ele>101.51</ele>
        <time>2019-07-07T08:47:09Z</time>
      </trkpt>
      <trkpt lat="49.18896" lon="1.95471">
        <ele>101.66</ele>
        <time>2019-07-07T08:47:12Z</time>
      </trkpt>
      <trkpt lat="49.18898" lon="1.95478">
        <ele>101.76</ele>
        <time>2019-07-07T08:47:16Z</time>
      </trkpt>
      <trkpt lat="49.18901" lon="1.95499">
        <ele>101.15</ele>
        <time>2019-07-07T08:47:27Z</time>
      </trkpt>
      <trkpt lat="49.18901" lon="1.95513">
        <ele>100.86</ele>
        <time>2019-07-07T08:47:34Z</time>
      </trkpt>
      <trkpt lat="49.189" lon="1.95541">
        <ele>100.81</ele>
        <time>2019-07-07T08:47:50Z</time>
      </trkpt>
      <trkpt lat="49.18898" lon="1.95548">
        <ele>100.55</ele>
        <time>2019-07-07T08:47:54Z</time>
      </trkpt>
      <trkpt lat="49.18897" lon="1.95556">
        <ele>100.82</ele>
        <time>2019-07-07T08:47:59Z</time>
      </trkpt>
      <trkpt lat="49.18896" lon="1.95567">
        <ele>100.34</ele>
        <time>2019-07-07T08:48:05Z</time>
      </trkpt>
      <trkpt lat="49.18891" lon="1.95593">
        <ele>100.57</ele>
        <time>2019-07-07T08:48:21Z</time>
      </trkpt>
      <trkpt lat="49.18892" lon="1.95597">
        <ele>100.7</ele>
        <time>2019-07-07T08:48:24Z</time>
      </trkpt>
      <trkpt lat="49.18892" lon="1.95607">
        <ele>101.21</ele>
        <time>2019-07-07T08:48:31Z</time>
      </trkpt>
      <trkpt lat="49.18897" lon="1.95628">
        <ele>101.49</ele>
        <time>2019-07-07T08:48:44Z</time>
      </trkpt>
      <trkpt lat="49.18905" lon="1.95644">
        <ele>101.34</ele>
        <time>2019-07-07T08:48:57Z</time>
      </trkpt>
      <trkpt lat="49.18918" lon="1.95671">
        <ele>102.14</ele>
        <time>2019-07-07T08:49:14Z</time>
      </trkpt>
      <trkpt lat="49.18932" lon="1.95697">
        <ele>102.12</ele>
        <time>2019-07-07T08:49:30Z</time>
      </trkpt>
      <trkpt lat="49.18946" lon="1.95717">
        <ele>101.94</ele>
        <time>2019-07-07T08:49:44Z</time>
      </trkpt>
      <trkpt lat="49.1896" lon="1.95735">
        <ele>102.45</ele>
        <time>2019-07-07T08:50:00Z</time>
      </trkpt>
      <trkpt lat="49.18973" lon="1.9575">
        <ele>101.9</ele>
        <time>2019-07-07T08:50:14Z</time>
      </trkpt>
      <trkpt lat="49.18979" lon="1.95758">
        <ele>101.83</ele>
        <time>2019-07-07T08:50:21Z</time>
      </trkpt>
      <trkpt lat="49.18995" lon="1.95779">
        <ele>101.45</ele>
        <time>2019-07-07T08:50:39Z</time>
      </trkpt>
      <trkpt lat="49.18999" lon="1.95784">
        <ele>101.73</ele>
        <time>2019-07-07T08:50:44Z</time>
      </trkpt>
      <trkpt lat="49.19014" lon="1.95803">
        <ele>101.93</ele>
        <time>2019-07-07T08:51:01Z</time>
      </trkpt>
      <trkpt lat="49.19027" lon="1.9582">
        <ele>101.46</ele>
        <time>2019-07-07T08:51:16Z</time>
      </trkpt>
      <trkpt lat="49.19039" lon="1.95837">
        <ele>101.7</ele>
        <time>2019-07-07T08:51:30Z</time>
      </trkpt>
      <trkpt lat="49.19049" lon="1.95849">
        <ele>101.78</ele>
        <time>2019-07-07T08:51:41Z</time>
      </trkpt>
      <trkpt lat="49.19061" lon="1.95866">
        <ele>102.06</ele>
        <time>2019-07-07T08:51:55Z</time>
      </trkpt>
      <trkpt lat="49.19071" lon="1.95878">
        <ele>102.24</ele>
        <time>2019-07-07T08:52:06Z</time>
      </trkpt>
      <trkpt lat="49.19086" lon="1.959">
        <ele>102.42</ele>
        <time>2019-07-07T08:52:23Z</time>
      </trkpt>
      <trkpt lat="49.19101" lon="1.9592">
        <ele>102.12</ele>
        <time>2019-07-07T08:52:40Z</time>
      </trkpt>
      <trkpt lat="49.19102" lon="1.95921">
        <ele>101.66</ele>
        <time>2019-07-07T08:52:41Z</time>
      </trkpt>
      <trkpt lat="49.19106" lon="1.95924">
        <ele>102.28</ele>
        <time>2019-07-07T08:52:44Z</time>
      </trkpt>
      <trkpt lat="49.19121" lon="1.95946">
        <ele>102.15</ele>
        <time>2019-07-07T08:53:03Z</time>
      </trkpt>
      <trkpt lat="49.19134" lon="1.95963">
        <ele>102.19</ele>
        <time>2019-07-07T08:53:17Z</time>
      </trkpt>
      <trkpt lat="49.19148" lon="1.95982">
        <ele>102.65</ele>
        <time>2019-07-07T08:53:33Z</time>
      </trkpt>
      <trkpt lat="49.19162" lon="1.96001">
        <ele>102.97</ele>
        <time>2019-07-07T08:53:49Z</time>
      </trkpt>
      <trkpt lat="49.19175" lon="1.96017">
        <ele>103.36</ele>
        <time>2019-07-07T08:54:04Z</time>
      </trkpt>
      <trkpt lat="49.19191" lon="1.96038">
        <ele>103.46</ele>
        <time>2019-07-07T08:54:21Z</time>
      </trkpt>
      <trkpt lat="49.19193" lon="1.96042">
        <ele>103.49</ele>
        <time>2019-07-07T08:54:24Z</time>
      </trkpt>
      <trkpt lat="49.19204" lon="1.96055">
        <ele>103.61</ele>
        <time>2019-07-07T08:54:36Z</time>
      </trkpt>
      <trkpt lat="49.19209" lon="1.96062">
        <ele>103.48</ele>
        <time>2019-07-07T08:54:42Z</time>
      </trkpt>
      <trkpt lat="49.19224" lon="1.96083">
        <ele>103.8</ele>
        <time>2019-07-07T08:55:00Z</time>
      </trkpt>
      <trkpt lat="49.19238" lon="1.96102">
        <ele>104.96</ele>
        <time>2019-07-07T08:55:16Z</time>
      </trkpt>
      <trkpt lat="49.19252" lon="1.9612">
        <ele>104.29</ele>
        <time>2019-07-07T08:55:32Z</time>
      </trkpt>
      <trkpt lat="49.19266" lon="1.96137">
        <ele>105.06</ele>
        <time>2019-07-07T08:55:48Z</time>
      </trkpt>
      <trkpt lat="49.19277" lon="1.96153">
        <ele>106.18</ele>
        <time>2019-07-07T08:56:02Z</time>
      </trkpt>
      <trkpt lat="49.19287" lon="1.96166">
        <ele>106.44</ele>
        <time>2019-07-07T08:56:13Z</time>
      </trkpt>
      <trkpt lat="49.19299" lon="1.96183">
        <ele>106.78</ele>
        <time>2019-07-07T08:56:28Z</time>
      </trkpt>
      <trkpt lat="49.19312" lon="1.96198">
        <ele>107.61</ele>
        <time>2019-07-07T08:56:43Z</time>
      </trkpt>
      <trkpt lat="49.19319" lon="1.96206">
        <ele>108.13</ele>
        <time>2019-07-07T08:56:51Z</time>
      </trkpt>
      <trkpt lat="49.19326" lon="1.96216">
        <ele>108.67</ele>
        <time>2019-07-07T08:57:08Z</time>
      </trkpt>
      <trkpt lat="49.19325" lon="1.9622">
        <ele>108.44</ele>
        <time>2019-07-07T08:57:34Z</time>
      </trkpt>
      <trkpt lat="49.19324" lon="1.96221">
        <ele>108.22</ele>
        <time>2019-07-07T08:58:02Z</time>
      </trkpt>
      <trkpt lat="49.19323" lon="1.96224">
        <ele>108.62</ele>
        <time>2019-07-07T08:58:28Z</time>
      </trkpt>
      <trkpt lat="49.19323" lon="1.96224">
        <ele>108.15</ele>
        <time>2019-07-07T08:58:56Z</time>
      </trkpt>
      <trkpt lat="49.19323" lon="1.96223">
        <ele>108.14</ele>
        <time>2019-07-07T08:59:21Z</time>
      </trkpt>
      <trkpt lat="49.19328" lon="1.96223">
        <ele>108.17</ele>
        <time>2019-07-07T08:59:49Z</time>
      </trkpt>
      <trkpt lat="49.1932" lon="1.96219">
        <ele>107.74</ele>
        <time>2019-07-07T09:00:16Z</time>
      </trkpt>
      <trkpt lat="49.19318" lon="1.96218">
        <ele>107.79</ele>
        <time>2019-07-07T09:00:40Z</time>
      </trkpt>
      <trkpt lat="49.19316" lon="1.96218">
        <ele>108.21</ele>
        <time>2019-07-07T09:01:14Z</time>
      </trkpt>
      <trkpt lat="49.19324" lon="1.96225">
        <ele>108.41</ele>
        <time>2019-07-07T09:01:35Z</time>
      </trkpt>
      <trkpt lat="49.19337" lon="1.96236">
        <ele>109.15</ele>
        <time>2019-07-07T09:01:57Z</time>
      </trkpt>
      <trkpt lat="49.19339" lon="1.96241">
        <ele>109.58</ele>
        <time>2019-07-07T09:02:21Z</time>
      </trkpt>
      <trkpt lat="49.1934" lon="1.9626">
        <ele>109.6</ele>
        <time>2019-07-07T09:02:38Z</time>
      </trkpt>
      <trkpt lat="49.1934" lon="1.96271">
        <ele>109.75</ele>
        <time>2019-07-07T09:02:50Z</time>
      </trkpt>
      <trkpt lat="49.19341" lon="1.96295">
        <ele>110.41</ele>
        <time>2019-07-07T09:03:08Z</time>
      </trkpt>
      <trkpt lat="49.19339" lon="1.96325">
        <ele>110.14</ele>
        <time>2019-07-07T09:03:27Z</time>
      </trkpt>
      <trkpt lat="49.19332" lon="1.96355">
        <ele>108.42</ele>
        <time>2019-07-07T09:03:45Z</time>
      </trkpt>
      <trkpt lat="49.1933" lon="1.96371">
        <ele>108.81</ele>
        <time>2019-07-07T09:03:56Z</time>
      </trkpt>
      <trkpt lat="49.19326" lon="1.96399">
        <ele>107.37</ele>
        <time>2019-07-07T09:04:13Z</time>
      </trkpt>
      <trkpt lat="49.19325" lon="1.9641">
        <ele>106.78</ele>
        <time>2019-07-07T09:04:20Z</time>
      </trkpt>
      <trkpt lat="49.19324" lon="1.96425">
        <ele>106.27</ele>
        <time>2019-07-07T09:04:29Z</time>
      </trkpt>
      <trkpt lat="49.1932" lon="1.96453">
        <ele>105.14</ele>
        <time>2019-07-07T09:04:44Z</time>
      </trkpt>
      <trkpt lat="49.19317" lon="1.96469">
        <ele>104.35</ele>
        <time>2019-07-07T09:04:54Z</time>
      </trkpt>
      <trkpt lat="49.19317" lon="1.96472">
        <ele>104.06</ele>
        <time>2019-07-07T09:04:56Z</time>
      </trkpt>
      <trkpt lat="49.19316" lon="1.96484">
        <ele>104.04</ele>
        <time>2019-07-07T09:05:03Z</time>
      </trkpt>
      <trkpt lat="49.19316" lon="1.96487">
        <ele>103.88</ele>
        <time>2019-07-07T09:05:05Z</time>
      </trkpt>
      <trkpt lat="49.19315" lon="1.96504">
        <ele>103.24</ele>
        <time>2019-07-07T09:05:15Z</time>
      </trkpt>
      <trkpt lat="49.19316" lon="1.96524">
        <ele>102.52</ele>
        <time>2019-07-07T09:05:30Z</time>
      </trkpt>
      <trkpt lat="49.19316" lon="1.9653">
        <ele>102.22</ele>
        <time>2019-07-07T09:05:34Z</time>
      </trkpt>
      <trkpt lat="49.19318" lon="1.96554">
        <ele>101.55</ele>
        <time>2019-07-07T09:05:48Z</time>
      </trkpt>
      <trkpt lat="49.19319" lon="1.9659">
        <ele>100.94</ele>
        <time>2019-07-07T09:06:07Z</time>
      </trkpt>
      <trkpt lat="49.19321" lon="1.96616">
        <ele>100.6</ele>
        <time>2019-07-07T09:06:22Z</time>
      </trkpt>
      <trkpt lat="49.19322" lon="1.9664">
        <ele>100.69</ele>
        <time>2019-07-07T09:06:37Z</time>
      </trkpt>
      <trkpt lat="49.19324" lon="1.96668">
        <ele>101.27</ele>
        <time>2019-07-07T09:06:54Z</time>
      </trkpt>
      <trkpt lat="49.19324" lon="1.96678">
        <ele>101.37</ele>
        <time>2019-07-07T09:06:59Z</time>
      </trkpt>
      <trkpt lat="49.19325" lon="1.96702">
        <ele>101.51</ele>
        <time>2019-07-07T09:07:14Z</time>
      </trkpt>
      <trkpt lat="49.19326" lon="1.96713">
        <ele>100.78</ele>
        <time>2019-07-07T09:07:29Z</time>
      </trkpt>
      <trkpt lat="49.19327" lon="1.96738">
        <ele>100.83</ele>
        <time>2019-07-07T09:07:45Z</time>
      </trkpt>
      <trkpt lat="49.19328" lon="1.96767">
        <ele>99.65</ele>
        <time>2019-07-07T09:08:03Z</time>
      </trkpt>
      <trkpt lat="49.19329" lon="1.96787">
        <ele>99.17</ele>
        <time>2019-07-07T09:08:16Z</time>
      </trkpt>
      <trkpt lat="49.1933" lon="1.96811">
        <ele>98.05</ele>
        <time>2019-07-07T09:08:30Z</time>
      </trkpt>
      <trkpt lat="49.1933" lon="1.96821">
        <ele>98.23</ele>
        <time>2019-07-07T09:08:38Z</time>
      </trkpt>
      <trkpt lat="49.1933" lon="1.96824">
        <ele>97.7</ele>
        <time>2019-07-07T09:08:40Z</time>
      </trkpt>
      <trkpt lat="49.19331" lon="1.96831">
        <ele>97.86</ele>
        <time>2019-07-07T09:08:47Z</time>
      </trkpt>
      <trkpt lat="49.19331" lon="1.9684">
        <ele>97.71</ele>
        <time>2019-07-07T09:08:52Z</time>
      </trkpt>
      <trkpt lat="49.19331" lon="1.96871">
        <ele>96.12</ele>
        <time>2019-07-07T09:09:09Z</time>
      </trkpt>
      <trkpt lat="49.19329" lon="1.96888">
        <ele>95.4</ele>
        <time>2019-07-07T09:09:19Z</time>
      </trkpt>
      <trkpt lat="49.19329" lon="1.96891">
        <ele>95.56</ele>
        <time>2019-07-07T09:09:21Z</time>
      </trkpt>
      <trkpt lat="49.19326" lon="1.96907">
        <ele>95.72</ele>
        <time>2019-07-07T09:09:31Z</time>
      </trkpt>
      <trkpt lat="49.19321" lon="1.96931">
        <ele>94.57</ele>
        <time>2019-07-07T09:09:47Z</time>
      </trkpt>
      <trkpt lat="49.1932" lon="1.96933">
        <ele>94.6</ele>
        <time>2019-07-07T09:10:10Z</time>
      </trkpt>
      <trkpt lat="49.19319" lon="1.96938">
        <ele>94.11</ele>
        <time>2019-07-07T09:10:24Z</time>
      </trkpt>
      <trkpt lat="49.19316" lon="1.96947">
        <ele>94.07</ele>
        <time>2019-07-07T09:10:30Z</time>
      </trkpt>
      <trkpt lat="49.19308" lon="1.96972">
        <ele>94.63</ele>
        <time>2019-07-07T09:10:47Z</time>
      </trkpt>
      <trkpt lat="49.19299" lon="1.96996">
        <ele>94.63</ele>
        <time>2019-07-07T09:11:02Z</time>
      </trkpt>
      <trkpt lat="49.19291" lon="1.97018">
        <ele>94.38</ele>
        <time>2019-07-07T09:11:16Z</time>
      </trkpt>
      <trkpt lat="49.19283" lon="1.97031">
        <ele>94.28</ele>
        <time>2019-07-07T09:11:31Z</time>
      </trkpt>
      <trkpt lat="49.19283" lon="1.97035">
        <ele>94.99</ele>
        <time>2019-07-07T09:11:46Z</time>
      </trkpt>
      <trkpt lat="49.19279" lon="1.97047">
        <ele>94.62</ele>
        <time>2019-07-07T09:11:56Z</time>
      </trkpt>
      <trkpt lat="49.19269" lon="1.97076">
        <ele>95.44</ele>
        <time>2019-07-07T09:12:14Z</time>
      </trkpt>
      <trkpt lat="49.19262" lon="1.97094">
        <ele>96.11</ele>
        <time>2019-07-07T09:12:30Z</time>
      </trkpt>
      <trkpt lat="49.19261" lon="1.971">
        <ele>96.1</ele>
        <time>2019-07-07T09:12:51Z</time>
      </trkpt>
      <trkpt lat="49.19261" lon="1.971">
        <ele>96.06</ele>
        <time>2019-07-07T09:13:08Z</time>
      </trkpt>
      <trkpt lat="49.1926" lon="1.97101">
        <ele>96.06</ele>
        <time>2019-07-07T09:13:09Z</time>
      </trkpt>
      <trkpt lat="49.1926" lon="1.97103">
        <ele>95.92</ele>
        <time>2019-07-07T09:13:11Z</time>
      </trkpt>
      <trkpt lat="49.19256" lon="1.97111">
        <ele>96.95</ele>
        <time>2019-07-07T09:13:17Z</time>
      </trkpt>
      <trkpt lat="49.19251" lon="1.9713">
        <ele>96.62</ele>
        <time>2019-07-07T09:13:32Z</time>
      </trkpt>
      <trkpt lat="49.19249" lon="1.97135">
        <ele>96.87</ele>
        <time>2019-07-07T09:13:36Z</time>
      </trkpt>
      <trkpt lat="49.19245" lon="1.97146">
        <ele>97.2</ele>
        <time>2019-07-07T09:13:44Z</time>
      </trkpt>
      <trkpt lat="49.19241" lon="1.97155">
        <ele>96.98</ele>
        <time>2019-07-07T09:13:50Z</time>
      </trkpt>
      <trkpt lat="49.19234" lon="1.97177">
        <ele>97.96</ele>
        <time>2019-07-07T09:14:06Z</time>
      </trkpt>
      <trkpt lat="49.1923" lon="1.97187">
        <ele>97.83</ele>
        <time>2019-07-07T09:14:12Z</time>
      </trkpt>
      <trkpt lat="49.1922" lon="1.97214">
        <ele>98.63</ele>
        <time>2019-07-07T09:14:31Z</time>
      </trkpt>
      <trkpt lat="49.19217" lon="1.97222">
        <ele>98.16</ele>
        <time>2019-07-07T09:14:36Z</time>
      </trkpt>
      <trkpt lat="49.19206" lon="1.97254">
        <ele>99.09</ele>
        <time>2019-07-07T09:14:56Z</time>
      </trkpt>
      <trkpt lat="49.192" lon="1.9728">
        <ele>99.95</ele>
        <time>2019-07-07T09:15:11Z</time>
      </trkpt>
      <trkpt lat="49.19195" lon="1.97302">
        <ele>99.68</ele>
        <time>2019-07-07T09:15:24Z</time>
      </trkpt>
      <trkpt lat="49.19188" lon="1.97327">
        <ele>99.84</ele>
        <time>2019-07-07T09:15:39Z</time>
      </trkpt>
      <trkpt lat="49.19182" lon="1.97353">
        <ele>99.78</ele>
        <time>2019-07-07T09:15:54Z</time>
      </trkpt>
      <trkpt lat="49.19175" lon="1.97383">
        <ele>100.05</ele>
        <time>2019-07-07T09:16:11Z</time>
      </trkpt>
      <trkpt lat="49.1917" lon="1.9741">
        <ele>100.08</ele>
        <time>2019-07-07T09:16:27Z</time>
      </trkpt>
      <trkpt lat="49.19167" lon="1.9742">
        <ele>100.09</ele>
        <time>2019-07-07T09:16:33Z</time>
      </trkpt>
      <trkpt lat="49.19164" lon="1.97434">
        <ele>99.73</ele>
        <time>2019-07-07T09:16:41Z</time>
      </trkpt>
      <trkpt lat="49.19164" lon="1.97437">
        <ele>100.05</ele>
        <time>2019-07-07T09:16:43Z</time>
      </trkpt>
      <trkpt lat="49.19157" lon="1.97462">
        <ele>100.71</ele>
        <time>2019-07-07T09:17:00Z</time>
      </trkpt>
      <trkpt lat="49.19157" lon="1.97464">
        <ele>99.88</ele>
        <time>2019-07-07T09:17:30Z</time>
      </trkpt>
      <trkpt lat="49.19157" lon="1.97466">
        <ele>100.8</ele>
        <time>2019-07-07T09:18:01Z</time>
      </trkpt>
      <trkpt lat="49.19157" lon="1.97466">
        <ele>100.73</ele>
        <time>2019-07-07T09:18:15Z</time>
      </trkpt>
      <trkpt lat="49.19152" lon="1.97493">
        <ele>100.36</ele>
        <time>2019-07-07T09:18:32Z</time>
      </trkpt>
      <trkpt lat="49.1915" lon="1.97515">
        <ele>100.4</ele>
        <time>2019-07-07T09:18:46Z</time>
      </trkpt>
      <trkpt lat="49.19149" lon="1.97539">
        <ele>99.97</ele>
        <time>2019-07-07T09:19:00Z</time>
      </trkpt>
      <trkpt lat="49.19145" lon="1.9757">
        <ele>100.12</ele>
        <time>2019-07-07T09:19:18Z</time>
      </trkpt>
      <trkpt lat="49.19141" lon="1.97602">
        <ele>100.28</ele>
        <time>2019-07-07T09:19:37Z</time>
      </trkpt>
      <trkpt lat="49.19138" lon="1.97629">
        <ele>100.25</ele>
        <time>2019-07-07T09:19:53Z</time>
      </trkpt>
      <trkpt lat="49.19137" lon="1.97658">
        <ele>100.46</ele>
        <time>2019-07-07T09:20:11Z</time>
      </trkpt>
      <trkpt lat="49.19134" lon="1.97683">
        <ele>100.78</ele>
        <time>2019-07-07T09:20:26Z</time>
      </trkpt>
      <trkpt lat="49.1913" lon="1.97711">
        <ele>100.94</ele>
        <time>2019-07-07T09:20:43Z</time>
      </trkpt>
      <trkpt lat="49.19127" lon="1.97736">
        <ele>101.52</ele>
        <time>2019-07-07T09:20:58Z</time>
      </trkpt>
      <trkpt lat="49.19125" lon="1.97761">
        <ele>101.37</ele>
        <time>2019-07-07T09:21:12Z</time>
      </trkpt>
      <trkpt lat="49.19124" lon="1.9777">
        <ele>101.99</ele>
        <time>2019-07-07T09:21:17Z</time>
      </trkpt>
      <trkpt lat="49.19118" lon="1.97802">
        <ele>102.16</ele>
        <time>2019-07-07T09:21:35Z</time>
      </trkpt>
      <trkpt lat="49.19115" lon="1.97815">
        <ele>102.04</ele>
        <time>2019-07-07T09:21:43Z</time>
      </trkpt>
      <trkpt lat="49.19115" lon="1.9782">
        <ele>102.16</ele>
        <time>2019-07-07T09:21:47Z</time>
      </trkpt>
      <trkpt lat="49.1911" lon="1.97841">
        <ele>102.22</ele>
        <time>2019-07-07T09:21:59Z</time>
      </trkpt>
      <trkpt lat="49.19106" lon="1.9786">
        <ele>102.38</ele>
        <time>2019-07-07T09:22:11Z</time>
      </trkpt>
      <trkpt lat="49.19106" lon="1.97865">
        <ele>102.29</ele>
        <time>2019-07-07T09:22:14Z</time>
      </trkpt>
      <trkpt lat="49.19101" lon="1.97889">
        <ele>102.79</ele>
        <time>2019-07-07T09:22:29Z</time>
      </trkpt>
      <trkpt lat="49.19096" lon="1.97915">
        <ele>102.76</ele>
        <time>2019-07-07T09:22:45Z</time>
      </trkpt>
      <trkpt lat="49.19094" lon="1.97919">
        <ele>102.71</ele>
        <time>2019-07-07T09:22:48Z</time>
      </trkpt>
      <trkpt lat="49.19089" lon="1.97947">
        <ele>103.81</ele>
        <time>2019-07-07T09:23:05Z</time>
      </trkpt>
      <trkpt lat="49.19086" lon="1.97966">
        <ele>103.54</ele>
        <time>2019-07-07T09:23:16Z</time>
      </trkpt>
      <trkpt lat="49.19081" lon="1.97991">
        <ele>103.88</ele>
        <time>2019-07-07T09:23:31Z</time>
      </trkpt>
      <trkpt lat="49.19078" lon="1.98005">
        <ele>104.16</ele>
        <time>2019-07-07T09:23:39Z</time>
      </trkpt>
      <trkpt lat="49.19075" lon="1.98024">
        <ele>104.13</ele>
        <time>2019-07-07T09:23:50Z</time>
      </trkpt>
      <trkpt lat="49.19071" lon="1.98054">
        <ele>104.85</ele>
        <time>2019-07-07T09:24:06Z</time>
      </trkpt>
      <trkpt lat="49.19068" lon="1.98082">
        <ele>105.45</ele>
        <time>2019-07-07T09:24:22Z</time>
      </trkpt>
      <trkpt lat="49.19065" lon="1.98111">
        <ele>105.61</ele>
        <time>2019-07-07T09:24:39Z</time>
      </trkpt>
      <trkpt lat="49.19064" lon="1.98119">
        <ele>105.57</ele>
        <time>2019-07-07T09:24:43Z</time>
      </trkpt>
      <trkpt lat="49.19063" lon="1.98151">
        <ele>106.5</ele>
        <time>2019-07-07T09:25:01Z</time>
      </trkpt>
      <trkpt lat="49.19062" lon="1.98178">
        <ele>106.71</ele>
        <time>2019-07-07T09:25:16Z</time>
      </trkpt>
      <trkpt lat="49.19061" lon="1.98184">
        <ele>106.72</ele>
        <time>2019-07-07T09:25:20Z</time>
      </trkpt>
      <trkpt lat="49.19061" lon="1.98214">
        <ele>107.02</ele>
        <time>2019-07-07T09:25:37Z</time>
      </trkpt>
      <trkpt lat="49.1906" lon="1.98245">
        <ele>107.52</ele>
        <time>2019-07-07T09:25:54Z</time>
      </trkpt>
      <trkpt lat="49.19061" lon="1.98261">
        <ele>107.74</ele>
        <time>2019-07-07T09:26:03Z</time>
      </trkpt>
      <trkpt lat="49.19062" lon="1.98264">
        <ele>107.87</ele>
        <time>2019-07-07T09:26:05Z</time>
      </trkpt>
      <trkpt lat="49.19062" lon="1.98291">
        <ele>107.91</ele>
        <time>2019-07-07T09:26:20Z</time>
      </trkpt>
      <trkpt lat="49.19061" lon="1.98318">
        <ele>109.06</ele>
        <time>2019-07-07T09:26:36Z</time>
      </trkpt>
      <trkpt lat="49.19062" lon="1.98345">
        <ele>108.82</ele>
        <time>2019-07-07T09:26:51Z</time>
      </trkpt>
      <trkpt lat="49.19063" lon="1.98362">
        <ele>109.27</ele>
        <time>2019-07-07T09:27:01Z</time>
      </trkpt>
      <trkpt lat="49.19064" lon="1.98382">
        <ele>110.01</ele>
        <time>2019-07-07T09:27:13Z</time>
      </trkpt>
      <trkpt lat="49.19063" lon="1.98409">
        <ele>110.62</ele>
        <time>2019-07-07T09:27:28Z</time>
      </trkpt>
      <trkpt lat="49.19064" lon="1.98434">
        <ele>110.98</ele>
        <time>2019-07-07T09:27:43Z</time>
      </trkpt>
      <trkpt lat="49.19065" lon="1.98457">
        <ele>111.5</ele>
        <time>2019-07-07T09:27:56Z</time>
      </trkpt>
      <trkpt lat="49.19066" lon="1.98488">
        <ele>111.89</ele>
        <time>2019-07-07T09:28:14Z</time>
      </trkpt>
      <trkpt lat="49.19067" lon="1.98513">
        <ele>113.03</ele>
        <time>2019-07-07T09:28:29Z</time>
      </trkpt>
      <trkpt lat="49.19067" lon="1.98541">
        <ele>113.29</ele>
        <time>2019-07-07T09:28:45Z</time>
      </trkpt>
      <trkpt lat="49.19069" lon="1.98569">
        <ele>113.58</ele>
        <time>2019-07-07T09:29:01Z</time>
      </trkpt>
      <trkpt lat="49.1907" lon="1.98596">
        <ele>113.36</ele>
        <time>2019-07-07T09:29:16Z</time>
      </trkpt>
      <trkpt lat="49.1907" lon="1.98601">
        <ele>113.82</ele>
        <time>2019-07-07T09:29:19Z</time>
      </trkpt>
      <trkpt lat="49.1907" lon="1.98605">
        <ele>114.26</ele>
        <time>2019-07-07T09:29:21Z</time>
      </trkpt>
      <trkpt lat="49.1907" lon="1.98628">
        <ele>114.38</ele>
        <time>2019-07-07T09:29:35Z</time>
      </trkpt>
      <trkpt lat="49.1907" lon="1.98654">
        <ele>115.23</ele>
        <time>2019-07-07T09:29:50Z</time>
      </trkpt>
      <trkpt lat="49.1907" lon="1.98663">
        <ele>115.05</ele>
        <time>2019-07-07T09:29:55Z</time>
      </trkpt>
      <trkpt lat="49.19068" lon="1.98687">
        <ele>115.53</ele>
        <time>2019-07-07T09:30:09Z</time>
      </trkpt>
      <trkpt lat="49.19066" lon="1.9871">
        <ele>115.74</ele>
        <time>2019-07-07T09:30:26Z</time>
      </trkpt>
      <trkpt lat="49.19066" lon="1.98701">
        <ele>115.43</ele>
        <time>2019-07-07T09:30:42Z</time>
      </trkpt>
      <trkpt lat="49.19065" lon="1.98698">
        <ele>115.84</ele>
        <time>2019-07-07T09:31:08Z</time>
      </trkpt>
      <trkpt lat="49.19065" lon="1.98696">
        <ele>116.18</ele>
        <time>2019-07-07T09:31:31Z</time>
      </trkpt>
      <trkpt lat="49.19066" lon="1.98703">
        <ele>115.77</ele>
        <time>2019-07-07T09:31:57Z</time>
      </trkpt>
      <trkpt lat="49.19066" lon="1.9871">
        <ele>115.82</ele>
        <time>2019-07-07T09:32:07Z</time>
      </trkpt>
      <trkpt lat="49.19066" lon="1.98717">
        <ele>115.68</ele>
        <time>2019-07-07T09:32:12Z</time>
      </trkpt>
      <trkpt lat="49.19065" lon="1.98737">
        <ele>115.98</ele>
        <time>2019-07-07T09:32:25Z</time>
      </trkpt>
      <trkpt lat="49.19064" lon="1.98751">
        <ele>117.12</ele>
        <time>2019-07-07T09:32:36Z</time>
      </trkpt>
      <trkpt lat="49.19064" lon="1.98754">
        <ele>116.43</ele>
        <time>2019-07-07T09:32:38Z</time>
      </trkpt>
      <trkpt lat="49.19063" lon="1.98762">
        <ele>116.96</ele>
        <time>2019-07-07T09:32:43Z</time>
      </trkpt>
      <trkpt lat="49.19062" lon="1.98771">
        <ele>116.75</ele>
        <time>2019-07-07T09:32:48Z</time>
      </trkpt>
      <trkpt lat="49.19061" lon="1.98793">
        <ele>117</ele>
        <time>2019-07-07T09:33:04Z</time>
      </trkpt>
      <trkpt lat="49.1906" lon="1.98798">
        <ele>117.56</ele>
        <time>2019-07-07T09:33:07Z</time>
      </trkpt>
      <trkpt lat="49.19058" lon="1.98806">
        <ele>117.74</ele>
        <time>2019-07-07T09:33:12Z</time>
      </trkpt>
      <trkpt lat="49.19054" lon="1.98831">
        <ele>117.95</ele>
        <time>2019-07-07T09:33:28Z</time>
      </trkpt>
      <trkpt lat="49.19049" lon="1.98856">
        <ele>118.16</ele>
        <time>2019-07-07T09:33:44Z</time>
      </trkpt>
      <trkpt lat="49.19045" lon="1.98879">
        <ele>118.34</ele>
        <time>2019-07-07T09:33:59Z</time>
      </trkpt>
      <trkpt lat="49.19045" lon="1.98887">
        <ele>118.89</ele>
        <time>2019-07-07T09:34:04Z</time>
      </trkpt>
      <trkpt lat="49.19041" lon="1.98907">
        <ele>119.03</ele>
        <time>2019-07-07T09:34:17Z</time>
      </trkpt>
      <trkpt lat="49.19039" lon="1.98913">
        <ele>119.19</ele>
        <time>2019-07-07T09:34:21Z</time>
      </trkpt>
      <trkpt lat="49.19037" lon="1.98923">
        <ele>119.21</ele>
        <time>2019-07-07T09:34:26Z</time>
      </trkpt>
      <trkpt lat="49.19036" lon="1.98929">
        <ele>119.52</ele>
        <time>2019-07-07T09:34:30Z</time>
      </trkpt>
      <trkpt lat="49.19029" lon="1.98955">
        <ele>119.73</ele>
        <time>2019-07-07T09:34:45Z</time>
      </trkpt>
      <trkpt lat="49.19026" lon="1.98973">
        <ele>121.01</ele>
        <time>2019-07-07T09:34:55Z</time>
      </trkpt>
      <trkpt lat="49.19026" lon="1.98976">
        <ele>121.26</ele>
        <time>2019-07-07T09:34:57Z</time>
      </trkpt>
      <trkpt lat="49.19024" lon="1.98986">
        <ele>121.85</ele>
        <time>2019-07-07T09:35:13Z</time>
      </trkpt>
      <trkpt lat="49.19023" lon="1.98994">
        <ele>121.85</ele>
        <time>2019-07-07T09:35:27Z</time>
      </trkpt>
      <trkpt lat="49.19022" lon="1.98998">
        <ele>122.05</ele>
        <time>2019-07-07T09:35:30Z</time>
      </trkpt>
      <trkpt lat="49.19015" lon="1.99014">
        <ele>124.24</ele>
        <time>2019-07-07T09:35:42Z</time>
      </trkpt>
      <trkpt lat="49.19013" lon="1.99035">
        <ele>125.58</ele>
        <time>2019-07-07T09:35:59Z</time>
      </trkpt>
      <trkpt lat="49.19011" lon="1.99037">
        <ele>125.53</ele>
        <time>2019-07-07T09:36:02Z</time>
      </trkpt>
      <trkpt lat="49.18992" lon="1.99051">
        <ele>125.33</ele>
        <time>2019-07-07T09:36:21Z</time>
      </trkpt>
      <trkpt lat="49.18988" lon="1.99055">
        <ele>125.55</ele>
        <time>2019-07-07T09:36:25Z</time>
      </trkpt>
      <trkpt lat="49.18967" lon="1.99077">
        <ele>125.98</ele>
        <time>2019-07-07T09:36:48Z</time>
      </trkpt>
      <trkpt lat="49.18955" lon="1.99091">
        <ele>125.47</ele>
        <time>2019-07-07T09:37:02Z</time>
      </trkpt>
      <trkpt lat="49.18945" lon="1.99103">
        <ele>125.71</ele>
        <time>2019-07-07T09:37:15Z</time>
      </trkpt>
      <trkpt lat="49.18939" lon="1.99112">
        <ele>125.04</ele>
        <time>2019-07-07T09:37:30Z</time>
      </trkpt>
      <trkpt lat="49.18932" lon="1.99122">
        <ele>125.03</ele>
        <time>2019-07-07T09:37:39Z</time>
      </trkpt>
      <trkpt lat="49.18922" lon="1.99141">
        <ele>125.01</ele>
        <time>2019-07-07T09:37:53Z</time>
      </trkpt>
      <trkpt lat="49.18918" lon="1.99154">
        <ele>125</ele>
        <time>2019-07-07T09:38:04Z</time>
      </trkpt>
      <trkpt lat="49.18916" lon="1.99168">
        <ele>125.01</ele>
        <time>2019-07-07T09:38:15Z</time>
      </trkpt>
      <trkpt lat="49.18919" lon="1.99174">
        <ele>125.25</ele>
        <time>2019-07-07T09:38:34Z</time>
      </trkpt>
      <trkpt lat="49.18913" lon="1.99173">
        <ele>125.45</ele>
        <time>2019-07-07T09:38:58Z</time>
      </trkpt>
      <trkpt lat="49.18912" lon="1.99173">
        <ele>125.72</ele>
        <time>2019-07-07T09:38:59Z</time>
      </trkpt>
      <trkpt lat="49.18908" lon="1.99187">
        <ele>125.37</ele>
        <time>2019-07-07T09:39:13Z</time>
      </trkpt>
      <trkpt lat="49.18908" lon="1.99203">
        <ele>125.65</ele>
        <time>2019-07-07T09:39:26Z</time>
      </trkpt>
      <trkpt lat="49.18903" lon="1.99227">
        <ele>125.99</ele>
        <time>2019-07-07T09:39:43Z</time>
      </trkpt>
      <trkpt lat="49.18896" lon="1.99241">
        <ele>126.53</ele>
        <time>2019-07-07T09:39:55Z</time>
      </trkpt>
      <trkpt lat="49.18895" lon="1.99245">
        <ele>126.69</ele>
        <time>2019-07-07T09:39:57Z</time>
      </trkpt>
      <trkpt lat="49.18876" lon="1.99274">
        <ele>126.7</ele>
        <time>2019-07-07T09:40:18Z</time>
      </trkpt>
      <trkpt lat="49.1887" lon="1.99285">
        <ele>127.15</ele>
        <time>2019-07-07T09:40:30Z</time>
      </trkpt>
      <trkpt lat="49.18867" lon="1.9929">
        <ele>126.92</ele>
        <time>2019-07-07T09:40:36Z</time>
      </trkpt>
      <trkpt lat="49.18866" lon="1.99291">
        <ele>126.83</ele>
        <time>2019-07-07T09:40:38Z</time>
      </trkpt>
      <trkpt lat="49.18859" lon="1.99301">
        <ele>126.78</ele>
        <time>2019-07-07T09:40:50Z</time>
      </trkpt>
      <trkpt lat="49.18854" lon="1.9931">
        <ele>126.95</ele>
        <time>2019-07-07T09:40:59Z</time>
      </trkpt>
      <trkpt lat="49.18849" lon="1.99319">
        <ele>127.44</ele>
        <time>2019-07-07T09:41:07Z</time>
      </trkpt>
      <trkpt lat="49.18842" lon="1.99337">
        <ele>127.48</ele>
        <time>2019-07-07T09:41:20Z</time>
      </trkpt>
      <trkpt lat="49.18831" lon="1.99355">
        <ele>127.67</ele>
        <time>2019-07-07T09:41:35Z</time>
      </trkpt>
      <trkpt lat="49.18824" lon="1.99363">
        <ele>127.93</ele>
        <time>2019-07-07T09:41:52Z</time>
      </trkpt>
      <trkpt lat="49.1881" lon="1.99369">
        <ele>128.58</ele>
        <time>2019-07-07T09:42:09Z</time>
      </trkpt>
      <trkpt lat="49.18806" lon="1.99371">
        <ele>128.05</ele>
        <time>2019-07-07T09:42:17Z</time>
      </trkpt>
      <trkpt lat="49.18799" lon="1.99375">
        <ele>127.91</ele>
        <time>2019-07-07T09:42:24Z</time>
      </trkpt>
      <trkpt lat="49.18795" lon="1.99378">
        <ele>127.81</ele>
        <time>2019-07-07T09:42:29Z</time>
      </trkpt>
      <trkpt lat="49.18775" lon="1.99379">
        <ele>125.94</ele>
        <time>2019-07-07T09:42:47Z</time>
      </trkpt>
      <trkpt lat="49.18767" lon="1.99378">
        <ele>125.57</ele>
        <time>2019-07-07T09:42:56Z</time>
      </trkpt>
      <trkpt lat="49.18754" lon="1.99375">
        <ele>125.26</ele>
        <time>2019-07-07T09:43:10Z</time>
      </trkpt>
      <trkpt lat="49.18749" lon="1.99377">
        <ele>125.12</ele>
        <time>2019-07-07T09:43:29Z</time>
      </trkpt>
      <trkpt lat="49.18753" lon="1.99377">
        <ele>125.23</ele>
        <time>2019-07-07T09:43:50Z</time>
      </trkpt>
      <trkpt lat="49.18762" lon="1.99383">
        <ele>124.97</ele>
        <time>2019-07-07T09:44:06Z</time>
      </trkpt>
      <trkpt lat="49.1875" lon="1.99377">
        <ele>125.19</ele>
        <time>2019-07-07T09:44:23Z</time>
      </trkpt>
      <trkpt lat="49.18748" lon="1.99373">
        <ele>125.27</ele>
        <time>2019-07-07T09:44:45Z</time>
      </trkpt>
      <trkpt lat="49.18744" lon="1.99372">
        <ele>125.27</ele>
        <time>2019-07-07T09:45:10Z</time>
      </trkpt>
      <trkpt lat="49.18731" lon="1.99372">
        <ele>125.62</ele>
        <time>2019-07-07T09:45:23Z</time>
      </trkpt>
      <trkpt lat="49.18719" lon="1.99362">
        <ele>126.49</ele>
        <time>2019-07-07T09:45:38Z</time>
      </trkpt>
      <trkpt lat="49.18702" lon="1.99348">
        <ele>127.19</ele>
        <time>2019-07-07T09:45:56Z</time>
      </trkpt>
      <trkpt lat="49.18691" lon="1.99342">
        <ele>128.08</ele>
        <time>2019-07-07T09:46:15Z</time>
      </trkpt>
      <trkpt lat="49.18689" lon="1.99341">
        <ele>128.11</ele>
        <time>2019-07-07T09:46:42Z</time>
      </trkpt>
      <trkpt lat="49.18687" lon="1.99335">
        <ele>127.88</ele>
        <time>2019-07-07T09:46:59Z</time>
      </trkpt>
      <trkpt lat="49.18686" lon="1.99333">
        <ele>128.1</ele>
        <time>2019-07-07T09:47:16Z</time>
      </trkpt>
      <trkpt lat="49.18682" lon="1.99331">
        <ele>127.86</ele>
        <time>2019-07-07T09:47:34Z</time>
      </trkpt>
      <trkpt lat="49.18683" lon="1.9933">
        <ele>127.79</ele>
        <time>2019-07-07T09:47:55Z</time>
      </trkpt>
      <trkpt lat="49.1868" lon="1.99328">
        <ele>127.9</ele>
        <time>2019-07-07T09:48:04Z</time>
      </trkpt>
      <trkpt lat="49.18672" lon="1.99323">
        <ele>128.05</ele>
        <time>2019-07-07T09:48:27Z</time>
      </trkpt>
      <trkpt lat="49.1867" lon="1.99317">
        <ele>128.07</ele>
        <time>2019-07-07T09:48:46Z</time>
      </trkpt>
      <trkpt lat="49.18669" lon="1.99311">
        <ele>128.82</ele>
        <time>2019-07-07T09:49:05Z</time>
      </trkpt>
      <trkpt lat="49.18671" lon="1.9931">
        <ele>128.62</ele>
        <time>2019-07-07T09:49:29Z</time>
      </trkpt>
      <trkpt lat="49.18673" lon="1.99309">
        <ele>128.61</ele>
        <time>2019-07-07T09:50:08Z</time>
      </trkpt>
      <trkpt lat="49.1867" lon="1.99315">
        <ele>127.87</ele>
        <time>2019-07-07T09:50:34Z</time>
      </trkpt>
      <trkpt lat="49.18664" lon="1.99317">
        <ele>126.21</ele>
        <time>2019-07-07T09:50:58Z</time>
      </trkpt>
      <trkpt lat="49.1866" lon="1.9932">
        <ele>126.2</ele>
        <time>2019-07-07T09:51:17Z</time>
      </trkpt>
      <trkpt lat="49.18652" lon="1.9931">
        <ele>126.09</ele>
        <time>2019-07-07T09:51:39Z</time>
      </trkpt>
      <trkpt lat="49.18648" lon="1.99309">
        <ele>125.63</ele>
        <time>2019-07-07T09:51:43Z</time>
      </trkpt>
      <trkpt lat="49.18637" lon="1.99309">
        <ele>124.71</ele>
        <time>2019-07-07T09:52:00Z</time>
      </trkpt>
      <trkpt lat="49.18622" lon="1.99303">
        <ele>122.64</ele>
        <time>2019-07-07T09:52:21Z</time>
      </trkpt>
      <trkpt lat="49.18603" lon="1.99296">
        <ele>120.82</ele>
        <time>2019-07-07T09:52:41Z</time>
      </trkpt>
      <trkpt lat="49.18595" lon="1.99294">
        <ele>120.32</ele>
        <time>2019-07-07T09:52:48Z</time>
      </trkpt>
      <trkpt lat="49.18593" lon="1.99294">
        <ele>120.51</ele>
        <time>2019-07-07T09:52:50Z</time>
      </trkpt>
      <trkpt lat="49.18574" lon="1.99294">
        <ele>118.58</ele>
        <time>2019-07-07T09:53:08Z</time>
      </trkpt>
      <trkpt lat="49.18552" lon="1.9929">
        <ele>117.05</ele>
        <time>2019-07-07T09:53:28Z</time>
      </trkpt>
      <trkpt lat="49.18538" lon="1.99277">
        <ele>116.21</ele>
        <time>2019-07-07T09:53:45Z</time>
      </trkpt>
      <trkpt lat="49.18533" lon="1.99273">
        <ele>115.52</ele>
        <time>2019-07-07T09:53:52Z</time>
      </trkpt>
      <trkpt lat="49.18512" lon="1.99265">
        <ele>114.6</ele>
        <time>2019-07-07T09:54:09Z</time>
      </trkpt>
      <trkpt lat="49.18494" lon="1.9925">
        <ele>114.43</ele>
        <time>2019-07-07T09:54:24Z</time>
      </trkpt>
      <trkpt lat="49.18492" lon="1.9925">
        <ele>114.2</ele>
        <time>2019-07-07T09:54:26Z</time>
      </trkpt>
      <trkpt lat="49.18484" lon="1.99251">
        <ele>113.48</ele>
        <time>2019-07-07T09:54:33Z</time>
      </trkpt>
      <trkpt lat="49.18476" lon="1.99253">
        <ele>113.63</ele>
        <time>2019-07-07T09:54:38Z</time>
      </trkpt>
      <trkpt lat="49.18464" lon="1.99262">
        <ele>112.76</ele>
        <time>2019-07-07T09:54:50Z</time>
      </trkpt>
      <trkpt lat="49.18463" lon="1.99263">
        <ele>112.72</ele>
        <time>2019-07-07T09:55:00Z</time>
      </trkpt>
      <trkpt lat="49.18461" lon="1.99265">
        <ele>112.38</ele>
        <time>2019-07-07T09:55:03Z</time>
      </trkpt>
      <trkpt lat="49.18457" lon="1.99267">
        <ele>112.33</ele>
        <time>2019-07-07T09:55:07Z</time>
      </trkpt>
      <trkpt lat="49.18438" lon="1.99287">
        <ele>111.85</ele>
        <time>2019-07-07T09:55:27Z</time>
      </trkpt>
      <trkpt lat="49.18432" lon="1.99294">
        <ele>111.34</ele>
        <time>2019-07-07T09:55:36Z</time>
      </trkpt>
      <trkpt lat="49.18421" lon="1.99308">
        <ele>111.5</ele>
        <time>2019-07-07T09:55:50Z</time>
      </trkpt>
      <trkpt lat="49.18413" lon="1.99316">
        <ele>111.48</ele>
        <time>2019-07-07T09:55:59Z</time>
      </trkpt>
      <trkpt lat="49.18411" lon="1.99317">
        <ele>111.41</ele>
        <time>2019-07-07T09:56:01Z</time>
      </trkpt>
      <trkpt lat="49.18405" lon="1.99324">
        <ele>111.15</ele>
        <time>2019-07-07T09:56:08Z</time>
      </trkpt>
      <trkpt lat="49.18391" lon="1.9934">
        <ele>111.11</ele>
        <time>2019-07-07T09:56:23Z</time>
      </trkpt>
      <trkpt lat="49.18375" lon="1.99358">
        <ele>110.95</ele>
        <time>2019-07-07T09:56:41Z</time>
      </trkpt>
      <trkpt lat="49.18362" lon="1.99373">
        <ele>111.03</ele>
        <time>2019-07-07T09:56:56Z</time>
      </trkpt>
      <trkpt lat="49.18359" lon="1.99375">
        <ele>111.05</ele>
        <time>2019-07-07T09:56:59Z</time>
      </trkpt>
      <trkpt lat="49.18347" lon="1.99387">
        <ele>110.98</ele>
        <time>2019-07-07T09:57:17Z</time>
      </trkpt>
      <trkpt lat="49.18345" lon="1.99391">
        <ele>111</ele>
        <time>2019-07-07T09:57:41Z</time>
      </trkpt>
      <trkpt lat="49.18337" lon="1.99399">
        <ele>111.12</ele>
        <time>2019-07-07T09:57:50Z</time>
      </trkpt>
      <trkpt lat="49.18324" lon="1.99414">
        <ele>112.23</ele>
        <time>2019-07-07T09:58:06Z</time>
      </trkpt>
      <trkpt lat="49.18309" lon="1.9943">
        <ele>112.73</ele>
        <time>2019-07-07T09:58:22Z</time>
      </trkpt>
      <trkpt lat="49.18296" lon="1.99445">
        <ele>113.32</ele>
        <time>2019-07-07T09:58:36Z</time>
      </trkpt>
      <trkpt lat="49.18284" lon="1.99456">
        <ele>114.33</ele>
        <time>2019-07-07T09:58:49Z</time>
      </trkpt>
      <trkpt lat="49.18271" lon="1.99469">
        <ele>114.53</ele>
        <time>2019-07-07T09:59:03Z</time>
      </trkpt>
      <trkpt lat="49.18259" lon="1.99485">
        <ele>115.95</ele>
        <time>2019-07-07T09:59:18Z</time>
      </trkpt>
      <trkpt lat="49.18255" lon="1.99489">
        <ele>116.52</ele>
        <time>2019-07-07T09:59:23Z</time>
      </trkpt>
      <trkpt lat="49.18236" lon="1.9951">
        <ele>117.62</ele>
        <time>2019-07-07T09:59:45Z</time>
      </trkpt>
      <trkpt lat="49.18221" lon="1.99526">
        <ele>118.23</ele>
        <time>2019-07-07T10:00:01Z</time>
      </trkpt>
      <trkpt lat="49.18208" lon="1.99542">
        <ele>119.53</ele>
        <time>2019-07-07T10:00:17Z</time>
      </trkpt>
      <trkpt lat="49.18192" lon="1.99559">
        <ele>120.86</ele>
        <time>2019-07-07T10:00:35Z</time>
      </trkpt>
      <trkpt lat="49.18178" lon="1.9957">
        <ele>122</ele>
        <time>2019-07-07T10:00:49Z</time>
      </trkpt>
      <trkpt lat="49.18163" lon="1.99583">
        <ele>122.95</ele>
        <time>2019-07-07T10:01:05Z</time>
      </trkpt>
      <trkpt lat="49.1816" lon="1.99587">
        <ele>123</ele>
        <time>2019-07-07T10:01:13Z</time>
      </trkpt>
      <trkpt lat="49.18151" lon="1.99592">
        <ele>123.91</ele>
        <time>2019-07-07T10:01:21Z</time>
      </trkpt>
      <trkpt lat="49.18138" lon="1.99605">
        <ele>124.34</ele>
        <time>2019-07-07T10:01:36Z</time>
      </trkpt>
      <trkpt lat="49.18125" lon="1.99618">
        <ele>125.6</ele>
        <time>2019-07-07T10:01:52Z</time>
      </trkpt>
      <trkpt lat="49.18114" lon="1.99631">
        <ele>126.3</ele>
        <time>2019-07-07T10:02:06Z</time>
      </trkpt>
      <trkpt lat="49.18101" lon="1.99642">
        <ele>127.18</ele>
        <time>2019-07-07T10:02:20Z</time>
      </trkpt>
      <trkpt lat="49.18094" lon="1.99649">
        <ele>127.74</ele>
        <time>2019-07-07T10:02:28Z</time>
      </trkpt>
      <trkpt lat="49.18086" lon="1.99656">
        <ele>128.32</ele>
        <time>2019-07-07T10:02:37Z</time>
      </trkpt>
      <trkpt lat="49.18067" lon="1.99671">
        <ele>129.41</ele>
        <time>2019-07-07T10:02:56Z</time>
      </trkpt>
      <trkpt lat="49.18052" lon="1.9968">
        <ele>130.65</ele>
        <time>2019-07-07T10:03:11Z</time>
      </trkpt>
      <trkpt lat="49.18049" lon="1.99681">
        <ele>130.32</ele>
        <time>2019-07-07T10:03:21Z</time>
      </trkpt>
      <trkpt lat="49.18034" lon="1.99698">
        <ele>131.5</ele>
        <time>2019-07-07T10:03:37Z</time>
      </trkpt>
      <trkpt lat="49.18022" lon="1.99715">
        <ele>132.54</ele>
        <time>2019-07-07T10:03:54Z</time>
      </trkpt>
      <trkpt lat="49.18015" lon="1.99726">
        <ele>133.47</ele>
        <time>2019-07-07T10:04:13Z</time>
      </trkpt>
      <trkpt lat="49.18" lon="1.99743">
        <ele>134.18</ele>
        <time>2019-07-07T10:04:34Z</time>
      </trkpt>
      <trkpt lat="49.17986" lon="1.99761">
        <ele>135.26</ele>
        <time>2019-07-07T10:04:51Z</time>
      </trkpt>
      <trkpt lat="49.17979" lon="1.99771">
        <ele>136.57</ele>
        <time>2019-07-07T10:05:01Z</time>
      </trkpt>
      <trkpt lat="49.17968" lon="1.99786">
        <ele>136.98</ele>
        <time>2019-07-07T10:05:15Z</time>
      </trkpt>
      <trkpt lat="49.17955" lon="1.99805">
        <ele>137.84</ele>
        <time>2019-07-07T10:05:31Z</time>
      </trkpt>
      <trkpt lat="49.1794" lon="1.99823">
        <ele>138.8</ele>
        <time>2019-07-07T10:05:48Z</time>
      </trkpt>
      <trkpt lat="49.17926" lon="1.9984">
        <ele>140.09</ele>
        <time>2019-07-07T10:06:05Z</time>
      </trkpt>
      <trkpt lat="49.17925" lon="1.99843">
        <ele>140.31</ele>
        <time>2019-07-07T10:06:07Z</time>
      </trkpt>
      <trkpt lat="49.17923" lon="1.99849">
        <ele>139.7</ele>
        <time>2019-07-07T10:06:26Z</time>
      </trkpt>
      <trkpt lat="49.17909" lon="1.9986">
        <ele>141.24</ele>
        <time>2019-07-07T10:06:51Z</time>
      </trkpt>
      <trkpt lat="49.17894" lon="1.99874">
        <ele>142.35</ele>
        <time>2019-07-07T10:07:11Z</time>
      </trkpt>
      <trkpt lat="49.17876" lon="1.99894">
        <ele>143.81</ele>
        <time>2019-07-07T10:07:34Z</time>
      </trkpt>
      <trkpt lat="49.17857" lon="1.99914">
        <ele>144.59</ele>
        <time>2019-07-07T10:07:58Z</time>
      </trkpt>
      <trkpt lat="49.1784" lon="1.9993">
        <ele>145.91</ele>
        <time>2019-07-07T10:08:17Z</time>
      </trkpt>
      <trkpt lat="49.17821" lon="1.99948">
        <ele>146.83</ele>
        <time>2019-07-07T10:08:39Z</time>
      </trkpt>
      <trkpt lat="49.17801" lon="1.99966">
        <ele>147.38</ele>
        <time>2019-07-07T10:08:59Z</time>
      </trkpt>
      <trkpt lat="49.17787" lon="1.99982">
        <ele>148.27</ele>
        <time>2019-07-07T10:09:18Z</time>
      </trkpt>
      <trkpt lat="49.17779" lon="2.0001">
        <ele>149.19</ele>
        <time>2019-07-07T10:09:38Z</time>
      </trkpt>
      <trkpt lat="49.17778" lon="2.00013">
        <ele>149.2</ele>
        <time>2019-07-07T10:09:42Z</time>
      </trkpt>
      <trkpt lat="49.17777" lon="2.00035">
        <ele>150.33</ele>
        <time>2019-07-07T10:10:01Z</time>
      </trkpt>
      <trkpt lat="49.17772" lon="2.00081">
        <ele>150.34</ele>
        <time>2019-07-07T10:10:22Z</time>
      </trkpt>
      <trkpt lat="49.17757" lon="2.00115">
        <ele>152.58</ele>
        <time>2019-07-07T10:10:46Z</time>
      </trkpt>
      <trkpt lat="49.17739" lon="2.0013">
        <ele>153.6</ele>
        <time>2019-07-07T10:11:05Z</time>
      </trkpt>
      <trkpt lat="49.17721" lon="2.00129">
        <ele>154.95</ele>
        <time>2019-07-07T10:11:25Z</time>
      </trkpt>
      <trkpt lat="49.17708" lon="2.00112">
        <ele>155.89</ele>
        <time>2019-07-07T10:11:44Z</time>
      </trkpt>
      <trkpt lat="49.17705" lon="2.001">
        <ele>156.11</ele>
        <time>2019-07-07T10:12:05Z</time>
      </trkpt>
      <trkpt lat="49.17708" lon="2.00111">
        <ele>156.1</ele>
        <time>2019-07-07T10:12:29Z</time>
      </trkpt>
      <trkpt lat="49.17707" lon="2.00108">
        <ele>155.87</ele>
        <time>2019-07-07T10:12:56Z</time>
      </trkpt>
      <trkpt lat="49.17705" lon="2.00102">
        <ele>156.06</ele>
        <time>2019-07-07T10:13:19Z</time>
      </trkpt>
      <trkpt lat="49.17703" lon="2.00093">
        <ele>156.46</ele>
        <time>2019-07-07T10:13:45Z</time>
      </trkpt>
      <trkpt lat="49.17708" lon="2.00083">
        <ele>156.42</ele>
        <time>2019-07-07T10:14:06Z</time>
      </trkpt>
      <trkpt lat="49.17707" lon="2.00059">
        <ele>157.25</ele>
        <time>2019-07-07T10:14:24Z</time>
      </trkpt>
      <trkpt lat="49.17708" lon="2.00053">
        <ele>157.44</ele>
        <time>2019-07-07T10:14:43Z</time>
      </trkpt>
      <trkpt lat="49.17708" lon="2.00041">
        <ele>158.02</ele>
        <time>2019-07-07T10:15:06Z</time>
      </trkpt>
      <trkpt lat="49.17707" lon="2.00023">
        <ele>158.76</ele>
        <time>2019-07-07T10:15:26Z</time>
      </trkpt>
      <trkpt lat="49.17711" lon="1.99992">
        <ele>159.69</ele>
        <time>2019-07-07T10:15:43Z</time>
      </trkpt>
      <trkpt lat="49.17716" lon="1.99991">
        <ele>159.93</ele>
        <time>2019-07-07T10:16:06Z</time>
      </trkpt>
      <trkpt lat="49.17714" lon="1.99989">
        <ele>159.71</ele>
        <time>2019-07-07T10:16:36Z</time>
      </trkpt>
      <trkpt lat="49.17714" lon="1.99977">
        <ele>160.14</ele>
        <time>2019-07-07T10:16:55Z</time>
      </trkpt>
      <trkpt lat="49.17714" lon="1.99949">
        <ele>161.77</ele>
        <time>2019-07-07T10:17:14Z</time>
      </trkpt>
      <trkpt lat="49.17706" lon="1.99919">
        <ele>162.81</ele>
        <time>2019-07-07T10:17:33Z</time>
      </trkpt>
      <trkpt lat="49.17692" lon="1.99905">
        <ele>163.1</ele>
        <time>2019-07-07T10:17:51Z</time>
      </trkpt>
      <trkpt lat="49.17677" lon="1.99907">
        <ele>164.15</ele>
        <time>2019-07-07T10:18:07Z</time>
      </trkpt>
      <trkpt lat="49.17655" lon="1.99914">
        <ele>165.19</ele>
        <time>2019-07-07T10:18:29Z</time>
      </trkpt>
      <trkpt lat="49.17643" lon="1.99918">
        <ele>166.53</ele>
        <time>2019-07-07T10:18:44Z</time>
      </trkpt>
      <trkpt lat="49.17639" lon="1.99919">
        <ele>166.51</ele>
        <time>2019-07-07T10:18:48Z</time>
      </trkpt>
      <trkpt lat="49.17624" lon="1.99925">
        <ele>167.54</ele>
        <time>2019-07-07T10:19:02Z</time>
      </trkpt>
      <trkpt lat="49.17609" lon="1.99927">
        <ele>168.02</ele>
        <time>2019-07-07T10:19:16Z</time>
      </trkpt>
      <trkpt lat="49.17587" lon="1.99929">
        <ele>169.49</ele>
        <time>2019-07-07T10:19:35Z</time>
      </trkpt>
      <trkpt lat="49.17569" lon="1.9993">
        <ele>169.55</ele>
        <time>2019-07-07T10:19:51Z</time>
      </trkpt>
      <trkpt lat="49.17556" lon="1.99929">
        <ele>170.89</ele>
        <time>2019-07-07T10:20:05Z</time>
      </trkpt>
      <trkpt lat="49.17549" lon="1.99924">
        <ele>171.63</ele>
        <time>2019-07-07T10:20:19Z</time>
      </trkpt>
      <trkpt lat="49.17536" lon="1.99909">
        <ele>172.68</ele>
        <time>2019-07-07T10:20:41Z</time>
      </trkpt>
      <trkpt lat="49.17525" lon="1.99904">
        <ele>174.75</ele>
        <time>2019-07-07T10:20:54Z</time>
      </trkpt>
      <trkpt lat="49.17524" lon="1.99905">
        <ele>174.67</ele>
        <time>2019-07-07T10:20:56Z</time>
      </trkpt>
      <trkpt lat="49.17516" lon="1.99892">
        <ele>177.31</ele>
        <time>2019-07-07T10:21:16Z</time>
      </trkpt>
      <trkpt lat="49.17512" lon="1.99888">
        <ele>175.99</ele>
        <time>2019-07-07T10:21:42Z</time>
      </trkpt>
      <trkpt lat="49.17499" lon="1.99893">
        <ele>174.45</ele>
        <time>2019-07-07T10:22:00Z</time>
      </trkpt>
      <trkpt lat="49.17479" lon="1.99906">
        <ele>174.86</ele>
        <time>2019-07-07T10:22:19Z</time>
      </trkpt>
      <trkpt lat="49.17465" lon="1.99922">
        <ele>173.44</ele>
        <time>2019-07-07T10:22:36Z</time>
      </trkpt>
      <trkpt lat="49.17448" lon="1.99945">
        <ele>173.32</ele>
        <time>2019-07-07T10:23:00Z</time>
      </trkpt>
      <trkpt lat="49.17443" lon="1.99949">
        <ele>173.7</ele>
        <time>2019-07-07T10:23:06Z</time>
      </trkpt>
      <trkpt lat="49.17429" lon="1.99965">
        <ele>173.94</ele>
        <time>2019-07-07T10:23:26Z</time>
      </trkpt>
      <trkpt lat="49.17423" lon="1.99975">
        <ele>173.76</ele>
        <time>2019-07-07T10:23:50Z</time>
      </trkpt>
      <trkpt lat="49.17421" lon="1.99979">
        <ele>173.44</ele>
        <time>2019-07-07T10:23:57Z</time>
      </trkpt>
      <trkpt lat="49.17406" lon="2">
        <ele>171.23</ele>
        <time>2019-07-07T10:24:20Z</time>
      </trkpt>
      <trkpt lat="49.17401" lon="2.00011">
        <ele>170.28</ele>
        <time>2019-07-07T10:24:29Z</time>
      </trkpt>
      <trkpt lat="49.17386" lon="2.0003">
        <ele>168.43</ele>
        <time>2019-07-07T10:24:52Z</time>
      </trkpt>
      <trkpt lat="49.1737" lon="2.00051">
        <ele>167.76</ele>
        <time>2019-07-07T10:25:09Z</time>
      </trkpt>
      <trkpt lat="49.17353" lon="2.00078">
        <ele>165.98</ele>
        <time>2019-07-07T10:25:29Z</time>
      </trkpt>
      <trkpt lat="49.1735" lon="2.00083">
        <ele>165.55</ele>
        <time>2019-07-07T10:25:33Z</time>
      </trkpt>
      <trkpt lat="49.17334" lon="2.0011">
        <ele>164.92</ele>
        <time>2019-07-07T10:25:54Z</time>
      </trkpt>
      <trkpt lat="49.17319" lon="2.00127">
        <ele>163.83</ele>
        <time>2019-07-07T10:26:11Z</time>
      </trkpt>
      <trkpt lat="49.17295" lon="2.00143">
        <ele>163.6</ele>
        <time>2019-07-07T10:26:33Z</time>
      </trkpt>
      <trkpt lat="49.1727" lon="2.00154">
        <ele>162.53</ele>
        <time>2019-07-07T10:26:53Z</time>
      </trkpt>
      <trkpt lat="49.17252" lon="2.00164">
        <ele>162.24</ele>
        <time>2019-07-07T10:27:12Z</time>
      </trkpt>
      <trkpt lat="49.17236" lon="2.0017">
        <ele>161.96</ele>
        <time>2019-07-07T10:27:30Z</time>
      </trkpt>
      <trkpt lat="49.17223" lon="2.0017">
        <ele>162.03</ele>
        <time>2019-07-07T10:27:42Z</time>
      </trkpt>
      <trkpt lat="49.17217" lon="2.00176">
        <ele>162.6</ele>
        <time>2019-07-07T10:27:57Z</time>
      </trkpt>
      <trkpt lat="49.17213" lon="2.0018">
        <ele>162.24</ele>
        <time>2019-07-07T10:28:25Z</time>
      </trkpt>
      <trkpt lat="49.1721" lon="2.0018">
        <ele>162.06</ele>
        <time>2019-07-07T10:28:46Z</time>
      </trkpt>
      <trkpt lat="49.17203" lon="2.0018">
        <ele>161.74</ele>
        <time>2019-07-07T10:29:10Z</time>
      </trkpt>
      <trkpt lat="49.17202" lon="2.00178">
        <ele>161.52</ele>
        <time>2019-07-07T10:29:33Z</time>
      </trkpt>
      <trkpt lat="49.1719" lon="2.0019">
        <ele>160.99</ele>
        <time>2019-07-07T10:29:48Z</time>
      </trkpt>
      <trkpt lat="49.17185" lon="2.00193">
        <ele>161.35</ele>
        <time>2019-07-07T10:29:54Z</time>
      </trkpt>
      <trkpt lat="49.17174" lon="2.00209">
        <ele>159.94</ele>
        <time>2019-07-07T10:30:10Z</time>
      </trkpt>
      <trkpt lat="49.17173" lon="2.00211">
        <ele>160.11</ele>
        <time>2019-07-07T10:30:12Z</time>
      </trkpt>
      <trkpt lat="49.17171" lon="2.00214">
        <ele>159.94</ele>
        <time>2019-07-07T10:30:14Z</time>
      </trkpt>
      <trkpt lat="49.17154" lon="2.0024">
        <ele>158.64</ele>
        <time>2019-07-07T10:30:37Z</time>
      </trkpt>
      <trkpt lat="49.17136" lon="2.00268">
        <ele>156.77</ele>
        <time>2019-07-07T10:31:00Z</time>
      </trkpt>
      <trkpt lat="49.17121" lon="2.00288">
        <ele>154.61</ele>
        <time>2019-07-07T10:31:20Z</time>
      </trkpt>
      <trkpt lat="49.1711" lon="2.00299">
        <ele>153.94</ele>
        <time>2019-07-07T10:31:40Z</time>
      </trkpt>
      <trkpt lat="49.17111" lon="2.00307">
        <ele>153.7</ele>
        <time>2019-07-07T10:32:10Z</time>
      </trkpt>
      <trkpt lat="49.17113" lon="2.00302">
        <ele>154.26</ele>
        <time>2019-07-07T10:32:38Z</time>
      </trkpt>
      <trkpt lat="49.17108" lon="2.00306">
        <ele>154.14</ele>
        <time>2019-07-07T10:33:00Z</time>
      </trkpt>
      <trkpt lat="49.17102" lon="2.00309">
        <ele>153.17</ele>
        <time>2019-07-07T10:33:25Z</time>
      </trkpt>
      <trkpt lat="49.17082" lon="2.00323">
        <ele>150.79</ele>
        <time>2019-07-07T10:33:48Z</time>
      </trkpt>
      <trkpt lat="49.17062" lon="2.00339">
        <ele>148.74</ele>
        <time>2019-07-07T10:34:09Z</time>
      </trkpt>
      <trkpt lat="49.17041" lon="2.00359">
        <ele>146.61</ele>
        <time>2019-07-07T10:34:32Z</time>
      </trkpt>
      <trkpt lat="49.17027" lon="2.00368">
        <ele>144.94</ele>
        <time>2019-07-07T10:34:49Z</time>
      </trkpt>
      <trkpt lat="49.17024" lon="2.00369">
        <ele>145.31</ele>
        <time>2019-07-07T10:35:11Z</time>
      </trkpt>
      <trkpt lat="49.17017" lon="2.00376">
        <ele>144.49</ele>
        <time>2019-07-07T10:35:32Z</time>
      </trkpt>
      <trkpt lat="49.1701" lon="2.0038">
        <ele>144</ele>
        <time>2019-07-07T10:35:37Z</time>
      </trkpt>
      <trkpt lat="49.17003" lon="2.00389">
        <ele>143.14</ele>
        <time>2019-07-07T10:35:43Z</time>
      </trkpt>
      <trkpt lat="49.1699" lon="2.00402">
        <ele>141.47</ele>
        <time>2019-07-07T10:36:01Z</time>
      </trkpt>
      <trkpt lat="49.1697" lon="2.00422">
        <ele>140.46</ele>
        <time>2019-07-07T10:36:17Z</time>
      </trkpt>
      <trkpt lat="49.16958" lon="2.0043">
        <ele>138.8</ele>
        <time>2019-07-07T10:36:29Z</time>
      </trkpt>
      <trkpt lat="49.16943" lon="2.00443">
        <ele>138.25</ele>
        <time>2019-07-07T10:36:44Z</time>
      </trkpt>
      <trkpt lat="49.16932" lon="2.00449">
        <ele>135.59</ele>
        <time>2019-07-07T10:36:58Z</time>
      </trkpt>
      <trkpt lat="49.16915" lon="2.00449">
        <ele>133.98</ele>
        <time>2019-07-07T10:37:16Z</time>
      </trkpt>
      <trkpt lat="49.16898" lon="2.00462">
        <ele>132.64</ele>
        <time>2019-07-07T10:37:33Z</time>
      </trkpt>
      <trkpt lat="49.16878" lon="2.00472">
        <ele>131.57</ele>
        <time>2019-07-07T10:37:47Z</time>
      </trkpt>
      <trkpt lat="49.16868" lon="2.00485">
        <ele>130.99</ele>
        <time>2019-07-07T10:38:12Z</time>
      </trkpt>
      <trkpt lat="49.16848" lon="2.00499">
        <ele>129.09</ele>
        <time>2019-07-07T10:38:36Z</time>
      </trkpt>
      <trkpt lat="49.16847" lon="2.00499">
        <ele>128.75</ele>
        <time>2019-07-07T10:38:37Z</time>
      </trkpt>
      <trkpt lat="49.16833" lon="2.00508">
        <ele>127.64</ele>
        <time>2019-07-07T10:38:51Z</time>
      </trkpt>
      <trkpt lat="49.16816" lon="2.00528">
        <ele>126.31</ele>
        <time>2019-07-07T10:39:07Z</time>
      </trkpt>
      <trkpt lat="49.16797" lon="2.0054">
        <ele>126.33</ele>
        <time>2019-07-07T10:39:20Z</time>
      </trkpt>
      <trkpt lat="49.16778" lon="2.00554">
        <ele>125.79</ele>
        <time>2019-07-07T10:39:36Z</time>
      </trkpt>
      <trkpt lat="49.16758" lon="2.00563">
        <ele>124.5</ele>
        <time>2019-07-07T10:39:58Z</time>
      </trkpt>
      <trkpt lat="49.16742" lon="2.00565">
        <ele>124.04</ele>
        <time>2019-07-07T10:40:12Z</time>
      </trkpt>
      <trkpt lat="49.16726" lon="2.00568">
        <ele>123.46</ele>
        <time>2019-07-07T10:40:25Z</time>
      </trkpt>
      <trkpt lat="49.167" lon="2.00577">
        <ele>122.81</ele>
        <time>2019-07-07T10:40:45Z</time>
      </trkpt>
      <trkpt lat="49.16693" lon="2.00574">
        <ele>122.88</ele>
        <time>2019-07-07T10:40:52Z</time>
      </trkpt>
      <trkpt lat="49.1667" lon="2.00573">
        <ele>122.51</ele>
        <time>2019-07-07T10:41:07Z</time>
      </trkpt>
      <trkpt lat="49.16649" lon="2.00568">
        <ele>122.12</ele>
        <time>2019-07-07T10:41:25Z</time>
      </trkpt>
      <trkpt lat="49.16636" lon="2.00565">
        <ele>121.96</ele>
        <time>2019-07-07T10:41:37Z</time>
      </trkpt>
      <trkpt lat="49.16622" lon="2.0055">
        <ele>121.49</ele>
        <time>2019-07-07T10:41:56Z</time>
      </trkpt>
      <trkpt lat="49.16619" lon="2.00535">
        <ele>122.06</ele>
        <time>2019-07-07T10:42:15Z</time>
      </trkpt>
      <trkpt lat="49.16612" lon="2.0051">
        <ele>122.52</ele>
        <time>2019-07-07T10:42:32Z</time>
      </trkpt>
      <trkpt lat="49.16604" lon="2.0048">
        <ele>122.27</ele>
        <time>2019-07-07T10:42:50Z</time>
      </trkpt>
      <trkpt lat="49.16601" lon="2.00463">
        <ele>122.63</ele>
        <time>2019-07-07T10:43:00Z</time>
      </trkpt>
      <trkpt lat="49.16599" lon="2.00446">
        <ele>123.2</ele>
        <time>2019-07-07T10:43:10Z</time>
      </trkpt>
      <trkpt lat="49.16598" lon="2.00444">
        <ele>122.95</ele>
        <time>2019-07-07T10:43:12Z</time>
      </trkpt>
      <trkpt lat="49.16595" lon="2.00425">
        <ele>123.41</ele>
        <time>2019-07-07T10:43:27Z</time>
      </trkpt>
      <trkpt lat="49.16594" lon="2.0042">
        <ele>123.62</ele>
        <time>2019-07-07T10:43:30Z</time>
      </trkpt>
      <trkpt lat="49.16593" lon="2.00412">
        <ele>123.94</ele>
        <time>2019-07-07T10:43:35Z</time>
      </trkpt>
      <trkpt lat="49.16594" lon="2.00395">
        <ele>124.31</ele>
        <time>2019-07-07T10:43:44Z</time>
      </trkpt>
      <trkpt lat="49.16593" lon="2.0038">
        <ele>125.05</ele>
        <time>2019-07-07T10:44:07Z</time>
      </trkpt>
      <trkpt lat="49.16602" lon="2.00341">
        <ele>126.42</ele>
        <time>2019-07-07T10:44:31Z</time>
      </trkpt>
      <trkpt lat="49.16607" lon="2.00318">
        <ele>127.89</ele>
        <time>2019-07-07T10:44:45Z</time>
      </trkpt>
      <trkpt lat="49.16607" lon="2.00317">
        <ele>128.06</ele>
        <time>2019-07-07T10:44:46Z</time>
      </trkpt>
      <trkpt lat="49.16608" lon="2.00302">
        <ele>128.11</ele>
        <time>2019-07-07T10:44:56Z</time>
      </trkpt>
      <trkpt lat="49.16611" lon="2.00281">
        <ele>128.74</ele>
        <time>2019-07-07T10:45:09Z</time>
      </trkpt>
      <trkpt lat="49.16611" lon="2.00265">
        <ele>129.63</ele>
        <time>2019-07-07T10:45:16Z</time>
      </trkpt>
      <trkpt lat="49.16611" lon="2.0026">
        <ele>129.51</ele>
        <time>2019-07-07T10:45:20Z</time>
      </trkpt>
      <trkpt lat="49.16611" lon="2.00246">
        <ele>129.87</ele>
        <time>2019-07-07T10:45:28Z</time>
      </trkpt>
      <trkpt lat="49.16611" lon="2.00234">
        <ele>130.01</ele>
        <time>2019-07-07T10:45:35Z</time>
      </trkpt>
      <trkpt lat="49.16609" lon="2.00196">
        <ele>131.05</ele>
        <time>2019-07-07T10:45:56Z</time>
      </trkpt>
      <trkpt lat="49.16604" lon="2.00162">
        <ele>132.08</ele>
        <time>2019-07-07T10:46:16Z</time>
      </trkpt>
      <trkpt lat="49.16602" lon="2.00118">
        <ele>133.48</ele>
        <time>2019-07-07T10:46:40Z</time>
      </trkpt>
      <trkpt lat="49.16602" lon="2.00096">
        <ele>133.95</ele>
        <time>2019-07-07T10:46:59Z</time>
      </trkpt>
      <trkpt lat="49.16603" lon="2.00069">
        <ele>134.59</ele>
        <time>2019-07-07T10:47:17Z</time>
      </trkpt>
      <trkpt lat="49.16603" lon="2.00059">
        <ele>134.19</ele>
        <time>2019-07-07T10:47:31Z</time>
      </trkpt>
      <trkpt lat="49.16597" lon="2.00049">
        <ele>134.47</ele>
        <time>2019-07-07T10:47:52Z</time>
      </trkpt>
      <trkpt lat="49.16589" lon="2.00051">
        <ele>136.02</ele>
        <time>2019-07-07T10:48:13Z</time>
      </trkpt>
      <trkpt lat="49.16588" lon="2.00051">
        <ele>135.89</ele>
        <time>2019-07-07T10:48:33Z</time>
      </trkpt>
      <trkpt lat="49.1659" lon="2.00052">
        <ele>135.32</ele>
        <time>2019-07-07T10:48:57Z</time>
      </trkpt>
      <trkpt lat="49.16597" lon="2.00044">
        <ele>134.3</ele>
        <time>2019-07-07T10:49:14Z</time>
      </trkpt>
      <trkpt lat="49.16597" lon="2.00039">
        <ele>134.34</ele>
        <time>2019-07-07T10:49:17Z</time>
      </trkpt>
      <trkpt lat="49.16598" lon="2.00031">
        <ele>134.54</ele>
        <time>2019-07-07T10:49:22Z</time>
      </trkpt>
      <trkpt lat="49.16595" lon="2.00005">
        <ele>134.66</ele>
        <time>2019-07-07T10:49:39Z</time>
      </trkpt>
      <trkpt lat="49.16596" lon="2.00003">
        <ele>134.83</ele>
        <time>2019-07-07T10:49:41Z</time>
      </trkpt>
      <trkpt lat="49.16596" lon="1.99994">
        <ele>135.32</ele>
        <time>2019-07-07T10:49:52Z</time>
      </trkpt>
      <trkpt lat="49.16596" lon="1.99988">
        <ele>135.06</ele>
        <time>2019-07-07T10:49:56Z</time>
      </trkpt>
      <trkpt lat="49.16594" lon="1.99958">
        <ele>135.78</ele>
        <time>2019-07-07T10:50:14Z</time>
      </trkpt>
      <trkpt lat="49.16591" lon="1.99919">
        <ele>137.01</ele>
        <time>2019-07-07T10:50:37Z</time>
      </trkpt>
      <trkpt lat="49.16588" lon="1.99905">
        <ele>138.26</ele>
        <time>2019-07-07T10:50:46Z</time>
      </trkpt>
      <trkpt lat="49.16585" lon="1.99888">
        <ele>147.06</ele>
        <time>2019-07-07T11:27:27Z</time>
      </trkpt>
      <trkpt lat="49.16585" lon="1.99873">
        <ele>147.75</ele>
        <time>2019-07-07T11:27:44Z</time>
      </trkpt>
      <trkpt lat="49.16584" lon="1.99867">
        <ele>148.57</ele>
        <time>2019-07-07T11:28:04Z</time>
      </trkpt>
      <trkpt lat="49.16585" lon="1.99867">
        <ele>147.87</ele>
        <time>2019-07-07T11:29:05Z</time>
      </trkpt>
      <trkpt lat="49.16582" lon="1.99851">
        <ele>148.83</ele>
        <time>2019-07-07T11:29:20Z</time>
      </trkpt>
      <trkpt lat="49.16582" lon="1.99833">
        <ele>149.49</ele>
        <time>2019-07-07T11:29:37Z</time>
      </trkpt>
      <trkpt lat="49.16574" lon="1.99814">
        <ele>150.26</ele>
        <time>2019-07-07T11:29:55Z</time>
      </trkpt>
      <trkpt lat="49.1657" lon="1.99809">
        <ele>151.58</ele>
        <time>2019-07-07T11:30:15Z</time>
      </trkpt>
      <trkpt lat="49.16567" lon="1.99808">
        <ele>151.53</ele>
        <time>2019-07-07T11:30:37Z</time>
      </trkpt>
      <trkpt lat="49.1656" lon="1.99803">
        <ele>152.35</ele>
        <time>2019-07-07T11:30:58Z</time>
      </trkpt>
      <trkpt lat="49.16543" lon="1.99788">
        <ele>154.12</ele>
        <time>2019-07-07T11:31:21Z</time>
      </trkpt>
      <trkpt lat="49.16542" lon="1.99788">
        <ele>154.43</ele>
        <time>2019-07-07T11:31:22Z</time>
      </trkpt>
      <trkpt lat="49.16537" lon="1.99786">
        <ele>154.86</ele>
        <time>2019-07-07T11:31:27Z</time>
      </trkpt>
      <trkpt lat="49.16529" lon="1.99777">
        <ele>155</ele>
        <time>2019-07-07T11:31:36Z</time>
      </trkpt>
      <trkpt lat="49.16517" lon="1.99767">
        <ele>156.23</ele>
        <time>2019-07-07T11:31:51Z</time>
      </trkpt>
      <trkpt lat="49.16507" lon="1.9976">
        <ele>157.17</ele>
        <time>2019-07-07T11:32:03Z</time>
      </trkpt>
      <trkpt lat="49.16502" lon="1.99756">
        <ele>157.07</ele>
        <time>2019-07-07T11:32:08Z</time>
      </trkpt>
      <trkpt lat="49.16483" lon="1.99743">
        <ele>159.03</ele>
        <time>2019-07-07T11:32:27Z</time>
      </trkpt>
      <trkpt lat="49.16469" lon="1.99734">
        <ele>159.9</ele>
        <time>2019-07-07T11:32:42Z</time>
      </trkpt>
      <trkpt lat="49.16465" lon="1.99733">
        <ele>160.19</ele>
        <time>2019-07-07T11:32:46Z</time>
      </trkpt>
      <trkpt lat="49.1646" lon="1.99731">
        <ele>161.01</ele>
        <time>2019-07-07T11:32:53Z</time>
      </trkpt>
      <trkpt lat="49.16449" lon="1.99722">
        <ele>160.76</ele>
        <time>2019-07-07T11:33:05Z</time>
      </trkpt>
      <trkpt lat="49.16432" lon="1.99713">
        <ele>160.8</ele>
        <time>2019-07-07T11:33:22Z</time>
      </trkpt>
      <trkpt lat="49.16429" lon="1.99711">
        <ele>162.76</ele>
        <time>2019-07-07T11:33:25Z</time>
      </trkpt>
      <trkpt lat="49.16421" lon="1.99707">
        <ele>163.39</ele>
        <time>2019-07-07T11:33:33Z</time>
      </trkpt>
      <trkpt lat="49.16419" lon="1.99706">
        <ele>163.47</ele>
        <time>2019-07-07T11:33:36Z</time>
      </trkpt>
      <trkpt lat="49.16406" lon="1.99701">
        <ele>163.82</ele>
        <time>2019-07-07T11:33:49Z</time>
      </trkpt>
      <trkpt lat="49.16391" lon="1.99696">
        <ele>165.18</ele>
        <time>2019-07-07T11:34:04Z</time>
      </trkpt>
      <trkpt lat="49.16376" lon="1.99693">
        <ele>166.19</ele>
        <time>2019-07-07T11:34:25Z</time>
      </trkpt>
      <trkpt lat="49.16366" lon="1.99694">
        <ele>166.84</ele>
        <time>2019-07-07T11:34:37Z</time>
      </trkpt>
      <trkpt lat="49.16357" lon="1.99694">
        <ele>167.18</ele>
        <time>2019-07-07T11:34:42Z</time>
      </trkpt>
      <trkpt lat="49.16339" lon="1.99699">
        <ele>166.97</ele>
        <time>2019-07-07T11:34:58Z</time>
      </trkpt>
      <trkpt lat="49.16332" lon="1.99702">
        <ele>167.04</ele>
        <time>2019-07-07T11:35:05Z</time>
      </trkpt>
      <trkpt lat="49.16316" lon="1.99707">
        <ele>167.06</ele>
        <time>2019-07-07T11:35:18Z</time>
      </trkpt>
      <trkpt lat="49.16299" lon="1.99712">
        <ele>166.33</ele>
        <time>2019-07-07T11:35:32Z</time>
      </trkpt>
      <trkpt lat="49.16297" lon="1.99713">
        <ele>166.71</ele>
        <time>2019-07-07T11:35:34Z</time>
      </trkpt>
      <trkpt lat="49.16282" lon="1.99717">
        <ele>165.85</ele>
        <time>2019-07-07T11:35:47Z</time>
      </trkpt>
      <trkpt lat="49.16265" lon="1.99725">
        <ele>165.82</ele>
        <time>2019-07-07T11:36:04Z</time>
      </trkpt>
      <trkpt lat="49.16249" lon="1.99732">
        <ele>167.17</ele>
        <time>2019-07-07T11:36:18Z</time>
      </trkpt>
      <trkpt lat="49.16245" lon="1.99734">
        <ele>167.67</ele>
        <time>2019-07-07T11:36:22Z</time>
      </trkpt>
      <trkpt lat="49.16234" lon="1.99744">
        <ele>168.93</ele>
        <time>2019-07-07T11:36:35Z</time>
      </trkpt>
      <trkpt lat="49.1622" lon="1.99751">
        <ele>170.3</ele>
        <time>2019-07-07T11:36:48Z</time>
      </trkpt>
      <trkpt lat="49.16215" lon="1.99755">
        <ele>170.86</ele>
        <time>2019-07-07T11:36:53Z</time>
      </trkpt>
      <trkpt lat="49.16203" lon="1.99762">
        <ele>171.38</ele>
        <time>2019-07-07T11:37:05Z</time>
      </trkpt>
      <trkpt lat="49.16189" lon="1.99764">
        <ele>173.42</ele>
        <time>2019-07-07T11:37:22Z</time>
      </trkpt>
      <trkpt lat="49.16176" lon="1.99774">
        <ele>174.61</ele>
        <time>2019-07-07T11:37:43Z</time>
      </trkpt>
      <trkpt lat="49.16169" lon="1.99772">
        <ele>175.14</ele>
        <time>2019-07-07T11:38:03Z</time>
      </trkpt>
      <trkpt lat="49.16169" lon="1.99766">
        <ele>175.59</ele>
        <time>2019-07-07T11:38:13Z</time>
      </trkpt>
      <trkpt lat="49.16167" lon="1.99764">
        <ele>174.86</ele>
        <time>2019-07-07T11:39:47Z</time>
      </trkpt>
      <trkpt lat="49.16158" lon="1.99773">
        <ele>174.81</ele>
        <time>2019-07-07T11:40:18Z</time>
      </trkpt>
      <trkpt lat="49.16155" lon="1.9977">
        <ele>174.37</ele>
        <time>2019-07-07T11:40:47Z</time>
      </trkpt>
      <trkpt lat="49.16156" lon="1.99762">
        <ele>174.48</ele>
        <time>2019-07-07T11:41:35Z</time>
      </trkpt>
      <trkpt lat="49.16149" lon="1.99757">
        <ele>175.21</ele>
        <time>2019-07-07T11:42:06Z</time>
      </trkpt>
      <trkpt lat="49.16147" lon="1.99755">
        <ele>175.88</ele>
        <time>2019-07-07T11:42:32Z</time>
      </trkpt>
      <trkpt lat="49.16144" lon="1.99751">
        <ele>175.28</ele>
        <time>2019-07-07T11:42:39Z</time>
      </trkpt>
      <trkpt lat="49.16139" lon="1.99745">
        <ele>175.12</ele>
        <time>2019-07-07T11:42:47Z</time>
      </trkpt>
      <trkpt lat="49.16117" lon="1.99724">
        <ele>176.05</ele>
        <time>2019-07-07T11:43:09Z</time>
      </trkpt>
      <trkpt lat="49.16098" lon="1.99705">
        <ele>174.29</ele>
        <time>2019-07-07T11:43:27Z</time>
      </trkpt>
      <trkpt lat="49.16079" lon="1.99696">
        <ele>173.67</ele>
        <time>2019-07-07T11:43:45Z</time>
      </trkpt>
      <trkpt lat="49.16055" lon="1.99687">
        <ele>171.94</ele>
        <time>2019-07-07T11:44:10Z</time>
      </trkpt>
      <trkpt lat="49.16024" lon="1.99674">
        <ele>172.19</ele>
        <time>2019-07-07T11:44:35Z</time>
      </trkpt>
      <trkpt lat="49.16021" lon="1.99673">
        <ele>172.61</ele>
        <time>2019-07-07T11:44:38Z</time>
      </trkpt>
      <trkpt lat="49.16001" lon="1.99661">
        <ele>172.31</ele>
        <time>2019-07-07T11:44:57Z</time>
      </trkpt>
      <trkpt lat="49.15982" lon="1.99644">
        <ele>173.8</ele>
        <time>2019-07-07T11:45:15Z</time>
      </trkpt>
      <trkpt lat="49.15965" lon="1.99637">
        <ele>174.86</ele>
        <time>2019-07-07T11:45:32Z</time>
      </trkpt>
      <trkpt lat="49.15958" lon="1.9963">
        <ele>175.98</ele>
        <time>2019-07-07T11:45:43Z</time>
      </trkpt>
      <trkpt lat="49.15939" lon="1.99624">
        <ele>177.28</ele>
        <time>2019-07-07T11:45:59Z</time>
      </trkpt>
      <trkpt lat="49.15937" lon="1.99619">
        <ele>177.66</ele>
        <time>2019-07-07T11:46:03Z</time>
      </trkpt>
      <trkpt lat="49.15928" lon="1.99615">
        <ele>177.96</ele>
        <time>2019-07-07T11:46:10Z</time>
      </trkpt>
      <trkpt lat="49.15893" lon="1.99591">
        <ele>180.45</ele>
        <time>2019-07-07T11:46:37Z</time>
      </trkpt>
      <trkpt lat="49.15877" lon="1.99588">
        <ele>181.45</ele>
        <time>2019-07-07T11:46:55Z</time>
      </trkpt>
      <trkpt lat="49.15859" lon="1.9959">
        <ele>182.71</ele>
        <time>2019-07-07T11:47:11Z</time>
      </trkpt>
      <trkpt lat="49.15845" lon="1.99586">
        <ele>184.2</ele>
        <time>2019-07-07T11:47:26Z</time>
      </trkpt>
      <trkpt lat="49.1583" lon="1.99584">
        <ele>185.63</ele>
        <time>2019-07-07T11:47:39Z</time>
      </trkpt>
      <trkpt lat="49.15803" lon="1.99575">
        <ele>187.68</ele>
        <time>2019-07-07T11:48:02Z</time>
      </trkpt>
      <trkpt lat="49.15785" lon="1.99567">
        <ele>189.38</ele>
        <time>2019-07-07T11:48:20Z</time>
      </trkpt>
      <trkpt lat="49.15778" lon="1.99565">
        <ele>190.18</ele>
        <time>2019-07-07T11:48:28Z</time>
      </trkpt>
      <trkpt lat="49.15775" lon="1.99562">
        <ele>190.33</ele>
        <time>2019-07-07T11:48:33Z</time>
      </trkpt>
      <trkpt lat="49.1577" lon="1.99559">
        <ele>190.72</ele>
        <time>2019-07-07T11:48:39Z</time>
      </trkpt>
      <trkpt lat="49.15767" lon="1.9956">
        <ele>190.92</ele>
        <time>2019-07-07T11:48:43Z</time>
      </trkpt>
      <trkpt lat="49.15758" lon="1.99554">
        <ele>191.23</ele>
        <time>2019-07-07T11:48:52Z</time>
      </trkpt>
      <trkpt lat="49.15743" lon="1.99547">
        <ele>191.4</ele>
        <time>2019-07-07T11:49:05Z</time>
      </trkpt>
      <trkpt lat="49.15722" lon="1.99531">
        <ele>191.85</ele>
        <time>2019-07-07T11:49:20Z</time>
      </trkpt>
      <trkpt lat="49.1572" lon="1.99518">
        <ele>192.02</ele>
        <time>2019-07-07T11:50:50Z</time>
      </trkpt>
      <trkpt lat="49.1572" lon="1.99495">
        <ele>192.91</ele>
        <time>2019-07-07T11:51:35Z</time>
      </trkpt>
      <trkpt lat="49.15714" lon="1.99474">
        <ele>193.72</ele>
        <time>2019-07-07T11:53:52Z</time>
      </trkpt>
      <trkpt lat="49.15713" lon="1.99475">
        <ele>193.74</ele>
        <time>2019-07-07T11:53:54Z</time>
      </trkpt>
      <trkpt lat="49.15702" lon="1.99465">
        <ele>193.5</ele>
        <time>2019-07-07T11:54:11Z</time>
      </trkpt>
      <trkpt lat="49.15689" lon="1.99449">
        <ele>193.96</ele>
        <time>2019-07-07T11:54:29Z</time>
      </trkpt>
      <trkpt lat="49.15683" lon="1.99435">
        <ele>193.64</ele>
        <time>2019-07-07T11:54:49Z</time>
      </trkpt>
      <trkpt lat="49.1567" lon="1.99413">
        <ele>194.15</ele>
        <time>2019-07-07T11:55:09Z</time>
      </trkpt>
      <trkpt lat="49.15662" lon="1.99397">
        <ele>194.07</ele>
        <time>2019-07-07T11:55:28Z</time>
      </trkpt>
      <trkpt lat="49.1566" lon="1.99392">
        <ele>193.91</ele>
        <time>2019-07-07T11:55:33Z</time>
      </trkpt>
      <trkpt lat="49.15657" lon="1.99388">
        <ele>193.71</ele>
        <time>2019-07-07T11:55:37Z</time>
      </trkpt>
      <trkpt lat="49.15643" lon="1.99372">
        <ele>193.15</ele>
        <time>2019-07-07T11:55:59Z</time>
      </trkpt>
      <trkpt lat="49.15634" lon="1.99356">
        <ele>193.47</ele>
        <time>2019-07-07T11:56:15Z</time>
      </trkpt>
      <trkpt lat="49.1562" lon="1.99333">
        <ele>193.44</ele>
        <time>2019-07-07T11:56:34Z</time>
      </trkpt>
      <trkpt lat="49.15601" lon="1.99312">
        <ele>192.98</ele>
        <time>2019-07-07T11:56:53Z</time>
      </trkpt>
      <trkpt lat="49.15587" lon="1.99295">
        <ele>192.29</ele>
        <time>2019-07-07T11:57:12Z</time>
      </trkpt>
      <trkpt lat="49.15577" lon="1.99287">
        <ele>192.14</ele>
        <time>2019-07-07T11:57:21Z</time>
      </trkpt>
      <trkpt lat="49.15575" lon="1.99283">
        <ele>191.82</ele>
        <time>2019-07-07T11:57:24Z</time>
      </trkpt>
      <trkpt lat="49.1556" lon="1.99271">
        <ele>191.13</ele>
        <time>2019-07-07T11:57:44Z</time>
      </trkpt>
      <trkpt lat="49.15538" lon="1.99257">
        <ele>190.95</ele>
        <time>2019-07-07T11:58:06Z</time>
      </trkpt>
      <trkpt lat="49.15524" lon="1.99243">
        <ele>189.86</ele>
        <time>2019-07-07T11:58:22Z</time>
      </trkpt>
      <trkpt lat="49.15522" lon="1.99241">
        <ele>189.6</ele>
        <time>2019-07-07T11:58:24Z</time>
      </trkpt>
      <trkpt lat="49.15501" lon="1.99226">
        <ele>188.12</ele>
        <time>2019-07-07T11:58:45Z</time>
      </trkpt>
      <trkpt lat="49.15493" lon="1.99219">
        <ele>188.11</ele>
        <time>2019-07-07T11:58:56Z</time>
      </trkpt>
      <trkpt lat="49.1549" lon="1.99218">
        <ele>188.01</ele>
        <time>2019-07-07T11:58:59Z</time>
      </trkpt>
      <trkpt lat="49.15479" lon="1.99209">
        <ele>188.29</ele>
        <time>2019-07-07T11:59:10Z</time>
      </trkpt>
      <trkpt lat="49.15452" lon="1.99186">
        <ele>187.63</ele>
        <time>2019-07-07T11:59:31Z</time>
      </trkpt>
      <trkpt lat="49.15428" lon="1.9917">
        <ele>186.06</ele>
        <time>2019-07-07T11:59:52Z</time>
      </trkpt>
      <trkpt lat="49.15425" lon="1.99169">
        <ele>185.86</ele>
        <time>2019-07-07T11:59:55Z</time>
      </trkpt>
      <trkpt lat="49.15421" lon="1.99168">
        <ele>185.4</ele>
        <time>2019-07-07T11:59:59Z</time>
      </trkpt>
      <trkpt lat="49.15395" lon="1.99141">
        <ele>183.77</ele>
        <time>2019-07-07T12:00:17Z</time>
      </trkpt>
      <trkpt lat="49.15379" lon="1.99127">
        <ele>181.25</ele>
        <time>2019-07-07T12:00:34Z</time>
      </trkpt>
      <trkpt lat="49.15357" lon="1.99103">
        <ele>179.99</ele>
        <time>2019-07-07T12:00:55Z</time>
      </trkpt>
      <trkpt lat="49.15354" lon="1.991">
        <ele>178.3</ele>
        <time>2019-07-07T12:00:58Z</time>
      </trkpt>
      <trkpt lat="49.15337" lon="1.9909">
        <ele>176.14</ele>
        <time>2019-07-07T12:01:19Z</time>
      </trkpt>
      <trkpt lat="49.15312" lon="1.99073">
        <ele>174.64</ele>
        <time>2019-07-07T12:01:40Z</time>
      </trkpt>
      <trkpt lat="49.15292" lon="1.99054">
        <ele>171.28</ele>
        <time>2019-07-07T12:01:57Z</time>
      </trkpt>
      <trkpt lat="49.15277" lon="1.99044">
        <ele>169.33</ele>
        <time>2019-07-07T12:02:16Z</time>
      </trkpt>
      <trkpt lat="49.15262" lon="1.99031">
        <ele>167.46</ele>
        <time>2019-07-07T12:02:33Z</time>
      </trkpt>
      <trkpt lat="49.15252" lon="1.9902">
        <ele>165.23</ele>
        <time>2019-07-07T12:02:52Z</time>
      </trkpt>
      <trkpt lat="49.15237" lon="1.99009">
        <ele>162</ele>
        <time>2019-07-07T12:03:11Z</time>
      </trkpt>
      <trkpt lat="49.15225" lon="1.99002">
        <ele>160.14</ele>
        <time>2019-07-07T12:03:28Z</time>
      </trkpt>
      <trkpt lat="49.1522" lon="1.98999">
        <ele>160.22</ele>
        <time>2019-07-07T12:03:33Z</time>
      </trkpt>
      <trkpt lat="49.15208" lon="1.98995">
        <ele>159.8</ele>
        <time>2019-07-07T12:03:44Z</time>
      </trkpt>
      <trkpt lat="49.15187" lon="1.98999">
        <ele>159.26</ele>
        <time>2019-07-07T12:04:01Z</time>
      </trkpt>
      <trkpt lat="49.15165" lon="1.99">
        <ele>159.61</ele>
        <time>2019-07-07T12:04:17Z</time>
      </trkpt>
      <trkpt lat="49.15152" lon="1.98977">
        <ele>158.41</ele>
        <time>2019-07-07T12:04:37Z</time>
      </trkpt>
      <trkpt lat="49.15143" lon="1.98965">
        <ele>157.17</ele>
        <time>2019-07-07T12:04:52Z</time>
      </trkpt>
      <trkpt lat="49.15141" lon="1.98961">
        <ele>156.58</ele>
        <time>2019-07-07T12:05:16Z</time>
      </trkpt>
      <trkpt lat="49.15136" lon="1.98953">
        <ele>156.25</ele>
        <time>2019-07-07T12:05:37Z</time>
      </trkpt>
      <trkpt lat="49.15123" lon="1.98937">
        <ele>153.47</ele>
        <time>2019-07-07T12:05:53Z</time>
      </trkpt>
      <trkpt lat="49.15119" lon="1.98929">
        <ele>152.4</ele>
        <time>2019-07-07T12:05:59Z</time>
      </trkpt>
      <trkpt lat="49.15104" lon="1.98936">
        <ele>151.12</ele>
        <time>2019-07-07T12:06:13Z</time>
      </trkpt>
      <trkpt lat="49.15091" lon="1.9894">
        <ele>151.5</ele>
        <time>2019-07-07T12:06:24Z</time>
      </trkpt>
      <trkpt lat="49.15089" lon="1.98941">
        <ele>150.75</ele>
        <time>2019-07-07T12:06:27Z</time>
      </trkpt>
      <trkpt lat="49.15086" lon="1.98944">
        <ele>150.77</ele>
        <time>2019-07-07T12:06:30Z</time>
      </trkpt>
      <trkpt lat="49.1508" lon="1.98949">
        <ele>150.7</ele>
        <time>2019-07-07T12:06:36Z</time>
      </trkpt>
      <trkpt lat="49.15064" lon="1.98946">
        <ele>150.13</ele>
        <time>2019-07-07T12:06:51Z</time>
      </trkpt>
      <trkpt lat="49.15044" lon="1.98952">
        <ele>150.35</ele>
        <time>2019-07-07T12:07:06Z</time>
      </trkpt>
      <trkpt lat="49.15028" lon="1.98955">
        <ele>150.55</ele>
        <time>2019-07-07T12:07:21Z</time>
      </trkpt>
      <trkpt lat="49.15017" lon="1.9895">
        <ele>151.12</ele>
        <time>2019-07-07T12:07:35Z</time>
      </trkpt>
      <trkpt lat="49.15004" lon="1.98947">
        <ele>152.22</ele>
        <time>2019-07-07T12:07:50Z</time>
      </trkpt>
      <trkpt lat="49.14993" lon="1.98944">
        <ele>153</ele>
        <time>2019-07-07T12:08:05Z</time>
      </trkpt>
      <trkpt lat="49.14978" lon="1.98937">
        <ele>153.89</ele>
        <time>2019-07-07T12:08:18Z</time>
      </trkpt>
      <trkpt lat="49.14972" lon="1.98935">
        <ele>153.16</ele>
        <time>2019-07-07T12:08:34Z</time>
      </trkpt>
      <trkpt lat="49.14964" lon="1.9893">
        <ele>152.43</ele>
        <time>2019-07-07T12:08:44Z</time>
      </trkpt>
      <trkpt lat="49.14951" lon="1.98932">
        <ele>152.11</ele>
        <time>2019-07-07T12:08:55Z</time>
      </trkpt>
      <trkpt lat="49.14936" lon="1.98928">
        <ele>151.67</ele>
        <time>2019-07-07T12:09:09Z</time>
      </trkpt>
      <trkpt lat="49.1493" lon="1.98922">
        <ele>151.06</ele>
        <time>2019-07-07T12:09:15Z</time>
      </trkpt>
      <trkpt lat="49.14928" lon="1.98916">
        <ele>151.29</ele>
        <time>2019-07-07T12:09:33Z</time>
      </trkpt>
      <trkpt lat="49.14928" lon="1.98915">
        <ele>150.93</ele>
        <time>2019-07-07T12:09:56Z</time>
      </trkpt>
      <trkpt lat="49.14929" lon="1.98913">
        <ele>151.31</ele>
        <time>2019-07-07T12:10:14Z</time>
      </trkpt>
      <trkpt lat="49.14929" lon="1.98912">
        <ele>151.44</ele>
        <time>2019-07-07T12:10:41Z</time>
      </trkpt>
      <trkpt lat="49.14929" lon="1.9891">
        <ele>151.15</ele>
        <time>2019-07-07T12:10:58Z</time>
      </trkpt>
      <trkpt lat="49.1493" lon="1.98911">
        <ele>151.23</ele>
        <time>2019-07-07T12:11:20Z</time>
      </trkpt>
      <trkpt lat="49.14931" lon="1.98909">
        <ele>151.28</ele>
        <time>2019-07-07T12:11:23Z</time>
      </trkpt>
      <trkpt lat="49.14932" lon="1.98898">
        <ele>149.61</ele>
        <time>2019-07-07T12:11:33Z</time>
      </trkpt>
      <trkpt lat="49.14923" lon="1.98886">
        <ele>147.71</ele>
        <time>2019-07-07T12:11:44Z</time>
      </trkpt>
      <trkpt lat="49.14921" lon="1.98883">
        <ele>147.4</ele>
        <time>2019-07-07T12:12:00Z</time>
      </trkpt>
      <trkpt lat="49.14918" lon="1.98881">
        <ele>146.95</ele>
        <time>2019-07-07T12:12:22Z</time>
      </trkpt>
      <trkpt lat="49.14918" lon="1.98879">
        <ele>147.17</ele>
        <time>2019-07-07T12:12:24Z</time>
      </trkpt>
      <trkpt lat="49.14914" lon="1.98874">
        <ele>146.62</ele>
        <time>2019-07-07T12:12:28Z</time>
      </trkpt>
      <trkpt lat="49.14903" lon="1.98863">
        <ele>144.18</ele>
        <time>2019-07-07T12:12:43Z</time>
      </trkpt>
      <trkpt lat="49.14899" lon="1.9886">
        <ele>143.77</ele>
        <time>2019-07-07T12:12:54Z</time>
      </trkpt>
      <trkpt lat="49.14895" lon="1.98856">
        <ele>142.66</ele>
        <time>2019-07-07T12:12:59Z</time>
      </trkpt>
      <trkpt lat="49.14882" lon="1.98842">
        <ele>140.35</ele>
        <time>2019-07-07T12:13:12Z</time>
      </trkpt>
      <trkpt lat="49.14868" lon="1.98828">
        <ele>138.95</ele>
        <time>2019-07-07T12:13:26Z</time>
      </trkpt>
      <trkpt lat="49.1486" lon="1.98822">
        <ele>137.62</ele>
        <time>2019-07-07T12:13:38Z</time>
      </trkpt>
      <trkpt lat="49.14841" lon="1.98805">
        <ele>135.94</ele>
        <time>2019-07-07T12:13:58Z</time>
      </trkpt>
      <trkpt lat="49.14835" lon="1.98799">
        <ele>136.13</ele>
        <time>2019-07-07T12:14:03Z</time>
      </trkpt>
      <trkpt lat="49.1482" lon="1.98792">
        <ele>135.19</ele>
        <time>2019-07-07T12:14:17Z</time>
      </trkpt>
      <trkpt lat="49.14801" lon="1.98779">
        <ele>132.44</ele>
        <time>2019-07-07T12:14:34Z</time>
      </trkpt>
      <trkpt lat="49.14791" lon="1.98772">
        <ele>131.26</ele>
        <time>2019-07-07T12:14:43Z</time>
      </trkpt>
      <trkpt lat="49.14775" lon="1.98761">
        <ele>131</ele>
        <time>2019-07-07T12:14:56Z</time>
      </trkpt>
      <trkpt lat="49.14756" lon="1.98748">
        <ele>129.58</ele>
        <time>2019-07-07T12:15:13Z</time>
      </trkpt>
      <trkpt lat="49.1475" lon="1.98746">
        <ele>129.25</ele>
        <time>2019-07-07T12:15:19Z</time>
      </trkpt>
      <trkpt lat="49.14735" lon="1.98734">
        <ele>128.8</ele>
        <time>2019-07-07T12:15:34Z</time>
      </trkpt>
      <trkpt lat="49.14733" lon="1.98731">
        <ele>128.72</ele>
        <time>2019-07-07T12:15:37Z</time>
      </trkpt>
      <trkpt lat="49.14728" lon="1.98727">
        <ele>128.25</ele>
        <time>2019-07-07T12:15:42Z</time>
      </trkpt>
      <trkpt lat="49.14717" lon="1.98719">
        <ele>127.72</ele>
        <time>2019-07-07T12:16:03Z</time>
      </trkpt>
      <trkpt lat="49.14715" lon="1.98719">
        <ele>127.09</ele>
        <time>2019-07-07T12:18:33Z</time>
      </trkpt>
      <trkpt lat="49.1471" lon="1.98713">
        <ele>126.62</ele>
        <time>2019-07-07T12:18:52Z</time>
      </trkpt>
      <trkpt lat="49.14696" lon="1.98698">
        <ele>125.12</ele>
        <time>2019-07-07T12:19:08Z</time>
      </trkpt>
      <trkpt lat="49.14679" lon="1.98679">
        <ele>123.4</ele>
        <time>2019-07-07T12:19:25Z</time>
      </trkpt>
      <trkpt lat="49.14666" lon="1.98666">
        <ele>123.07</ele>
        <time>2019-07-07T12:19:44Z</time>
      </trkpt>
      <trkpt lat="49.14651" lon="1.98648">
        <ele>121.79</ele>
        <time>2019-07-07T12:20:01Z</time>
      </trkpt>
      <trkpt lat="49.14649" lon="1.98647">
        <ele>121.7</ele>
        <time>2019-07-07T12:20:37Z</time>
      </trkpt>
      <trkpt lat="49.14645" lon="1.98641">
        <ele>121.41</ele>
        <time>2019-07-07T12:20:41Z</time>
      </trkpt>
      <trkpt lat="49.14642" lon="1.98637">
        <ele>121.34</ele>
        <time>2019-07-07T12:20:48Z</time>
      </trkpt>
      <trkpt lat="49.14638" lon="1.98626">
        <ele>120.76</ele>
        <time>2019-07-07T12:20:56Z</time>
      </trkpt>
      <trkpt lat="49.14633" lon="1.98614">
        <ele>119.74</ele>
        <time>2019-07-07T12:21:03Z</time>
      </trkpt>
      <trkpt lat="49.14627" lon="1.98596">
        <ele>119.7</ele>
        <time>2019-07-07T12:21:18Z</time>
      </trkpt>
      <trkpt lat="49.14617" lon="1.98572">
        <ele>119.64</ele>
        <time>2019-07-07T12:21:33Z</time>
      </trkpt>
      <trkpt lat="49.14611" lon="1.98559">
        <ele>118.66</ele>
        <time>2019-07-07T12:21:45Z</time>
      </trkpt>
      <trkpt lat="49.14608" lon="1.98548">
        <ele>118.33</ele>
        <time>2019-07-07T12:21:53Z</time>
      </trkpt>
      <trkpt lat="49.14597" lon="1.98527">
        <ele>117.5</ele>
        <time>2019-07-07T12:22:13Z</time>
      </trkpt>
      <trkpt lat="49.1459" lon="1.98505">
        <ele>117.05</ele>
        <time>2019-07-07T12:22:30Z</time>
      </trkpt>
      <trkpt lat="49.14586" lon="1.98493">
        <ele>116.72</ele>
        <time>2019-07-07T12:22:33Z</time>
      </trkpt>
      <trkpt lat="49.14578" lon="1.98488">
        <ele>116.47</ele>
        <time>2019-07-07T12:22:38Z</time>
      </trkpt>
      <trkpt lat="49.14581" lon="1.98475">
        <ele>116.83</ele>
        <time>2019-07-07T12:22:44Z</time>
      </trkpt>
      <trkpt lat="49.14577" lon="1.98461">
        <ele>115.86</ele>
        <time>2019-07-07T12:23:01Z</time>
      </trkpt>
      <trkpt lat="49.14579" lon="1.98457">
        <ele>116.16</ele>
        <time>2019-07-07T12:23:04Z</time>
      </trkpt>
      <trkpt lat="49.1459" lon="1.98439">
        <ele>115.88</ele>
        <time>2019-07-07T12:23:18Z</time>
      </trkpt>
      <trkpt lat="49.14595" lon="1.9842">
        <ele>114.59</ele>
        <time>2019-07-07T12:23:30Z</time>
      </trkpt>
      <trkpt lat="49.14599" lon="1.98413">
        <ele>114.08</ele>
        <time>2019-07-07T12:23:36Z</time>
      </trkpt>
      <trkpt lat="49.146" lon="1.98408">
        <ele>114.42</ele>
        <time>2019-07-07T12:23:39Z</time>
      </trkpt>
      <trkpt lat="49.14603" lon="1.984">
        <ele>114.16</ele>
        <time>2019-07-07T12:23:44Z</time>
      </trkpt>
      <trkpt lat="49.14615" lon="1.98378">
        <ele>113.85</ele>
        <time>2019-07-07T12:23:59Z</time>
      </trkpt>
      <trkpt lat="49.14619" lon="1.98352">
        <ele>113.73</ele>
        <time>2019-07-07T12:24:14Z</time>
      </trkpt>
      <trkpt lat="49.14611" lon="1.98338">
        <ele>113.36</ele>
        <time>2019-07-07T12:24:26Z</time>
      </trkpt>
      <trkpt lat="49.14609" lon="1.98335">
        <ele>113.15</ele>
        <time>2019-07-07T12:24:29Z</time>
      </trkpt>
      <trkpt lat="49.14598" lon="1.98319">
        <ele>112.89</ele>
        <time>2019-07-07T12:24:47Z</time>
      </trkpt>
      <trkpt lat="49.14592" lon="1.98306">
        <ele>112.88</ele>
        <time>2019-07-07T12:24:56Z</time>
      </trkpt>
      <trkpt lat="49.14575" lon="1.98289">
        <ele>113.36</ele>
        <time>2019-07-07T12:25:14Z</time>
      </trkpt>
      <trkpt lat="49.14574" lon="1.98292">
        <ele>112.95</ele>
        <time>2019-07-07T12:25:34Z</time>
      </trkpt>
      <trkpt lat="49.14575" lon="1.98291">
        <ele>113.06</ele>
        <time>2019-07-07T12:25:54Z</time>
      </trkpt>
      <trkpt lat="49.14576" lon="1.98291">
        <ele>112.97</ele>
        <time>2019-07-07T12:26:29Z</time>
      </trkpt>
      <trkpt lat="49.14572" lon="1.98285">
        <ele>113.27</ele>
        <time>2019-07-07T12:26:47Z</time>
      </trkpt>
      <trkpt lat="49.1456" lon="1.98276">
        <ele>113.11</ele>
        <time>2019-07-07T12:27:01Z</time>
      </trkpt>
      <trkpt lat="49.14551" lon="1.98272">
        <ele>113.17</ele>
        <time>2019-07-07T12:27:13Z</time>
      </trkpt>
      <trkpt lat="49.14549" lon="1.98271">
        <ele>113.35</ele>
        <time>2019-07-07T12:27:16Z</time>
      </trkpt>
      <trkpt lat="49.14541" lon="1.98264">
        <ele>113.81</ele>
        <time>2019-07-07T12:27:31Z</time>
      </trkpt>
      <trkpt lat="49.14536" lon="1.98276">
        <ele>114.03</ele>
        <time>2019-07-07T12:27:50Z</time>
      </trkpt>
      <trkpt lat="49.14532" lon="1.98277">
        <ele>114.6</ele>
        <time>2019-07-07T12:28:08Z</time>
      </trkpt>
      <trkpt lat="49.14532" lon="1.98282">
        <ele>114.67</ele>
        <time>2019-07-07T12:28:26Z</time>
      </trkpt>
      <trkpt lat="49.14532" lon="1.98284">
        <ele>114.63</ele>
        <time>2019-07-07T12:28:36Z</time>
      </trkpt>
      <trkpt lat="49.14541" lon="1.98281">
        <ele>114.96</ele>
        <time>2019-07-07T12:29:22Z</time>
      </trkpt>
      <trkpt lat="49.14545" lon="1.98285">
        <ele>114.94</ele>
        <time>2019-07-07T12:29:56Z</time>
      </trkpt>
      <trkpt lat="49.14542" lon="1.98287">
        <ele>114.63</ele>
        <time>2019-07-07T12:29:58Z</time>
      </trkpt>
      <trkpt lat="49.1454" lon="1.98287">
        <ele>115.04</ele>
        <time>2019-07-07T12:30:01Z</time>
      </trkpt>
      <trkpt lat="49.1454" lon="1.98288">
        <ele>115.14</ele>
        <time>2019-07-07T12:30:06Z</time>
      </trkpt>
      <trkpt lat="49.1454" lon="1.98287">
        <ele>114.6</ele>
        <time>2019-07-07T12:30:08Z</time>
      </trkpt>
      <trkpt lat="49.14538" lon="1.98273">
        <ele>114.13</ele>
        <time>2019-07-07T12:30:24Z</time>
      </trkpt>
      <trkpt lat="49.14538" lon="1.9826">
        <ele>113.74</ele>
        <time>2019-07-07T12:30:42Z</time>
      </trkpt>
      <trkpt lat="49.14539" lon="1.98262">
        <ele>114.32</ele>
        <time>2019-07-07T12:31:03Z</time>
      </trkpt>
      <trkpt lat="49.14538" lon="1.98266">
        <ele>114.03</ele>
        <time>2019-07-07T12:31:25Z</time>
      </trkpt>
      <trkpt lat="49.14542" lon="1.98267">
        <ele>112.8</ele>
        <time>2019-07-07T12:31:37Z</time>
      </trkpt>
      <trkpt lat="49.14551" lon="1.9826">
        <ele>112.78</ele>
        <time>2019-07-07T12:31:49Z</time>
      </trkpt>
      <trkpt lat="49.14558" lon="1.98248">
        <ele>112.07</ele>
        <time>2019-07-07T12:32:01Z</time>
      </trkpt>
      <trkpt lat="49.14559" lon="1.98245">
        <ele>111.83</ele>
        <time>2019-07-07T12:32:03Z</time>
      </trkpt>
      <trkpt lat="49.14559" lon="1.98237">
        <ele>111.87</ele>
        <time>2019-07-07T12:32:09Z</time>
      </trkpt>
      <trkpt lat="49.14554" lon="1.98217">
        <ele>110.75</ele>
        <time>2019-07-07T12:32:23Z</time>
      </trkpt>
      <trkpt lat="49.14539" lon="1.98201">
        <ele>110.22</ele>
        <time>2019-07-07T12:32:40Z</time>
      </trkpt>
      <trkpt lat="49.14528" lon="1.98188">
        <ele>109.9</ele>
        <time>2019-07-07T12:32:52Z</time>
      </trkpt>
      <trkpt lat="49.14513" lon="1.98177">
        <ele>110.23</ele>
        <time>2019-07-07T12:33:08Z</time>
      </trkpt>
      <trkpt lat="49.14505" lon="1.98169">
        <ele>109.93</ele>
        <time>2019-07-07T12:33:20Z</time>
      </trkpt>
      <trkpt lat="49.14512" lon="1.98144">
        <ele>108.91</ele>
        <time>2019-07-07T12:33:36Z</time>
      </trkpt>
      <trkpt lat="49.14514" lon="1.98141">
        <ele>109.2</ele>
        <time>2019-07-07T12:33:39Z</time>
      </trkpt>
      <trkpt lat="49.14515" lon="1.98133">
        <ele>108.66</ele>
        <time>2019-07-07T12:33:44Z</time>
      </trkpt>
      <trkpt lat="49.1452" lon="1.98122">
        <ele>108</ele>
        <time>2019-07-07T12:33:53Z</time>
      </trkpt>
      <trkpt lat="49.14525" lon="1.98113">
        <ele>107.93</ele>
        <time>2019-07-07T12:34:01Z</time>
      </trkpt>
      <trkpt lat="49.1453" lon="1.98105">
        <ele>106.94</ele>
        <time>2019-07-07T12:34:09Z</time>
      </trkpt>
      <trkpt lat="49.14533" lon="1.98084">
        <ele>107.04</ele>
        <time>2019-07-07T12:34:24Z</time>
      </trkpt>
      <trkpt lat="49.14544" lon="1.98072">
        <ele>107.51</ele>
        <time>2019-07-07T12:34:39Z</time>
      </trkpt>
      <trkpt lat="49.1455" lon="1.98061">
        <ele>106.59</ele>
        <time>2019-07-07T12:34:55Z</time>
      </trkpt>
      <trkpt lat="49.14552" lon="1.98063">
        <ele>107.04</ele>
        <time>2019-07-07T12:35:16Z</time>
      </trkpt>
      <trkpt lat="49.14553" lon="1.98061">
        <ele>106.18</ele>
        <time>2019-07-07T12:35:37Z</time>
      </trkpt>
      <trkpt lat="49.14555" lon="1.98046">
        <ele>106.04</ele>
        <time>2019-07-07T12:35:49Z</time>
      </trkpt>
      <trkpt lat="49.14549" lon="1.98023">
        <ele>105.08</ele>
        <time>2019-07-07T12:36:06Z</time>
      </trkpt>
      <trkpt lat="49.14551" lon="1.98015">
        <ele>105.01</ele>
        <time>2019-07-07T12:36:11Z</time>
      </trkpt>
      <trkpt lat="49.14554" lon="1.98003">
        <ele>105.35</ele>
        <time>2019-07-07T12:36:18Z</time>
      </trkpt>
      <trkpt lat="49.14556" lon="1.97996">
        <ele>105.36</ele>
        <time>2019-07-07T12:36:22Z</time>
      </trkpt>
      <trkpt lat="49.1456" lon="1.97976">
        <ele>104.94</ele>
        <time>2019-07-07T12:36:33Z</time>
      </trkpt>
      <trkpt lat="49.14568" lon="1.97951">
        <ele>104.85</ele>
        <time>2019-07-07T12:36:49Z</time>
      </trkpt>
      <trkpt lat="49.14575" lon="1.97931">
        <ele>105.2</ele>
        <time>2019-07-07T12:37:02Z</time>
      </trkpt>
      <trkpt lat="49.14579" lon="1.97913">
        <ele>105.01</ele>
        <time>2019-07-07T12:37:14Z</time>
      </trkpt>
      <trkpt lat="49.14586" lon="1.97893">
        <ele>105.7</ele>
        <time>2019-07-07T12:37:27Z</time>
      </trkpt>
      <trkpt lat="49.14585" lon="1.97887">
        <ele>105.28</ele>
        <time>2019-07-07T12:37:30Z</time>
      </trkpt>
      <trkpt lat="49.14579" lon="1.97869">
        <ele>104.66</ele>
        <time>2019-07-07T12:37:44Z</time>
      </trkpt>
      <trkpt lat="49.14568" lon="1.9784">
        <ele>104.53</ele>
        <time>2019-07-07T12:38:01Z</time>
      </trkpt>
      <trkpt lat="49.14559" lon="1.97821">
        <ele>104.28</ele>
        <time>2019-07-07T12:38:14Z</time>
      </trkpt>
      <trkpt lat="49.14555" lon="1.97817">
        <ele>103.85</ele>
        <time>2019-07-07T12:38:18Z</time>
      </trkpt>
      <trkpt lat="49.14553" lon="1.97817">
        <ele>103.74</ele>
        <time>2019-07-07T12:38:20Z</time>
      </trkpt>
      <trkpt lat="49.14545" lon="1.97824">
        <ele>103.88</ele>
        <time>2019-07-07T12:38:29Z</time>
      </trkpt>
      <trkpt lat="49.14538" lon="1.97816">
        <ele>103.4</ele>
        <time>2019-07-07T12:38:45Z</time>
      </trkpt>
      <trkpt lat="49.14541" lon="1.97807">
        <ele>103.46</ele>
        <time>2019-07-07T12:38:56Z</time>
      </trkpt>
      <trkpt lat="49.14544" lon="1.97798">
        <ele>103.67</ele>
        <time>2019-07-07T12:39:09Z</time>
      </trkpt>
      <trkpt lat="49.1455" lon="1.97784">
        <ele>104.03</ele>
        <time>2019-07-07T12:39:22Z</time>
      </trkpt>
      <trkpt lat="49.14549" lon="1.9777">
        <ele>103.75</ele>
        <time>2019-07-07T12:39:36Z</time>
      </trkpt>
      <trkpt lat="49.1455" lon="1.97735">
        <ele>104.23</ele>
        <time>2019-07-07T12:40:00Z</time>
      </trkpt>
      <trkpt lat="49.14552" lon="1.97707">
        <ele>103.72</ele>
        <time>2019-07-07T12:40:19Z</time>
      </trkpt>
      <trkpt lat="49.14551" lon="1.97697">
        <ele>103.81</ele>
        <time>2019-07-07T12:40:25Z</time>
      </trkpt>
      <trkpt lat="49.14538" lon="1.97689">
        <ele>103.41</ele>
        <time>2019-07-07T12:40:35Z</time>
      </trkpt>
      <trkpt lat="49.14525" lon="1.97681">
        <ele>102.8</ele>
        <time>2019-07-07T12:40:46Z</time>
      </trkpt>
      <trkpt lat="49.14521" lon="1.97676">
        <ele>102.82</ele>
        <time>2019-07-07T12:40:51Z</time>
      </trkpt>
      <trkpt lat="49.14513" lon="1.97672">
        <ele>102.32</ele>
        <time>2019-07-07T12:41:00Z</time>
      </trkpt>
      <trkpt lat="49.14506" lon="1.97667">
        <ele>102.13</ele>
        <time>2019-07-07T12:41:07Z</time>
      </trkpt>
      <trkpt lat="49.14501" lon="1.97665">
        <ele>102.04</ele>
        <time>2019-07-07T12:41:12Z</time>
      </trkpt>
      <trkpt lat="49.14494" lon="1.97669">
        <ele>101.85</ele>
        <time>2019-07-07T12:41:24Z</time>
      </trkpt>
      <trkpt lat="49.14492" lon="1.9767">
        <ele>101.55</ele>
        <time>2019-07-07T12:41:46Z</time>
      </trkpt>
      <trkpt lat="49.14495" lon="1.97668">
        <ele>102.17</ele>
        <time>2019-07-07T12:42:06Z</time>
      </trkpt>
      <trkpt lat="49.14503" lon="1.97666">
        <ele>102.27</ele>
        <time>2019-07-07T12:42:33Z</time>
      </trkpt>
      <trkpt lat="49.14506" lon="1.97664">
        <ele>101.53</ele>
        <time>2019-07-07T12:42:36Z</time>
      </trkpt>
      <trkpt lat="49.14518" lon="1.97657">
        <ele>101.91</ele>
        <time>2019-07-07T12:42:51Z</time>
      </trkpt>
      <trkpt lat="49.14523" lon="1.97657">
        <ele>102.05</ele>
        <time>2019-07-07T12:42:56Z</time>
      </trkpt>
      <trkpt lat="49.14539" lon="1.97659">
        <ele>102.54</ele>
        <time>2019-07-07T12:43:10Z</time>
      </trkpt>
      <trkpt lat="49.14542" lon="1.97659">
        <ele>102.42</ele>
        <time>2019-07-07T12:43:15Z</time>
      </trkpt>
      <trkpt lat="49.14545" lon="1.97653">
        <ele>102.3</ele>
        <time>2019-07-07T12:43:19Z</time>
      </trkpt>
      <trkpt lat="49.14545" lon="1.97629">
        <ele>102.34</ele>
        <time>2019-07-07T12:43:33Z</time>
      </trkpt>
      <trkpt lat="49.14543" lon="1.97615">
        <ele>102.68</ele>
        <time>2019-07-07T12:43:41Z</time>
      </trkpt>
      <trkpt lat="49.14545" lon="1.97602">
        <ele>102.38</ele>
        <time>2019-07-07T12:43:52Z</time>
      </trkpt>
      <trkpt lat="49.14547" lon="1.97581">
        <ele>101.66</ele>
        <time>2019-07-07T12:44:07Z</time>
      </trkpt>
      <trkpt lat="49.14546" lon="1.97576">
        <ele>101.26</ele>
        <time>2019-07-07T12:44:11Z</time>
      </trkpt>
      <trkpt lat="49.14544" lon="1.97559">
        <ele>102.06</ele>
        <time>2019-07-07T12:44:24Z</time>
      </trkpt>
      <trkpt lat="49.14544" lon="1.9755">
        <ele>101.18</ele>
        <time>2019-07-07T12:44:29Z</time>
      </trkpt>
      <trkpt lat="49.14543" lon="1.97546">
        <ele>101.19</ele>
        <time>2019-07-07T12:44:31Z</time>
      </trkpt>
      <trkpt lat="49.14542" lon="1.97511">
        <ele>101.05</ele>
        <time>2019-07-07T12:44:48Z</time>
      </trkpt>
      <trkpt lat="49.14542" lon="1.97493">
        <ele>100.77</ele>
        <time>2019-07-07T12:45:03Z</time>
      </trkpt>
      <trkpt lat="49.14543" lon="1.97486">
        <ele>100.56</ele>
        <time>2019-07-07T12:45:08Z</time>
      </trkpt>
      <trkpt lat="49.14545" lon="1.97456">
        <ele>100.12</ele>
        <time>2019-07-07T12:45:26Z</time>
      </trkpt>
      <trkpt lat="49.14545" lon="1.97448">
        <ele>100.02</ele>
        <time>2019-07-07T12:45:37Z</time>
      </trkpt>
      <trkpt lat="49.14545" lon="1.9744">
        <ele>100.09</ele>
        <time>2019-07-07T12:45:52Z</time>
      </trkpt>
      <trkpt lat="49.14552" lon="1.97416">
        <ele>99.09</ele>
        <time>2019-07-07T12:46:08Z</time>
      </trkpt>
      <trkpt lat="49.14556" lon="1.97391">
        <ele>98.66</ele>
        <time>2019-07-07T12:46:23Z</time>
      </trkpt>
      <trkpt lat="49.1456" lon="1.97377">
        <ele>98.19</ele>
        <time>2019-07-07T12:46:32Z</time>
      </trkpt>
      <trkpt lat="49.14561" lon="1.97367">
        <ele>97.78</ele>
        <time>2019-07-07T12:46:38Z</time>
      </trkpt>
      <trkpt lat="49.14565" lon="1.97345">
        <ele>97.46</ele>
        <time>2019-07-07T12:46:53Z</time>
      </trkpt>
      <trkpt lat="49.14567" lon="1.97324">
        <ele>96.38</ele>
        <time>2019-07-07T12:47:07Z</time>
      </trkpt>
      <trkpt lat="49.14567" lon="1.97313">
        <ele>96.26</ele>
        <time>2019-07-07T12:47:14Z</time>
      </trkpt>
      <trkpt lat="49.14575" lon="1.97282">
        <ele>95.19</ele>
        <time>2019-07-07T12:47:31Z</time>
      </trkpt>
      <trkpt lat="49.14577" lon="1.97274">
        <ele>95.24</ele>
        <time>2019-07-07T12:47:36Z</time>
      </trkpt>
      <trkpt lat="49.14581" lon="1.97253">
        <ele>94.52</ele>
        <time>2019-07-07T12:47:50Z</time>
      </trkpt>
      <trkpt lat="49.14585" lon="1.97222">
        <ele>93.89</ele>
        <time>2019-07-07T12:48:07Z</time>
      </trkpt>
      <trkpt lat="49.14584" lon="1.97198">
        <ele>93.3</ele>
        <time>2019-07-07T12:48:20Z</time>
      </trkpt>
      <trkpt lat="49.14585" lon="1.9718">
        <ele>93.31</ele>
        <time>2019-07-07T12:48:32Z</time>
      </trkpt>
      <trkpt lat="49.14584" lon="1.9715">
        <ele>92.45</ele>
        <time>2019-07-07T12:48:50Z</time>
      </trkpt>
      <trkpt lat="49.14582" lon="1.97118">
        <ele>92.44</ele>
        <time>2019-07-07T12:49:08Z</time>
      </trkpt>
      <trkpt lat="49.14583" lon="1.9709">
        <ele>92.35</ele>
        <time>2019-07-07T12:49:24Z</time>
      </trkpt>
      <trkpt lat="49.14584" lon="1.97081">
        <ele>92.36</ele>
        <time>2019-07-07T12:49:30Z</time>
      </trkpt>
      <trkpt lat="49.14585" lon="1.97053">
        <ele>91.98</ele>
        <time>2019-07-07T12:49:46Z</time>
      </trkpt>
      <trkpt lat="49.14584" lon="1.97042">
        <ele>91.71</ele>
        <time>2019-07-07T12:49:50Z</time>
      </trkpt>
      <trkpt lat="49.14581" lon="1.97032">
        <ele>92.23</ele>
        <time>2019-07-07T12:49:55Z</time>
      </trkpt>
      <trkpt lat="49.14579" lon="1.97016">
        <ele>92.06</ele>
        <time>2019-07-07T12:50:02Z</time>
      </trkpt>
      <trkpt lat="49.14578" lon="1.97004">
        <ele>92.03</ele>
        <time>2019-07-07T12:50:08Z</time>
      </trkpt>
      <trkpt lat="49.14576" lon="1.96995">
        <ele>92.4</ele>
        <time>2019-07-07T12:50:13Z</time>
      </trkpt>
      <trkpt lat="49.14575" lon="1.96975">
        <ele>92.4</ele>
        <time>2019-07-07T12:50:24Z</time>
      </trkpt>
      <trkpt lat="49.14573" lon="1.9695">
        <ele>92.38</ele>
        <time>2019-07-07T12:50:39Z</time>
      </trkpt>
      <trkpt lat="49.1457" lon="1.96926">
        <ele>92.56</ele>
        <time>2019-07-07T12:50:54Z</time>
      </trkpt>
      <trkpt lat="49.14568" lon="1.96924">
        <ele>92.43</ele>
        <time>2019-07-07T12:50:56Z</time>
      </trkpt>
      <trkpt lat="49.14566" lon="1.96921">
        <ele>92.21</ele>
        <time>2019-07-07T12:50:59Z</time>
      </trkpt>
      <trkpt lat="49.14563" lon="1.96901">
        <ele>92.55</ele>
        <time>2019-07-07T12:51:13Z</time>
      </trkpt>
      <trkpt lat="49.14563" lon="1.96898">
        <ele>91.9</ele>
        <time>2019-07-07T12:51:15Z</time>
      </trkpt>
      <trkpt lat="49.14564" lon="1.96892">
        <ele>91.91</ele>
        <time>2019-07-07T12:51:19Z</time>
      </trkpt>
      <trkpt lat="49.14562" lon="1.96868">
        <ele>92.16</ele>
        <time>2019-07-07T12:51:34Z</time>
      </trkpt>
      <trkpt lat="49.14564" lon="1.96861">
        <ele>91.99</ele>
        <time>2019-07-07T12:51:39Z</time>
      </trkpt>
      <trkpt lat="49.14565" lon="1.96838">
        <ele>92.21</ele>
        <time>2019-07-07T12:51:52Z</time>
      </trkpt>
      <trkpt lat="49.14565" lon="1.96835">
        <ele>92.19</ele>
        <time>2019-07-07T12:51:54Z</time>
      </trkpt>
      <trkpt lat="49.14566" lon="1.96813">
        <ele>92.25</ele>
        <time>2019-07-07T12:52:05Z</time>
      </trkpt>
      <trkpt lat="49.14567" lon="1.96806">
        <ele>92.36</ele>
        <time>2019-07-07T12:52:09Z</time>
      </trkpt>
      <trkpt lat="49.14569" lon="1.96793">
        <ele>91.86</ele>
        <time>2019-07-07T12:52:25Z</time>
      </trkpt>
      <trkpt lat="49.1457" lon="1.96792">
        <ele>91.41</ele>
        <time>2019-07-07T12:52:26Z</time>
      </trkpt>
      <trkpt lat="49.1458" lon="1.96774">
        <ele>91.49</ele>
        <time>2019-07-07T12:52:41Z</time>
      </trkpt>
      <trkpt lat="49.14582" lon="1.96769">
        <ele>91.27</ele>
        <time>2019-07-07T12:52:44Z</time>
      </trkpt>
      <trkpt lat="49.14584" lon="1.96766">
        <ele>91.51</ele>
        <time>2019-07-07T12:52:47Z</time>
      </trkpt>
      <trkpt lat="49.1459" lon="1.96747">
        <ele>91.07</ele>
        <time>2019-07-07T12:53:00Z</time>
      </trkpt>
      <trkpt lat="49.14594" lon="1.9673">
        <ele>91.16</ele>
        <time>2019-07-07T12:53:14Z</time>
      </trkpt>
      <trkpt lat="49.14602" lon="1.96705">
        <ele>90.62</ele>
        <time>2019-07-07T12:53:29Z</time>
      </trkpt>
      <trkpt lat="49.14611" lon="1.96677">
        <ele>90.62</ele>
        <time>2019-07-07T12:53:47Z</time>
      </trkpt>
      <trkpt lat="49.14616" lon="1.96665">
        <ele>91.11</ele>
        <time>2019-07-07T12:54:01Z</time>
      </trkpt>
      <trkpt lat="49.14617" lon="1.96662">
        <ele>90.58</ele>
        <time>2019-07-07T12:54:03Z</time>
      </trkpt>
      <trkpt lat="49.14619" lon="1.96661">
        <ele>91.2</ele>
        <time>2019-07-07T12:54:06Z</time>
      </trkpt>
      <trkpt lat="49.14622" lon="1.96662">
        <ele>90.7</ele>
        <time>2019-07-07T12:54:23Z</time>
      </trkpt>
      <trkpt lat="49.14622" lon="1.9666">
        <ele>90.71</ele>
        <time>2019-07-07T12:54:45Z</time>
      </trkpt>
      <trkpt lat="49.14619" lon="1.96654">
        <ele>90.61</ele>
        <time>2019-07-07T12:55:03Z</time>
      </trkpt>
      <trkpt lat="49.14616" lon="1.96629">
        <ele>89.56</ele>
        <time>2019-07-07T12:55:17Z</time>
      </trkpt>
      <trkpt lat="49.14615" lon="1.96599">
        <ele>89.58</ele>
        <time>2019-07-07T12:55:35Z</time>
      </trkpt>
      <trkpt lat="49.14615" lon="1.96598">
        <ele>89.96</ele>
        <time>2019-07-07T12:55:39Z</time>
      </trkpt>
      <trkpt lat="49.14616" lon="1.96585">
        <ele>89.68</ele>
        <time>2019-07-07T12:55:47Z</time>
      </trkpt>
      <trkpt lat="49.14619" lon="1.9657">
        <ele>88.81</ele>
        <time>2019-07-07T12:55:59Z</time>
      </trkpt>
      <trkpt lat="49.14619" lon="1.96555">
        <ele>89.27</ele>
        <time>2019-07-07T12:56:14Z</time>
      </trkpt>
      <trkpt lat="49.14621" lon="1.96535">
        <ele>89.34</ele>
        <time>2019-07-07T12:56:28Z</time>
      </trkpt>
      <trkpt lat="49.14623" lon="1.96512">
        <ele>89.22</ele>
        <time>2019-07-07T12:56:44Z</time>
      </trkpt>
      <trkpt lat="49.14621" lon="1.96489">
        <ele>88.22</ele>
        <time>2019-07-07T12:57:00Z</time>
      </trkpt>
      <trkpt lat="49.14622" lon="1.9647">
        <ele>87.57</ele>
        <time>2019-07-07T12:57:13Z</time>
      </trkpt>
      <trkpt lat="49.14623" lon="1.96456">
        <ele>87.35</ele>
        <time>2019-07-07T12:57:29Z</time>
      </trkpt>
      <trkpt lat="49.14623" lon="1.9645">
        <ele>87.22</ele>
        <time>2019-07-07T12:57:36Z</time>
      </trkpt>
      <trkpt lat="49.14623" lon="1.96446">
        <ele>87.52</ele>
        <time>2019-07-07T12:57:38Z</time>
      </trkpt>
      <trkpt lat="49.14623" lon="1.96438">
        <ele>87.21</ele>
        <time>2019-07-07T12:57:44Z</time>
      </trkpt>
      <trkpt lat="49.14631" lon="1.96411">
        <ele>86.73</ele>
        <time>2019-07-07T12:58:34Z</time>
      </trkpt>
      <trkpt lat="49.14629" lon="1.96415">
        <ele>86.87</ele>
        <time>2019-07-07T12:58:51Z</time>
      </trkpt>
      <trkpt lat="49.14624" lon="1.96403">
        <ele>86.95</ele>
        <time>2019-07-07T12:59:16Z</time>
      </trkpt>
      <trkpt lat="49.14619" lon="1.96389">
        <ele>88.45</ele>
        <time>2019-07-07T12:59:28Z</time>
      </trkpt>
      <trkpt lat="49.14608" lon="1.96397">
        <ele>89.18</ele>
        <time>2019-07-07T12:59:42Z</time>
      </trkpt>
      <trkpt lat="49.14588" lon="1.96409">
        <ele>90.86</ele>
        <time>2019-07-07T13:00:02Z</time>
      </trkpt>
      <trkpt lat="49.14582" lon="1.96413">
        <ele>91.74</ele>
        <time>2019-07-07T13:00:11Z</time>
      </trkpt>
      <trkpt lat="49.14568" lon="1.96415">
        <ele>93.01</ele>
        <time>2019-07-07T13:00:27Z</time>
      </trkpt>
      <trkpt lat="49.14557" lon="1.96419">
        <ele>94.3</ele>
        <time>2019-07-07T13:00:40Z</time>
      </trkpt>
      <trkpt lat="49.14539" lon="1.96423">
        <ele>94.64</ele>
        <time>2019-07-07T13:00:56Z</time>
      </trkpt>
      <trkpt lat="49.14527" lon="1.96424">
        <ele>95.1</ele>
        <time>2019-07-07T13:01:11Z</time>
      </trkpt>
      <trkpt lat="49.14524" lon="1.96415">
        <ele>95.14</ele>
        <time>2019-07-07T13:01:24Z</time>
      </trkpt>
      <trkpt lat="49.14524" lon="1.96413">
        <ele>95.26</ele>
        <time>2019-07-07T13:01:45Z</time>
      </trkpt>
      <trkpt lat="49.14524" lon="1.96415">
        <ele>95.33</ele>
        <time>2019-07-07T13:02:16Z</time>
      </trkpt>
      <trkpt lat="49.14525" lon="1.96414">
        <ele>95.53</ele>
        <time>2019-07-07T13:02:39Z</time>
      </trkpt>
      <trkpt lat="49.14525" lon="1.96418">
        <ele>94.73</ele>
        <time>2019-07-07T13:03:14Z</time>
      </trkpt>
      <trkpt lat="49.14526" lon="1.96417">
        <ele>96.14</ele>
        <time>2019-07-07T13:03:19Z</time>
      </trkpt>
      <trkpt lat="49.14524" lon="1.96414">
        <ele>94.97</ele>
        <time>2019-07-07T13:03:42Z</time>
      </trkpt>
      <trkpt lat="49.14524" lon="1.96411">
        <ele>95.61</ele>
        <time>2019-07-07T13:04:15Z</time>
      </trkpt>
      <trkpt lat="49.14524" lon="1.9641">
        <ele>95.32</ele>
        <time>2019-07-07T13:04:17Z</time>
      </trkpt>
      <trkpt lat="49.14524" lon="1.96399">
        <ele>96.11</ele>
        <time>2019-07-07T13:04:25Z</time>
      </trkpt>
      <trkpt lat="49.14525" lon="1.96399">
        <ele>96.06</ele>
        <time>2019-07-07T13:04:28Z</time>
      </trkpt>
      <trkpt lat="49.14525" lon="1.96388">
        <ele>96.39</ele>
        <time>2019-07-07T13:04:35Z</time>
      </trkpt>
      <trkpt lat="49.14522" lon="1.96357">
        <ele>96.4</ele>
        <time>2019-07-07T13:04:53Z</time>
      </trkpt>
      <trkpt lat="49.1452" lon="1.96327">
        <ele>96.66</ele>
        <time>2019-07-07T13:05:11Z</time>
      </trkpt>
      <trkpt lat="49.14519" lon="1.96301">
        <ele>96.98</ele>
        <time>2019-07-07T13:05:25Z</time>
      </trkpt>
      <trkpt lat="49.14518" lon="1.96293">
        <ele>96.86</ele>
        <time>2019-07-07T13:05:31Z</time>
      </trkpt>
      <trkpt lat="49.14515" lon="1.9626">
        <ele>96.43</ele>
        <time>2019-07-07T13:05:50Z</time>
      </trkpt>
      <trkpt lat="49.14512" lon="1.96229">
        <ele>96.52</ele>
        <time>2019-07-07T13:06:07Z</time>
      </trkpt>
      <trkpt lat="49.14511" lon="1.9622">
        <ele>95.83</ele>
        <time>2019-07-07T13:06:12Z</time>
      </trkpt>
      <trkpt lat="49.14508" lon="1.96195">
        <ele>96.21</ele>
        <time>2019-07-07T13:06:27Z</time>
      </trkpt>
      <trkpt lat="49.14503" lon="1.96164">
        <ele>96.81</ele>
        <time>2019-07-07T13:06:44Z</time>
      </trkpt>
      <trkpt lat="49.14502" lon="1.96161">
        <ele>96.7</ele>
        <time>2019-07-07T13:06:46Z</time>
      </trkpt>
      <trkpt lat="49.14495" lon="1.96128">
        <ele>96.16</ele>
        <time>2019-07-07T13:07:05Z</time>
      </trkpt>
      <trkpt lat="49.14488" lon="1.96108">
        <ele>95.92</ele>
        <time>2019-07-07T13:07:17Z</time>
      </trkpt>
      <trkpt lat="49.14475" lon="1.96091">
        <ele>95.81</ele>
        <time>2019-07-07T13:07:32Z</time>
      </trkpt>
      <trkpt lat="49.1446" lon="1.96078">
        <ele>95.45</ele>
        <time>2019-07-07T13:07:48Z</time>
      </trkpt>
      <trkpt lat="49.14446" lon="1.96064">
        <ele>95.4</ele>
        <time>2019-07-07T13:08:03Z</time>
      </trkpt>
      <trkpt lat="49.14427" lon="1.96049">
        <ele>94.74</ele>
        <time>2019-07-07T13:08:22Z</time>
      </trkpt>
      <trkpt lat="49.14413" lon="1.96038">
        <ele>94.2</ele>
        <time>2019-07-07T13:08:37Z</time>
      </trkpt>
      <trkpt lat="49.14405" lon="1.96031">
        <ele>94.55</ele>
        <time>2019-07-07T13:08:46Z</time>
      </trkpt>
      <trkpt lat="49.14398" lon="1.96027">
        <ele>94.32</ele>
        <time>2019-07-07T13:08:53Z</time>
      </trkpt>
      <trkpt lat="49.1438" lon="1.96012">
        <ele>94.18</ele>
        <time>2019-07-07T13:09:12Z</time>
      </trkpt>
      <trkpt lat="49.14372" lon="1.96005">
        <ele>93.86</ele>
        <time>2019-07-07T13:09:23Z</time>
      </trkpt>
      <trkpt lat="49.14367" lon="1.96002">
        <ele>94.09</ele>
        <time>2019-07-07T13:09:27Z</time>
      </trkpt>
      <trkpt lat="49.14352" lon="1.9599">
        <ele>93.94</ele>
        <time>2019-07-07T13:09:43Z</time>
      </trkpt>
      <trkpt lat="49.14336" lon="1.95976">
        <ele>94.54</ele>
        <time>2019-07-07T13:09:59Z</time>
      </trkpt>
      <trkpt lat="49.14318" lon="1.95963">
        <ele>94.53</ele>
        <time>2019-07-07T13:10:16Z</time>
      </trkpt>
      <trkpt lat="49.143" lon="1.9595">
        <ele>94.76</ele>
        <time>2019-07-07T13:10:33Z</time>
      </trkpt>
      <trkpt lat="49.14286" lon="1.95937">
        <ele>95.01</ele>
        <time>2019-07-07T13:10:48Z</time>
      </trkpt>
      <trkpt lat="49.14268" lon="1.95924">
        <ele>95.12</ele>
        <time>2019-07-07T13:11:06Z</time>
      </trkpt>
      <trkpt lat="49.14257" lon="1.95916">
        <ele>95.58</ele>
        <time>2019-07-07T13:11:17Z</time>
      </trkpt>
      <trkpt lat="49.14252" lon="1.95912">
        <ele>95.48</ele>
        <time>2019-07-07T13:11:22Z</time>
      </trkpt>
      <trkpt lat="49.14251" lon="1.9591">
        <ele>95.76</ele>
        <time>2019-07-07T13:11:24Z</time>
      </trkpt>
      <trkpt lat="49.14233" lon="1.95895">
        <ele>94.76</ele>
        <time>2019-07-07T13:11:42Z</time>
      </trkpt>
      <trkpt lat="49.14228" lon="1.95891">
        <ele>95.6</ele>
        <time>2019-07-07T13:11:47Z</time>
      </trkpt>
      <trkpt lat="49.14213" lon="1.95879">
        <ele>94.82</ele>
        <time>2019-07-07T13:12:02Z</time>
      </trkpt>
      <trkpt lat="49.14194" lon="1.95867">
        <ele>95.59</ele>
        <time>2019-07-07T13:12:20Z</time>
      </trkpt>
      <trkpt lat="49.14176" lon="1.95853">
        <ele>95.56</ele>
        <time>2019-07-07T13:12:37Z</time>
      </trkpt>
      <trkpt lat="49.14157" lon="1.95838">
        <ele>96.35</ele>
        <time>2019-07-07T13:12:55Z</time>
      </trkpt>
      <trkpt lat="49.14141" lon="1.95826">
        <ele>96.61</ele>
        <time>2019-07-07T13:13:11Z</time>
      </trkpt>
      <trkpt lat="49.14126" lon="1.95817">
        <ele>96.19</ele>
        <time>2019-07-07T13:13:26Z</time>
      </trkpt>
      <trkpt lat="49.14116" lon="1.95811">
        <ele>96.11</ele>
        <time>2019-07-07T13:13:35Z</time>
      </trkpt>
      <trkpt lat="49.14095" lon="1.95798">
        <ele>96.38</ele>
        <time>2019-07-07T13:13:55Z</time>
      </trkpt>
      <trkpt lat="49.14078" lon="1.95788">
        <ele>96.68</ele>
        <time>2019-07-07T13:14:11Z</time>
      </trkpt>
      <trkpt lat="49.1406" lon="1.95778">
        <ele>96.48</ele>
        <time>2019-07-07T13:14:28Z</time>
      </trkpt>
      <trkpt lat="49.14044" lon="1.9577">
        <ele>97.12</ele>
        <time>2019-07-07T13:14:43Z</time>
      </trkpt>
      <trkpt lat="49.14033" lon="1.95765">
        <ele>97.61</ele>
        <time>2019-07-07T13:14:54Z</time>
      </trkpt>
      <trkpt lat="49.1402" lon="1.9576">
        <ele>97.44</ele>
        <time>2019-07-07T13:15:08Z</time>
      </trkpt>
      <trkpt lat="49.14012" lon="1.95755">
        <ele>97.39</ele>
        <time>2019-07-07T13:15:15Z</time>
      </trkpt>
      <trkpt lat="49.13993" lon="1.95749">
        <ele>97.77</ele>
        <time>2019-07-07T13:15:31Z</time>
      </trkpt>
      <trkpt lat="49.13992" lon="1.95748">
        <ele>97.84</ele>
        <time>2019-07-07T13:15:32Z</time>
      </trkpt>
      <trkpt lat="49.13974" lon="1.95742">
        <ele>98.59</ele>
        <time>2019-07-07T13:15:48Z</time>
      </trkpt>
      <trkpt lat="49.13963" lon="1.95738">
        <ele>98.38</ele>
        <time>2019-07-07T13:15:57Z</time>
      </trkpt>
      <trkpt lat="49.13944" lon="1.95733">
        <ele>98.91</ele>
        <time>2019-07-07T13:16:14Z</time>
      </trkpt>
      <trkpt lat="49.13927" lon="1.95726">
        <ele>99.65</ele>
        <time>2019-07-07T13:16:29Z</time>
      </trkpt>
      <trkpt lat="49.13907" lon="1.95715">
        <ele>100.22</ele>
        <time>2019-07-07T13:16:47Z</time>
      </trkpt>
      <trkpt lat="49.13892" lon="1.95708">
        <ele>100.56</ele>
        <time>2019-07-07T13:17:00Z</time>
      </trkpt>
      <trkpt lat="49.13877" lon="1.95698">
        <ele>100.95</ele>
        <time>2019-07-07T13:17:14Z</time>
      </trkpt>
      <trkpt lat="49.1386" lon="1.95687">
        <ele>101.27</ele>
        <time>2019-07-07T13:17:29Z</time>
      </trkpt>
      <trkpt lat="49.1384" lon="1.95678">
        <ele>101.53</ele>
        <time>2019-07-07T13:17:46Z</time>
      </trkpt>
      <trkpt lat="49.13822" lon="1.95667">
        <ele>102.07</ele>
        <time>2019-07-07T13:18:03Z</time>
      </trkpt>
      <trkpt lat="49.13806" lon="1.95655">
        <ele>102.04</ele>
        <time>2019-07-07T13:18:18Z</time>
      </trkpt>
      <trkpt lat="49.13787" lon="1.95645">
        <ele>102.59</ele>
        <time>2019-07-07T13:18:35Z</time>
      </trkpt>
      <trkpt lat="49.13773" lon="1.95633">
        <ele>102.22</ele>
        <time>2019-07-07T13:18:49Z</time>
      </trkpt>
      <trkpt lat="49.13769" lon="1.9563">
        <ele>102.25</ele>
        <time>2019-07-07T13:18:53Z</time>
      </trkpt>
      <trkpt lat="49.13763" lon="1.95613">
        <ele>102.15</ele>
        <time>2019-07-07T13:19:09Z</time>
      </trkpt>
      <trkpt lat="49.13761" lon="1.95608">
        <ele>102.25</ele>
        <time>2019-07-07T13:19:23Z</time>
      </trkpt>
      <trkpt lat="49.1376" lon="1.95607">
        <ele>101.92</ele>
        <time>2019-07-07T13:20:01Z</time>
      </trkpt>
      <trkpt lat="49.1376" lon="1.95605">
        <ele>102.2</ele>
        <time>2019-07-07T13:20:31Z</time>
      </trkpt>
      <trkpt lat="49.1376" lon="1.956">
        <ele>102.06</ele>
        <time>2019-07-07T13:20:55Z</time>
      </trkpt>
      <trkpt lat="49.1376" lon="1.95597">
        <ele>102.45</ele>
        <time>2019-07-07T13:21:19Z</time>
      </trkpt>
      <trkpt lat="49.1376" lon="1.95587">
        <ele>103.08</ele>
        <time>2019-07-07T13:21:37Z</time>
      </trkpt>
      <trkpt lat="49.1376" lon="1.95572">
        <ele>102.58</ele>
        <time>2019-07-07T13:21:49Z</time>
      </trkpt>
      <trkpt lat="49.1376" lon="1.95548">
        <ele>102.14</ele>
        <time>2019-07-07T13:22:05Z</time>
      </trkpt>
      <trkpt lat="49.13761" lon="1.95519">
        <ele>102.56</ele>
        <time>2019-07-07T13:22:24Z</time>
      </trkpt>
      <trkpt lat="49.13761" lon="1.95516">
        <ele>102.43</ele>
        <time>2019-07-07T13:22:44Z</time>
      </trkpt>
      <trkpt lat="49.13762" lon="1.95506">
        <ele>101.6</ele>
        <time>2019-07-07T13:23:02Z</time>
      </trkpt>
      <trkpt lat="49.13763" lon="1.95501">
        <ele>101.67</ele>
        <time>2019-07-07T13:23:26Z</time>
      </trkpt>
      <trkpt lat="49.13763" lon="1.95499">
        <ele>101.88</ele>
        <time>2019-07-07T13:23:29Z</time>
      </trkpt>
      <trkpt lat="49.13765" lon="1.95476">
        <ele>102</ele>
        <time>2019-07-07T13:23:45Z</time>
      </trkpt>
      <trkpt lat="49.13766" lon="1.95456">
        <ele>101.37</ele>
        <time>2019-07-07T13:23:59Z</time>
      </trkpt>
      <trkpt lat="49.13767" lon="1.95447">
        <ele>101.59</ele>
        <time>2019-07-07T13:24:17Z</time>
      </trkpt>
      <trkpt lat="49.13767" lon="1.95443">
        <ele>102.25</ele>
        <time>2019-07-07T13:24:20Z</time>
      </trkpt>
      <trkpt lat="49.13768" lon="1.95426">
        <ele>101.87</ele>
        <time>2019-07-07T13:24:34Z</time>
      </trkpt>
      <trkpt lat="49.13769" lon="1.95424">
        <ele>101.08</ele>
        <time>2019-07-07T13:24:36Z</time>
      </trkpt>
      <trkpt lat="49.13769" lon="1.95406">
        <ele>101.39</ele>
        <time>2019-07-07T13:24:49Z</time>
      </trkpt>
      <trkpt lat="49.1377" lon="1.95399">
        <ele>102.47</ele>
        <time>2019-07-07T13:24:54Z</time>
      </trkpt>
      <trkpt lat="49.13773" lon="1.95376">
        <ele>102.25</ele>
        <time>2019-07-07T13:25:09Z</time>
      </trkpt>
      <trkpt lat="49.13776" lon="1.95357">
        <ele>101.49</ele>
        <time>2019-07-07T13:25:22Z</time>
      </trkpt>
      <trkpt lat="49.13777" lon="1.95352">
        <ele>102.32</ele>
        <time>2019-07-07T13:25:26Z</time>
      </trkpt>
      <trkpt lat="49.13782" lon="1.95327">
        <ele>101.54</ele>
        <time>2019-07-07T13:25:42Z</time>
      </trkpt>
      <trkpt lat="49.13787" lon="1.95303">
        <ele>101.6</ele>
        <time>2019-07-07T13:25:58Z</time>
      </trkpt>
      <trkpt lat="49.13789" lon="1.95295">
        <ele>102.16</ele>
        <time>2019-07-07T13:26:04Z</time>
      </trkpt>
      <trkpt lat="49.13789" lon="1.95292">
        <ele>102.06</ele>
        <time>2019-07-07T13:26:06Z</time>
      </trkpt>
      <trkpt lat="49.13794" lon="1.9527">
        <ele>102.02</ele>
        <time>2019-07-07T13:26:21Z</time>
      </trkpt>
      <trkpt lat="49.13797" lon="1.95255">
        <ele>102.15</ele>
        <time>2019-07-07T13:26:31Z</time>
      </trkpt>
      <trkpt lat="49.13801" lon="1.95223">
        <ele>101.86</ele>
        <time>2019-07-07T13:26:51Z</time>
      </trkpt>
      <trkpt lat="49.13802" lon="1.95222">
        <ele>101.99</ele>
        <time>2019-07-07T13:26:52Z</time>
      </trkpt>
      <trkpt lat="49.13803" lon="1.95215">
        <ele>101.44</ele>
        <time>2019-07-07T13:26:56Z</time>
      </trkpt>
      <trkpt lat="49.13808" lon="1.95183">
        <ele>101.48</ele>
        <time>2019-07-07T13:27:17Z</time>
      </trkpt>
      <trkpt lat="49.1381" lon="1.95173">
        <ele>101.31</ele>
        <time>2019-07-07T13:27:32Z</time>
      </trkpt>
      <trkpt lat="49.1381" lon="1.95142">
        <ele>101.2</ele>
        <time>2019-07-07T13:27:52Z</time>
      </trkpt>
      <trkpt lat="49.1381" lon="1.95119">
        <ele>101.15</ele>
        <time>2019-07-07T13:28:07Z</time>
      </trkpt>
      <trkpt lat="49.13809" lon="1.951">
        <ele>100.18</ele>
        <time>2019-07-07T13:28:21Z</time>
      </trkpt>
      <trkpt lat="49.13808" lon="1.95095">
        <ele>99.86</ele>
        <time>2019-07-07T13:28:24Z</time>
      </trkpt>
      <trkpt lat="49.13804" lon="1.95073">
        <ele>98.89</ele>
        <time>2019-07-07T13:28:39Z</time>
      </trkpt>
      <trkpt lat="49.138" lon="1.9504">
        <ele>97.38</ele>
        <time>2019-07-07T13:29:02Z</time>
      </trkpt>
      <trkpt lat="49.13797" lon="1.95009">
        <ele>96.1</ele>
        <time>2019-07-07T13:29:21Z</time>
      </trkpt>
      <trkpt lat="49.13795" lon="1.94973">
        <ele>95.22</ele>
        <time>2019-07-07T13:29:42Z</time>
      </trkpt>
      <trkpt lat="49.13796" lon="1.94937">
        <ele>93.37</ele>
        <time>2019-07-07T13:30:07Z</time>
      </trkpt>
      <trkpt lat="49.13799" lon="1.94922">
        <ele>92.67</ele>
        <time>2019-07-07T13:30:15Z</time>
      </trkpt>
      <trkpt lat="49.13793" lon="1.94896">
        <ele>92.1</ele>
        <time>2019-07-07T13:30:35Z</time>
      </trkpt>
      <trkpt lat="49.13793" lon="1.9486">
        <ele>90.93</ele>
        <time>2019-07-07T13:30:57Z</time>
      </trkpt>
      <trkpt lat="49.13793" lon="1.94842">
        <ele>90.22</ele>
        <time>2019-07-07T13:31:07Z</time>
      </trkpt>
      <trkpt lat="49.1379" lon="1.94809">
        <ele>88.33</ele>
        <time>2019-07-07T13:31:25Z</time>
      </trkpt>
      <trkpt lat="49.13791" lon="1.94804">
        <ele>88.03</ele>
        <time>2019-07-07T13:31:27Z</time>
      </trkpt>
      <trkpt lat="49.1379" lon="1.94766">
        <ele>86.26</ele>
        <time>2019-07-07T13:31:45Z</time>
      </trkpt>
      <trkpt lat="49.13788" lon="1.9476">
        <ele>85.27</ele>
        <time>2019-07-07T13:31:49Z</time>
      </trkpt>
      <trkpt lat="49.13788" lon="1.94745">
        <ele>84.19</ele>
        <time>2019-07-07T13:32:02Z</time>
      </trkpt>
      <trkpt lat="49.13792" lon="1.94719">
        <ele>81.07</ele>
        <time>2019-07-07T13:32:19Z</time>
      </trkpt>
      <trkpt lat="49.13798" lon="1.94706">
        <ele>79.79</ele>
        <time>2019-07-07T13:32:29Z</time>
      </trkpt>
      <trkpt lat="49.13813" lon="1.94661">
        <ele>77.05</ele>
        <time>2019-07-07T13:32:45Z</time>
      </trkpt>
      <trkpt lat="49.13823" lon="1.94626">
        <ele>74.73</ele>
        <time>2019-07-07T13:33:02Z</time>
      </trkpt>
      <trkpt lat="49.13826" lon="1.9461">
        <ele>74.11</ele>
        <time>2019-07-07T13:33:09Z</time>
      </trkpt>
      <trkpt lat="49.13825" lon="1.94604">
        <ele>72.65</ele>
        <time>2019-07-07T13:33:13Z</time>
      </trkpt>
      <trkpt lat="49.13818" lon="1.94595">
        <ele>72.72</ele>
        <time>2019-07-07T13:33:21Z</time>
      </trkpt>
      <trkpt lat="49.13804" lon="1.94592">
        <ele>70.19</ele>
        <time>2019-07-07T13:33:38Z</time>
      </trkpt>
      <trkpt lat="49.13788" lon="1.94588">
        <ele>68.76</ele>
        <time>2019-07-07T13:33:54Z</time>
      </trkpt>
      <trkpt lat="49.13779" lon="1.94573">
        <ele>66.13</ele>
        <time>2019-07-07T13:34:12Z</time>
      </trkpt>
      <trkpt lat="49.13782" lon="1.94551">
        <ele>63.27</ele>
        <time>2019-07-07T13:34:27Z</time>
      </trkpt>
      <trkpt lat="49.13782" lon="1.94548">
        <ele>63.23</ele>
        <time>2019-07-07T13:34:29Z</time>
      </trkpt>
      <trkpt lat="49.13785" lon="1.94517">
        <ele>59.19</ele>
        <time>2019-07-07T13:34:47Z</time>
      </trkpt>
      <trkpt lat="49.13786" lon="1.94513">
        <ele>59.5</ele>
        <time>2019-07-07T13:34:51Z</time>
      </trkpt>
      <trkpt lat="49.13784" lon="1.94502">
        <ele>58.21</ele>
        <time>2019-07-07T13:35:20Z</time>
      </trkpt>
      <trkpt lat="49.13788" lon="1.94491">
        <ele>57.66</ele>
        <time>2019-07-07T13:35:36Z</time>
      </trkpt>
      <trkpt lat="49.1379" lon="1.94469">
        <ele>55.4</ele>
        <time>2019-07-07T13:35:55Z</time>
      </trkpt>
      <trkpt lat="49.13788" lon="1.94459">
        <ele>54.93</ele>
        <time>2019-07-07T13:36:01Z</time>
      </trkpt>
      <trkpt lat="49.13788" lon="1.94443">
        <ele>54.14</ele>
        <time>2019-07-07T13:36:11Z</time>
      </trkpt>
      <trkpt lat="49.13789" lon="1.94438">
        <ele>54.12</ele>
        <time>2019-07-07T13:36:13Z</time>
      </trkpt>
      <trkpt lat="49.13781" lon="1.94407">
        <ele>53</ele>
        <time>2019-07-07T13:36:30Z</time>
      </trkpt>
      <trkpt lat="49.13774" lon="1.94383">
        <ele>52.47</ele>
        <time>2019-07-07T13:36:44Z</time>
      </trkpt>
      <trkpt lat="49.13761" lon="1.94346">
        <ele>49.66</ele>
        <time>2019-07-07T13:37:07Z</time>
      </trkpt>
      <trkpt lat="49.13744" lon="1.9433">
        <ele>48.35</ele>
        <time>2019-07-07T13:37:25Z</time>
      </trkpt>
      <trkpt lat="49.1373" lon="1.94315">
        <ele>46.92</ele>
        <time>2019-07-07T13:37:43Z</time>
      </trkpt>
      <trkpt lat="49.1373" lon="1.94314">
        <ele>47.39</ele>
        <time>2019-07-07T13:38:10Z</time>
      </trkpt>
      <trkpt lat="49.13726" lon="1.94317">
        <ele>46.99</ele>
        <time>2019-07-07T13:38:40Z</time>
      </trkpt>
      <trkpt lat="49.13723" lon="1.94316">
        <ele>46.84</ele>
        <time>2019-07-07T13:38:54Z</time>
      </trkpt>
      <trkpt lat="49.13719" lon="1.94315">
        <ele>47</ele>
        <time>2019-07-07T13:39:10Z</time>
      </trkpt>
      <trkpt lat="49.13721" lon="1.94318">
        <ele>46.93</ele>
        <time>2019-07-07T13:39:32Z</time>
      </trkpt>
      <trkpt lat="49.13722" lon="1.94317">
        <ele>47.6</ele>
        <time>2019-07-07T13:39:56Z</time>
      </trkpt>
      <trkpt lat="49.13716" lon="1.94322">
        <ele>46.79</ele>
        <time>2019-07-07T13:40:12Z</time>
      </trkpt>
      <trkpt lat="49.13712" lon="1.94323">
        <ele>46.53</ele>
        <time>2019-07-07T13:40:16Z</time>
      </trkpt>
      <trkpt lat="49.13706" lon="1.94326">
        <ele>46.36</ele>
        <time>2019-07-07T13:40:21Z</time>
      </trkpt>
      <trkpt lat="49.13695" lon="1.94328">
        <ele>46.53</ele>
        <time>2019-07-07T13:40:30Z</time>
      </trkpt>
      <trkpt lat="49.13685" lon="1.94306">
        <ele>45.14</ele>
        <time>2019-07-07T13:40:47Z</time>
      </trkpt>
      <trkpt lat="49.13677" lon="1.94295">
        <ele>44.61</ele>
        <time>2019-07-07T13:41:01Z</time>
      </trkpt>
      <trkpt lat="49.13668" lon="1.9428">
        <ele>43.77</ele>
        <time>2019-07-07T13:41:18Z</time>
      </trkpt>
      <trkpt lat="49.13666" lon="1.94278">
        <ele>43.26</ele>
        <time>2019-07-07T13:41:40Z</time>
      </trkpt>
      <trkpt lat="49.13658" lon="1.94265">
        <ele>42.24</ele>
        <time>2019-07-07T13:42:03Z</time>
      </trkpt>
      <trkpt lat="49.13643" lon="1.94247">
        <ele>41.97</ele>
        <time>2019-07-07T13:42:22Z</time>
      </trkpt>
      <trkpt lat="49.13632" lon="1.94236">
        <ele>41.72</ele>
        <time>2019-07-07T13:42:35Z</time>
      </trkpt>
      <trkpt lat="49.13621" lon="1.94215">
        <ele>40.64</ele>
        <time>2019-07-07T13:42:49Z</time>
      </trkpt>
      <trkpt lat="49.13609" lon="1.94199">
        <ele>41.67</ele>
        <time>2019-07-07T13:43:04Z</time>
      </trkpt>
      <trkpt lat="49.136" lon="1.94182">
        <ele>41.94</ele>
        <time>2019-07-07T13:43:16Z</time>
      </trkpt>
      <trkpt lat="49.13595" lon="1.94174">
        <ele>42.2</ele>
        <time>2019-07-07T13:43:22Z</time>
      </trkpt>
      <trkpt lat="49.13588" lon="1.94158">
        <ele>42.77</ele>
        <time>2019-07-07T13:43:33Z</time>
      </trkpt>
      <trkpt lat="49.13584" lon="1.94138">
        <ele>42.42</ele>
        <time>2019-07-07T13:43:47Z</time>
      </trkpt>
      <trkpt lat="49.13569" lon="1.94105">
        <ele>43.52</ele>
        <time>2019-07-07T13:44:09Z</time>
      </trkpt>
      <trkpt lat="49.13568" lon="1.94101">
        <ele>43.9</ele>
        <time>2019-07-07T13:44:12Z</time>
      </trkpt>
      <trkpt lat="49.13562" lon="1.9409">
        <ele>43.43</ele>
        <time>2019-07-07T13:44:20Z</time>
      </trkpt>
      <trkpt lat="49.13555" lon="1.94058">
        <ele>44.84</ele>
        <time>2019-07-07T13:44:37Z</time>
      </trkpt>
      <trkpt lat="49.13559" lon="1.94034">
        <ele>45.61</ele>
        <time>2019-07-07T13:44:50Z</time>
      </trkpt>
      <trkpt lat="49.13578" lon="1.94015">
        <ele>45.83</ele>
        <time>2019-07-07T13:45:11Z</time>
      </trkpt>
      <trkpt lat="49.13594" lon="1.94004">
        <ele>47.68</ele>
        <time>2019-07-07T13:45:27Z</time>
      </trkpt>
      <trkpt lat="49.13605" lon="1.93992">
        <ele>48.3</ele>
        <time>2019-07-07T13:45:42Z</time>
      </trkpt>
      <trkpt lat="49.13617" lon="1.93969">
        <ele>48.83</ele>
        <time>2019-07-07T13:46:00Z</time>
      </trkpt>
      <trkpt lat="49.1363" lon="1.93942">
        <ele>49.77</ele>
        <time>2019-07-07T13:46:22Z</time>
      </trkpt>
      <trkpt lat="49.13637" lon="1.93932">
        <ele>49.52</ele>
        <time>2019-07-07T13:46:44Z</time>
      </trkpt>
      <trkpt lat="49.13634" lon="1.93932">
        <ele>49.39</ele>
        <time>2019-07-07T13:47:17Z</time>
      </trkpt>
      <trkpt lat="49.13641" lon="1.93921">
        <ele>49</ele>
        <time>2019-07-07T13:47:38Z</time>
      </trkpt>
      <trkpt lat="49.13646" lon="1.93901">
        <ele>48.68</ele>
        <time>2019-07-07T13:47:55Z</time>
      </trkpt>
      <trkpt lat="49.13648" lon="1.93896">
        <ele>48.93</ele>
        <time>2019-07-07T13:48:01Z</time>
      </trkpt>
      <trkpt lat="49.13656" lon="1.93883">
        <ele>47.87</ele>
        <time>2019-07-07T13:48:17Z</time>
      </trkpt>
      <trkpt lat="49.13665" lon="1.93869">
        <ele>47.78</ele>
        <time>2019-07-07T13:48:29Z</time>
      </trkpt>
      <trkpt lat="49.13667" lon="1.93867">
        <ele>47.28</ele>
        <time>2019-07-07T13:48:31Z</time>
      </trkpt>
      <trkpt lat="49.13673" lon="1.93853">
        <ele>46.61</ele>
        <time>2019-07-07T13:48:44Z</time>
      </trkpt>
      <trkpt lat="49.13682" lon="1.93828">
        <ele>45.36</ele>
        <time>2019-07-07T13:48:57Z</time>
      </trkpt>
      <trkpt lat="49.13686" lon="1.93818">
        <ele>44.85</ele>
        <time>2019-07-07T13:49:02Z</time>
      </trkpt>
      <trkpt lat="49.13689" lon="1.93809">
        <ele>44.97</ele>
        <time>2019-07-07T13:49:08Z</time>
      </trkpt>
      <trkpt lat="49.13692" lon="1.93803">
        <ele>44.21</ele>
        <time>2019-07-07T13:49:12Z</time>
      </trkpt>
      <trkpt lat="49.13701" lon="1.93765">
        <ele>43.52</ele>
        <time>2019-07-07T13:49:32Z</time>
      </trkpt>
      <trkpt lat="49.13704" lon="1.93754">
        <ele>43.24</ele>
        <time>2019-07-07T13:49:41Z</time>
      </trkpt>
      <trkpt lat="49.13708" lon="1.93751">
        <ele>43.46</ele>
        <time>2019-07-07T13:49:49Z</time>
      </trkpt>
      <trkpt lat="49.13713" lon="1.93744">
        <ele>43.21</ele>
        <time>2019-07-07T13:49:55Z</time>
      </trkpt>
      <trkpt lat="49.13713" lon="1.93739">
        <ele>42.88</ele>
        <time>2019-07-07T13:49:59Z</time>
      </trkpt>
      <trkpt lat="49.13723" lon="1.93723">
        <ele>41.92</ele>
        <time>2019-07-07T13:50:19Z</time>
      </trkpt>
      <trkpt lat="49.13731" lon="1.93711">
        <ele>41.72</ele>
        <time>2019-07-07T13:50:32Z</time>
      </trkpt>
      <trkpt lat="49.13733" lon="1.93706">
        <ele>41.73</ele>
        <time>2019-07-07T13:50:35Z</time>
      </trkpt>
      <trkpt lat="49.13746" lon="1.93673">
        <ele>41.2</ele>
        <time>2019-07-07T13:50:58Z</time>
      </trkpt>
      <trkpt lat="49.13771" lon="1.93651">
        <ele>41.53</ele>
        <time>2019-07-07T13:51:15Z</time>
      </trkpt>
      <trkpt lat="49.13793" lon="1.9363">
        <ele>41.24</ele>
        <time>2019-07-07T13:51:28Z</time>
      </trkpt>
      <trkpt lat="49.13806" lon="1.93608">
        <ele>41.33</ele>
        <time>2019-07-07T13:51:49Z</time>
      </trkpt>
      <trkpt lat="49.13807" lon="1.93607">
        <ele>41.32</ele>
        <time>2019-07-07T13:51:50Z</time>
      </trkpt>
      <trkpt lat="49.13822" lon="1.93594">
        <ele>41.47</ele>
        <time>2019-07-07T13:52:04Z</time>
      </trkpt>
      <trkpt lat="49.13826" lon="1.9359">
        <ele>40.97</ele>
        <time>2019-07-07T13:52:11Z</time>
      </trkpt>
      <trkpt lat="49.13828" lon="1.93588">
        <ele>41.36</ele>
        <time>2019-07-07T13:52:13Z</time>
      </trkpt>
      <trkpt lat="49.13836" lon="1.93569">
        <ele>41.59</ele>
        <time>2019-07-07T13:52:31Z</time>
      </trkpt>
      <trkpt lat="49.13854" lon="1.93552">
        <ele>41.02</ele>
        <time>2019-07-07T13:52:46Z</time>
      </trkpt>
      <trkpt lat="49.13861" lon="1.9355">
        <ele>40.5</ele>
        <time>2019-07-07T13:52:52Z</time>
      </trkpt>
      <trkpt lat="49.13869" lon="1.93543">
        <ele>40.52</ele>
        <time>2019-07-07T13:53:01Z</time>
      </trkpt>
      <trkpt lat="49.13896" lon="1.93519">
        <ele>40.82</ele>
        <time>2019-07-07T13:53:22Z</time>
      </trkpt>
      <trkpt lat="49.13918" lon="1.93507">
        <ele>40.1</ele>
        <time>2019-07-07T13:53:43Z</time>
      </trkpt>
      <trkpt lat="49.1392" lon="1.93505">
        <ele>40.32</ele>
        <time>2019-07-07T13:53:45Z</time>
      </trkpt>
      <trkpt lat="49.13936" lon="1.93491">
        <ele>40.67</ele>
        <time>2019-07-07T13:54:02Z</time>
      </trkpt>
      <trkpt lat="49.13953" lon="1.93473">
        <ele>40.61</ele>
        <time>2019-07-07T13:54:19Z</time>
      </trkpt>
      <trkpt lat="49.13956" lon="1.9347">
        <ele>40.74</ele>
        <time>2019-07-07T13:54:22Z</time>
      </trkpt>
      <trkpt lat="49.13961" lon="1.93468">
        <ele>40.45</ele>
        <time>2019-07-07T13:54:29Z</time>
      </trkpt>
      <trkpt lat="49.13988" lon="1.93454">
        <ele>41.75</ele>
        <time>2019-07-07T13:54:51Z</time>
      </trkpt>
      <trkpt lat="49.14001" lon="1.93446">
        <ele>40.93</ele>
        <time>2019-07-07T13:55:02Z</time>
      </trkpt>
      <trkpt lat="49.14022" lon="1.93437">
        <ele>41.33</ele>
        <time>2019-07-07T13:55:25Z</time>
      </trkpt>
      <trkpt lat="49.14033" lon="1.93436">
        <ele>41.12</ele>
        <time>2019-07-07T13:55:35Z</time>
      </trkpt>
      <trkpt lat="49.1406" lon="1.93446">
        <ele>40.85</ele>
        <time>2019-07-07T13:55:56Z</time>
      </trkpt>
      <trkpt lat="49.14074" lon="1.93455">
        <ele>40.81</ele>
        <time>2019-07-07T13:56:08Z</time>
      </trkpt>
      <trkpt lat="49.14085" lon="1.93462">
        <ele>41.31</ele>
        <time>2019-07-07T13:56:18Z</time>
      </trkpt>
      <trkpt lat="49.14108" lon="1.93479">
        <ele>41.25</ele>
        <time>2019-07-07T13:56:42Z</time>
      </trkpt>
      <trkpt lat="49.14118" lon="1.93497">
        <ele>41.77</ele>
        <time>2019-07-07T13:56:54Z</time>
      </trkpt>
      <trkpt lat="49.14137" lon="1.9351">
        <ele>42.59</ele>
        <time>2019-07-07T13:57:13Z</time>
      </trkpt>
      <trkpt lat="49.1415" lon="1.93522">
        <ele>42.5</ele>
        <time>2019-07-07T13:57:26Z</time>
      </trkpt>
      <trkpt lat="49.14163" lon="1.93535">
        <ele>42.28</ele>
        <time>2019-07-07T13:57:37Z</time>
      </trkpt>
      <trkpt lat="49.14176" lon="1.93542">
        <ele>42.63</ele>
        <time>2019-07-07T13:57:51Z</time>
      </trkpt>
      <trkpt lat="49.14184" lon="1.93549">
        <ele>41.63</ele>
        <time>2019-07-07T13:58:16Z</time>
      </trkpt>
      <trkpt lat="49.14197" lon="1.93552">
        <ele>42.17</ele>
        <time>2019-07-07T13:58:28Z</time>
      </trkpt>
      <trkpt lat="49.14219" lon="1.93544">
        <ele>43.74</ele>
        <time>2019-07-07T13:58:50Z</time>
      </trkpt>
      <trkpt lat="49.14219" lon="1.93543">
        <ele>43.78</ele>
        <time>2019-07-07T13:58:54Z</time>
      </trkpt>
      <trkpt lat="49.14222" lon="1.93548">
        <ele>43.91</ele>
        <time>2019-07-07T13:59:09Z</time>
      </trkpt>
      <trkpt lat="49.14226" lon="1.93552">
        <ele>43.51</ele>
        <time>2019-07-07T13:59:33Z</time>
      </trkpt>
      <trkpt lat="49.14225" lon="1.93534">
        <ele>43.4</ele>
        <time>2019-07-07T13:59:48Z</time>
      </trkpt>
      <trkpt lat="49.14222" lon="1.93534">
        <ele>43.63</ele>
        <time>2019-07-07T14:00:05Z</time>
      </trkpt>
      <trkpt lat="49.14228" lon="1.93553">
        <ele>43.93</ele>
        <time>2019-07-07T14:00:35Z</time>
      </trkpt>
      <trkpt lat="49.14229" lon="1.93556">
        <ele>43.78</ele>
        <time>2019-07-07T14:00:37Z</time>
      </trkpt>
      <trkpt lat="49.14232" lon="1.9356">
        <ele>43.74</ele>
        <time>2019-07-07T14:00:43Z</time>
      </trkpt>
      <trkpt lat="49.14234" lon="1.93561">
        <ele>43.89</ele>
        <time>2019-07-07T14:01:09Z</time>
      </trkpt>
      <trkpt lat="49.14223" lon="1.93563">
        <ele>44.69</ele>
        <time>2019-07-07T14:01:36Z</time>
      </trkpt>
      <trkpt lat="49.14228" lon="1.93559">
        <ele>44.86</ele>
        <time>2019-07-07T14:02:03Z</time>
      </trkpt>
      <trkpt lat="49.14238" lon="1.93552">
        <ele>46.23</ele>
        <time>2019-07-07T14:02:17Z</time>
      </trkpt>
      <trkpt lat="49.14257" lon="1.93533">
        <ele>44.1</ele>
        <time>2019-07-07T14:02:41Z</time>
      </trkpt>
      <trkpt lat="49.14276" lon="1.93522">
        <ele>43.4</ele>
        <time>2019-07-07T14:03:00Z</time>
      </trkpt>
      <trkpt lat="49.14293" lon="1.93516">
        <ele>43.12</ele>
        <time>2019-07-07T14:03:15Z</time>
      </trkpt>
      <trkpt lat="49.14293" lon="1.93516">
        <ele>43.12</ele>
        <time>2019-07-07T14:03:16Z</time>
      </trkpt>
      <trkpt lat="49.14304" lon="1.93512">
        <ele>41.68</ele>
        <time>2019-07-07T14:03:37Z</time>
      </trkpt>
      <trkpt lat="49.14306" lon="1.93511">
        <ele>41.99</ele>
        <time>2019-07-07T14:03:40Z</time>
      </trkpt>
      <trkpt lat="49.14319" lon="1.93508">
        <ele>42.66</ele>
        <time>2019-07-07T14:03:52Z</time>
      </trkpt>
      <trkpt lat="49.14336" lon="1.93503">
        <ele>42.46</ele>
        <time>2019-07-07T14:04:05Z</time>
      </trkpt>
      <trkpt lat="49.14347" lon="1.935">
        <ele>42.34</ele>
        <time>2019-07-07T14:04:15Z</time>
      </trkpt>
      <trkpt lat="49.14351" lon="1.93499">
        <ele>42.22</ele>
        <time>2019-07-07T14:04:19Z</time>
      </trkpt>
      <trkpt lat="49.14379" lon="1.93492">
        <ele>43.83</ele>
        <time>2019-07-07T14:04:41Z</time>
      </trkpt>
      <trkpt lat="49.14396" lon="1.93488">
        <ele>44.91</ele>
        <time>2019-07-07T14:04:57Z</time>
      </trkpt>
      <trkpt lat="49.14412" lon="1.93485">
        <ele>45.04</ele>
        <time>2019-07-07T14:05:15Z</time>
      </trkpt>
      <trkpt lat="49.14433" lon="1.93485">
        <ele>44.42</ele>
        <time>2019-07-07T14:05:34Z</time>
      </trkpt>
      <trkpt lat="49.14451" lon="1.93478">
        <ele>44.19</ele>
        <time>2019-07-07T14:05:55Z</time>
      </trkpt>
      <trkpt lat="49.1447" lon="1.93475">
        <ele>43.76</ele>
        <time>2019-07-07T14:06:11Z</time>
      </trkpt>
      <trkpt lat="49.1449" lon="1.93477">
        <ele>43.94</ele>
        <time>2019-07-07T14:06:28Z</time>
      </trkpt>
      <trkpt lat="49.14513" lon="1.93474">
        <ele>42.6</ele>
        <time>2019-07-07T14:06:40Z</time>
      </trkpt>
      <trkpt lat="49.14524" lon="1.93481">
        <ele>43.11</ele>
        <time>2019-07-07T14:06:50Z</time>
      </trkpt>
      <trkpt lat="49.14532" lon="1.93501">
        <ele>43.35</ele>
        <time>2019-07-07T14:07:14Z</time>
      </trkpt>
      <trkpt lat="49.14533" lon="1.93503">
        <ele>43.34</ele>
        <time>2019-07-07T14:07:16Z</time>
      </trkpt>
      <trkpt lat="49.14543" lon="1.93518">
        <ele>44.39</ele>
        <time>2019-07-07T14:07:33Z</time>
      </trkpt>
      <trkpt lat="49.14545" lon="1.9352">
        <ele>44.02</ele>
        <time>2019-07-07T14:07:36Z</time>
      </trkpt>
      <trkpt lat="49.14548" lon="1.93522">
        <ele>44.01</ele>
        <time>2019-07-07T14:07:48Z</time>
      </trkpt>
      <trkpt lat="49.14568" lon="1.93535">
        <ele>45.3</ele>
        <time>2019-07-07T14:08:08Z</time>
      </trkpt>
      <trkpt lat="49.14588" lon="1.93551">
        <ele>44.26</ele>
        <time>2019-07-07T14:08:29Z</time>
      </trkpt>
      <trkpt lat="49.146" lon="1.93562">
        <ele>43.32</ele>
        <time>2019-07-07T14:08:41Z</time>
      </trkpt>
      <trkpt lat="49.14613" lon="1.93568">
        <ele>42.17</ele>
        <time>2019-07-07T14:08:54Z</time>
      </trkpt>
      <trkpt lat="49.14618" lon="1.93568">
        <ele>41.8</ele>
        <time>2019-07-07T14:08:58Z</time>
      </trkpt>
      <trkpt lat="49.14638" lon="1.93577">
        <ele>40.11</ele>
        <time>2019-07-07T14:09:14Z</time>
      </trkpt>
      <trkpt lat="49.14652" lon="1.93585">
        <ele>39.98</ele>
        <time>2019-07-07T14:09:29Z</time>
      </trkpt>
      <trkpt lat="49.14657" lon="1.93587">
        <ele>40.24</ele>
        <time>2019-07-07T14:09:45Z</time>
      </trkpt>
      <trkpt lat="49.14657" lon="1.93594">
        <ele>40.43</ele>
        <time>2019-07-07T14:09:50Z</time>
      </trkpt>
      <trkpt lat="49.14661" lon="1.93614">
        <ele>40.63</ele>
        <time>2019-07-07T14:10:06Z</time>
      </trkpt>
      <trkpt lat="49.14658" lon="1.93625">
        <ele>39.9</ele>
        <time>2019-07-07T14:10:25Z</time>
      </trkpt>
      <trkpt lat="49.14658" lon="1.93627">
        <ele>40.1</ele>
        <time>2019-07-07T14:10:41Z</time>
      </trkpt>
      <trkpt lat="49.1466" lon="1.9362">
        <ele>39.77</ele>
        <time>2019-07-07T14:11:00Z</time>
      </trkpt>
      <trkpt lat="49.14665" lon="1.936">
        <ele>40.89</ele>
        <time>2019-07-07T14:11:18Z</time>
      </trkpt>
      <trkpt lat="49.14668" lon="1.93599">
        <ele>40.75</ele>
        <time>2019-07-07T14:11:34Z</time>
      </trkpt>
      <trkpt lat="49.14676" lon="1.93601">
        <ele>41.09</ele>
        <time>2019-07-07T14:11:57Z</time>
      </trkpt>
      <trkpt lat="49.14684" lon="1.93602">
        <ele>41.41</ele>
        <time>2019-07-07T14:12:13Z</time>
      </trkpt>
      <trkpt lat="49.14694" lon="1.93602">
        <ele>41.5</ele>
        <time>2019-07-07T14:12:28Z</time>
      </trkpt>
      <trkpt lat="49.147" lon="1.93598">
        <ele>42.63</ele>
        <time>2019-07-07T14:12:44Z</time>
      </trkpt>
      <trkpt lat="49.14704" lon="1.93603">
        <ele>43.52</ele>
        <time>2019-07-07T14:13:27Z</time>
      </trkpt>
      <trkpt lat="49.14709" lon="1.93599">
        <ele>43.37</ele>
        <time>2019-07-07T14:13:39Z</time>
      </trkpt>
      <trkpt lat="49.1473" lon="1.93589">
        <ele>44.07</ele>
        <time>2019-07-07T14:13:57Z</time>
      </trkpt>
      <trkpt lat="49.1475" lon="1.93579">
        <ele>43.8</ele>
        <time>2019-07-07T14:14:14Z</time>
      </trkpt>
      <trkpt lat="49.14772" lon="1.93571">
        <ele>44.07</ele>
        <time>2019-07-07T14:14:31Z</time>
      </trkpt>
      <trkpt lat="49.14774" lon="1.9357">
        <ele>43.48</ele>
        <time>2019-07-07T14:14:33Z</time>
      </trkpt>
      <trkpt lat="49.14784" lon="1.93563">
        <ele>42.29</ele>
        <time>2019-07-07T14:14:49Z</time>
      </trkpt>
      <trkpt lat="49.14789" lon="1.93561">
        <ele>42.04</ele>
        <time>2019-07-07T14:14:57Z</time>
      </trkpt>
      <trkpt lat="49.14815" lon="1.93547">
        <ele>42.06</ele>
        <time>2019-07-07T14:15:20Z</time>
      </trkpt>
      <trkpt lat="49.14822" lon="1.93543">
        <ele>42.21</ele>
        <time>2019-07-07T14:15:35Z</time>
      </trkpt>
      <trkpt lat="49.14834" lon="1.9354">
        <ele>42.08</ele>
        <time>2019-07-07T14:15:47Z</time>
      </trkpt>
      <trkpt lat="49.14828" lon="1.93543">
        <ele>41.67</ele>
        <time>2019-07-07T14:15:57Z</time>
      </trkpt>
      <trkpt lat="49.14823" lon="1.93543">
        <ele>41.38</ele>
        <time>2019-07-07T14:16:09Z</time>
      </trkpt>
      <trkpt lat="49.14829" lon="1.93545">
        <ele>41.12</ele>
        <time>2019-07-07T14:16:30Z</time>
      </trkpt>
      <trkpt lat="49.14832" lon="1.93547">
        <ele>41.03</ele>
        <time>2019-07-07T14:16:34Z</time>
      </trkpt>
      <trkpt lat="49.14844" lon="1.93563">
        <ele>40.24</ele>
        <time>2019-07-07T14:16:55Z</time>
      </trkpt>
      <trkpt lat="49.14841" lon="1.93576">
        <ele>39.87</ele>
        <time>2019-07-07T14:17:06Z</time>
      </trkpt>
      <trkpt lat="49.14843" lon="1.93584">
        <ele>40.26</ele>
        <time>2019-07-07T14:17:26Z</time>
      </trkpt>
      <trkpt lat="49.14843" lon="1.93582">
        <ele>39.53</ele>
        <time>2019-07-07T14:17:37Z</time>
      </trkpt>
      <trkpt lat="49.14845" lon="1.93572">
        <ele>39.88</ele>
        <time>2019-07-07T14:17:58Z</time>
      </trkpt>
      <trkpt lat="49.14853" lon="1.93569">
        <ele>39.14</ele>
        <time>2019-07-07T14:18:09Z</time>
      </trkpt>
      <trkpt lat="49.14856" lon="1.93567">
        <ele>39.55</ele>
        <time>2019-07-07T14:18:30Z</time>
      </trkpt>
      <trkpt lat="49.14861" lon="1.93554">
        <ele>40.97</ele>
        <time>2019-07-07T14:18:46Z</time>
      </trkpt>
      <trkpt lat="49.14873" lon="1.9355">
        <ele>41.37</ele>
        <time>2019-07-07T14:18:58Z</time>
      </trkpt>
      <trkpt lat="49.14893" lon="1.93558">
        <ele>42.17</ele>
        <time>2019-07-07T14:19:15Z</time>
      </trkpt>
      <trkpt lat="49.14905" lon="1.93563">
        <ele>42.62</ele>
        <time>2019-07-07T14:19:30Z</time>
      </trkpt>
      <trkpt lat="49.14919" lon="1.93564">
        <ele>42.37</ele>
        <time>2019-07-07T14:19:45Z</time>
      </trkpt>
      <trkpt lat="49.14932" lon="1.93565">
        <ele>42.19</ele>
        <time>2019-07-07T14:19:56Z</time>
      </trkpt>
      <trkpt lat="49.14943" lon="1.93571">
        <ele>42</ele>
        <time>2019-07-07T14:20:07Z</time>
      </trkpt>
      <trkpt lat="49.14954" lon="1.93576">
        <ele>41.56</ele>
        <time>2019-07-07T14:20:27Z</time>
      </trkpt>
      <trkpt lat="49.14975" lon="1.93579">
        <ele>42.01</ele>
        <time>2019-07-07T14:20:48Z</time>
      </trkpt>
      <trkpt lat="49.14991" lon="1.9359">
        <ele>42.9</ele>
        <time>2019-07-07T14:21:08Z</time>
      </trkpt>
      <trkpt lat="49.15006" lon="1.93598">
        <ele>43.53</ele>
        <time>2019-07-07T14:21:26Z</time>
      </trkpt>
      <trkpt lat="49.15024" lon="1.93611">
        <ele>42.9</ele>
        <time>2019-07-07T14:21:44Z</time>
      </trkpt>
      <trkpt lat="49.15035" lon="1.93618">
        <ele>42.68</ele>
        <time>2019-07-07T14:21:54Z</time>
      </trkpt>
      <trkpt lat="49.15051" lon="1.93631">
        <ele>42.44</ele>
        <time>2019-07-07T14:22:13Z</time>
      </trkpt>
      <trkpt lat="49.1506" lon="1.93641">
        <ele>42.34</ele>
        <time>2019-07-07T14:22:28Z</time>
      </trkpt>
      <trkpt lat="49.15077" lon="1.93661">
        <ele>41.24</ele>
        <time>2019-07-07T14:22:47Z</time>
      </trkpt>
      <trkpt lat="49.15086" lon="1.93675">
        <ele>40.57</ele>
        <time>2019-07-07T14:23:00Z</time>
      </trkpt>
      <trkpt lat="49.15096" lon="1.93686">
        <ele>41.25</ele>
        <time>2019-07-07T14:23:19Z</time>
      </trkpt>
      <trkpt lat="49.15105" lon="1.93705">
        <ele>41.84</ele>
        <time>2019-07-07T14:23:31Z</time>
      </trkpt>
      <trkpt lat="49.15114" lon="1.93725">
        <ele>41.95</ele>
        <time>2019-07-07T14:23:48Z</time>
      </trkpt>
      <trkpt lat="49.15123" lon="1.93743">
        <ele>40.83</ele>
        <time>2019-07-07T14:24:07Z</time>
      </trkpt>
      <trkpt lat="49.15124" lon="1.93763">
        <ele>39.27</ele>
        <time>2019-07-07T14:24:25Z</time>
      </trkpt>
      <trkpt lat="49.15132" lon="1.93774">
        <ele>38.17</ele>
        <time>2019-07-07T14:24:41Z</time>
      </trkpt>
      <trkpt lat="49.15137" lon="1.9382">
        <ele>37.36</ele>
        <time>2019-07-07T14:24:59Z</time>
      </trkpt>
      <trkpt lat="49.15138" lon="1.93821">
        <ele>37.36</ele>
        <time>2019-07-07T14:25:01Z</time>
      </trkpt>
      <trkpt lat="49.15148" lon="1.93841">
        <ele>37.09</ele>
        <time>2019-07-07T14:25:12Z</time>
      </trkpt>
      <trkpt lat="49.1515" lon="1.93843">
        <ele>36.74</ele>
        <time>2019-07-07T14:25:15Z</time>
      </trkpt>
      <trkpt lat="49.15152" lon="1.93845">
        <ele>37.47</ele>
        <time>2019-07-07T14:25:18Z</time>
      </trkpt>
      <trkpt lat="49.15165" lon="1.93864">
        <ele>36.93</ele>
        <time>2019-07-07T14:25:31Z</time>
      </trkpt>
      <trkpt lat="49.15166" lon="1.93866">
        <ele>37.17</ele>
        <time>2019-07-07T14:25:32Z</time>
      </trkpt>
      <trkpt lat="49.15173" lon="1.93876">
        <ele>37.26</ele>
        <time>2019-07-07T14:25:37Z</time>
      </trkpt>
      <trkpt lat="49.15185" lon="1.93918">
        <ele>35.9</ele>
        <time>2019-07-07T14:25:53Z</time>
      </trkpt>
      <trkpt lat="49.15203" lon="1.93914">
        <ele>35.74</ele>
        <time>2019-07-07T14:26:14Z</time>
      </trkpt>
      <trkpt lat="49.15207" lon="1.93916">
        <ele>35.81</ele>
        <time>2019-07-07T14:26:18Z</time>
      </trkpt>
      <trkpt lat="49.15222" lon="1.93913">
        <ele>35.99</ele>
        <time>2019-07-07T14:26:39Z</time>
      </trkpt>
      <trkpt lat="49.15236" lon="1.93897">
        <ele>36.3</ele>
        <time>2019-07-07T14:26:58Z</time>
      </trkpt>
      <trkpt lat="49.15245" lon="1.93888">
        <ele>36.08</ele>
        <time>2019-07-07T14:27:08Z</time>
      </trkpt>
      <trkpt lat="49.15253" lon="1.93875">
        <ele>35.71</ele>
        <time>2019-07-07T14:27:18Z</time>
      </trkpt>
      <trkpt lat="49.15253" lon="1.93866">
        <ele>35.87</ele>
        <time>2019-07-07T14:27:23Z</time>
      </trkpt>
      <trkpt lat="49.15262" lon="1.93846">
        <ele>35.53</ele>
        <time>2019-07-07T14:27:38Z</time>
      </trkpt>
      <trkpt lat="49.1527" lon="1.93832">
        <ele>35.98</ele>
        <time>2019-07-07T14:27:52Z</time>
      </trkpt>
      <trkpt lat="49.15282" lon="1.93815">
        <ele>36.07</ele>
        <time>2019-07-07T14:28:07Z</time>
      </trkpt>
      <trkpt lat="49.15281" lon="1.93819">
        <ele>36.44</ele>
        <time>2019-07-07T14:28:14Z</time>
      </trkpt>
      <trkpt lat="49.15278" lon="1.93828">
        <ele>35.35</ele>
        <time>2019-07-07T14:28:21Z</time>
      </trkpt>
      <trkpt lat="49.15277" lon="1.93833">
        <ele>35.35</ele>
        <time>2019-07-07T14:28:24Z</time>
      </trkpt>
      <trkpt lat="49.15278" lon="1.93843">
        <ele>35.32</ele>
        <time>2019-07-07T14:28:43Z</time>
      </trkpt>
      <trkpt lat="49.15281" lon="1.93837">
        <ele>36.27</ele>
        <time>2019-07-07T14:29:08Z</time>
      </trkpt>
      <trkpt lat="49.15281" lon="1.93843">
        <ele>35.47</ele>
        <time>2019-07-07T14:29:26Z</time>
      </trkpt>
      <trkpt lat="49.15289" lon="1.93852">
        <ele>33.95</ele>
        <time>2019-07-07T14:29:37Z</time>
      </trkpt>
      <trkpt lat="49.15295" lon="1.93878">
        <ele>33.51</ele>
        <time>2019-07-07T14:29:53Z</time>
      </trkpt>
      <trkpt lat="49.153" lon="1.93893">
        <ele>33.7</ele>
        <time>2019-07-07T14:30:06Z</time>
      </trkpt>
      <trkpt lat="49.1531" lon="1.93903">
        <ele>33.1</ele>
        <time>2019-07-07T14:30:28Z</time>
      </trkpt>
      <trkpt lat="49.1532" lon="1.93922">
        <ele>33.5</ele>
        <time>2019-07-07T14:30:48Z</time>
      </trkpt>
      <trkpt lat="49.15325" lon="1.93939">
        <ele>32.83</ele>
        <time>2019-07-07T14:30:55Z</time>
      </trkpt>
      <trkpt lat="49.15328" lon="1.93942">
        <ele>32.83</ele>
        <time>2019-07-07T14:30:58Z</time>
      </trkpt>
      <trkpt lat="49.15337" lon="1.93945">
        <ele>32.76</ele>
        <time>2019-07-07T14:31:10Z</time>
      </trkpt>
      <trkpt lat="49.15338" lon="1.93945">
        <ele>33.13</ele>
        <time>2019-07-07T14:31:11Z</time>
      </trkpt>
      <trkpt lat="49.1534" lon="1.93943">
        <ele>32.63</ele>
        <time>2019-07-07T14:31:13Z</time>
      </trkpt>
      <trkpt lat="49.15353" lon="1.93944">
        <ele>33.05</ele>
        <time>2019-07-07T14:31:31Z</time>
      </trkpt>
      <trkpt lat="49.15357" lon="1.93945">
        <ele>33.05</ele>
        <time>2019-07-07T14:31:35Z</time>
      </trkpt>
      <trkpt lat="49.15365" lon="1.93942">
        <ele>33.32</ele>
        <time>2019-07-07T14:31:42Z</time>
      </trkpt>
      <trkpt lat="49.15379" lon="1.93929">
        <ele>32.94</ele>
        <time>2019-07-07T14:31:59Z</time>
      </trkpt>
      <trkpt lat="49.15396" lon="1.93913">
        <ele>34.2</ele>
        <time>2019-07-07T14:32:19Z</time>
      </trkpt>
      <trkpt lat="49.15408" lon="1.93906">
        <ele>33.73</ele>
        <time>2019-07-07T14:32:34Z</time>
      </trkpt>
      <trkpt lat="49.15422" lon="1.93896">
        <ele>33.66</ele>
        <time>2019-07-07T14:32:49Z</time>
      </trkpt>
      <trkpt lat="49.15441" lon="1.93885">
        <ele>34.35</ele>
        <time>2019-07-07T14:33:04Z</time>
      </trkpt>
      <trkpt lat="49.15449" lon="1.93878">
        <ele>34.17</ele>
        <time>2019-07-07T14:33:13Z</time>
      </trkpt>
      <trkpt lat="49.1546" lon="1.93867">
        <ele>34.35</ele>
        <time>2019-07-07T14:33:26Z</time>
      </trkpt>
      <trkpt lat="49.15473" lon="1.93852">
        <ele>34.96</ele>
        <time>2019-07-07T14:33:43Z</time>
      </trkpt>
      <trkpt lat="49.15487" lon="1.93838">
        <ele>35.17</ele>
        <time>2019-07-07T14:33:59Z</time>
      </trkpt>
      <trkpt lat="49.15502" lon="1.93828">
        <ele>35.05</ele>
        <time>2019-07-07T14:34:12Z</time>
      </trkpt>
      <trkpt lat="49.15513" lon="1.93824">
        <ele>35.27</ele>
        <time>2019-07-07T14:34:25Z</time>
      </trkpt>
      <trkpt lat="49.15526" lon="1.93808">
        <ele>34.98</ele>
        <time>2019-07-07T14:34:40Z</time>
      </trkpt>
      <trkpt lat="49.15539" lon="1.938">
        <ele>36.29</ele>
        <time>2019-07-07T14:34:51Z</time>
      </trkpt>
      <trkpt lat="49.15553" lon="1.93785">
        <ele>35.34</ele>
        <time>2019-07-07T14:35:06Z</time>
      </trkpt>
      <trkpt lat="49.15559" lon="1.93778">
        <ele>35.51</ele>
        <time>2019-07-07T14:35:12Z</time>
      </trkpt>
      <trkpt lat="49.15575" lon="1.93763">
        <ele>35.48</ele>
        <time>2019-07-07T14:35:27Z</time>
      </trkpt>
      <trkpt lat="49.15591" lon="1.93752">
        <ele>35.87</ele>
        <time>2019-07-07T14:35:41Z</time>
      </trkpt>
      <trkpt lat="49.15598" lon="1.93746">
        <ele>35.83</ele>
        <time>2019-07-07T14:35:48Z</time>
      </trkpt>
      <trkpt lat="49.1561" lon="1.93736">
        <ele>35.97</ele>
        <time>2019-07-07T14:35:57Z</time>
      </trkpt>
      <trkpt lat="49.15623" lon="1.93726">
        <ele>35.81</ele>
        <time>2019-07-07T14:36:10Z</time>
      </trkpt>
      <trkpt lat="49.15638" lon="1.93717">
        <ele>36.14</ele>
        <time>2019-07-07T14:36:26Z</time>
      </trkpt>
      <trkpt lat="49.15651" lon="1.93707">
        <ele>36.04</ele>
        <time>2019-07-07T14:36:41Z</time>
      </trkpt>
      <trkpt lat="49.15663" lon="1.93698">
        <ele>36.49</ele>
        <time>2019-07-07T14:36:53Z</time>
      </trkpt>
      <trkpt lat="49.15678" lon="1.93688">
        <ele>36.73</ele>
        <time>2019-07-07T14:37:07Z</time>
      </trkpt>
      <trkpt lat="49.15683" lon="1.93686">
        <ele>36.88</ele>
        <time>2019-07-07T14:37:15Z</time>
      </trkpt>
      <trkpt lat="49.15693" lon="1.93681">
        <ele>37.04</ele>
        <time>2019-07-07T14:37:23Z</time>
      </trkpt>
      <trkpt lat="49.15708" lon="1.93672">
        <ele>36.81</ele>
        <time>2019-07-07T14:37:36Z</time>
      </trkpt>
      <trkpt lat="49.15713" lon="1.9367">
        <ele>36.58</ele>
        <time>2019-07-07T14:37:41Z</time>
      </trkpt>
      <trkpt lat="49.15715" lon="1.93669">
        <ele>36.86</ele>
        <time>2019-07-07T14:37:43Z</time>
      </trkpt>
      <trkpt lat="49.15729" lon="1.93663">
        <ele>36.77</ele>
        <time>2019-07-07T14:37:56Z</time>
      </trkpt>
      <trkpt lat="49.15746" lon="1.93657">
        <ele>37.16</ele>
        <time>2019-07-07T14:38:09Z</time>
      </trkpt>
      <trkpt lat="49.15761" lon="1.93649">
        <ele>37</ele>
        <time>2019-07-07T14:38:23Z</time>
      </trkpt>
      <trkpt lat="49.15775" lon="1.93642">
        <ele>38.59</ele>
        <time>2019-07-07T14:38:38Z</time>
      </trkpt>
      <trkpt lat="49.15778" lon="1.93642">
        <ele>37.26</ele>
        <time>2019-07-07T14:38:41Z</time>
      </trkpt>
      <trkpt lat="49.15795" lon="1.93638">
        <ele>38.27</ele>
        <time>2019-07-07T14:38:57Z</time>
      </trkpt>
      <trkpt lat="49.15809" lon="1.93636">
        <ele>38.47</ele>
        <time>2019-07-07T14:39:10Z</time>
      </trkpt>
      <trkpt lat="49.15818" lon="1.93634">
        <ele>38.07</ele>
        <time>2019-07-07T14:39:21Z</time>
      </trkpt>
      <trkpt lat="49.15837" lon="1.93629">
        <ele>38.5</ele>
        <time>2019-07-07T14:39:36Z</time>
      </trkpt>
      <trkpt lat="49.15859" lon="1.93621">
        <ele>38.17</ele>
        <time>2019-07-07T14:39:56Z</time>
      </trkpt>
      <trkpt lat="49.15861" lon="1.9362">
        <ele>38.91</ele>
        <time>2019-07-07T14:40:13Z</time>
      </trkpt>
      <trkpt lat="49.15863" lon="1.93622">
        <ele>39.15</ele>
        <time>2019-07-07T14:40:31Z</time>
      </trkpt>
      <trkpt lat="49.15869" lon="1.93621">
        <ele>39.52</ele>
        <time>2019-07-07T14:40:58Z</time>
      </trkpt>
      <trkpt lat="49.15879" lon="1.93619">
        <ele>39.3</ele>
        <time>2019-07-07T14:41:12Z</time>
      </trkpt>
      <trkpt lat="49.15895" lon="1.93624">
        <ele>40.03</ele>
        <time>2019-07-07T14:41:28Z</time>
      </trkpt>
      <trkpt lat="49.15906" lon="1.93624">
        <ele>38.3</ele>
        <time>2019-07-07T14:41:40Z</time>
      </trkpt>
      <trkpt lat="49.15907" lon="1.93624">
        <ele>38.36</ele>
        <time>2019-07-07T14:41:42Z</time>
      </trkpt>
      <trkpt lat="49.15909" lon="1.93624">
        <ele>39.53</ele>
        <time>2019-07-07T14:41:44Z</time>
      </trkpt>
      <trkpt lat="49.15911" lon="1.93624">
        <ele>39.41</ele>
        <time>2019-07-07T14:41:46Z</time>
      </trkpt>
      <trkpt lat="49.15915" lon="1.93624">
        <ele>40.28</ele>
        <time>2019-07-07T14:41:50Z</time>
      </trkpt>
      <trkpt lat="49.15924" lon="1.93629">
        <ele>38.69</ele>
        <time>2019-07-07T14:42:06Z</time>
      </trkpt>
      <trkpt lat="49.15929" lon="1.93628">
        <ele>40.12</ele>
        <time>2019-07-07T14:42:12Z</time>
      </trkpt>
      <trkpt lat="49.15936" lon="1.93628">
        <ele>40.27</ele>
        <time>2019-07-07T14:42:20Z</time>
      </trkpt>
      <trkpt lat="49.15946" lon="1.9363">
        <ele>39.98</ele>
        <time>2019-07-07T14:42:27Z</time>
      </trkpt>
      <trkpt lat="49.15953" lon="1.93631">
        <ele>40.19</ele>
        <time>2019-07-07T14:42:31Z</time>
      </trkpt>
      <trkpt lat="49.15982" lon="1.93637">
        <ele>41.49</ele>
        <time>2019-07-07T14:42:54Z</time>
      </trkpt>
      <trkpt lat="49.16002" lon="1.9364">
        <ele>41.56</ele>
        <time>2019-07-07T14:43:11Z</time>
      </trkpt>
      <trkpt lat="49.16017" lon="1.93643">
        <ele>42.6</ele>
        <time>2019-07-07T14:43:27Z</time>
      </trkpt>
      <trkpt lat="49.16018" lon="1.93642">
        <ele>42.9</ele>
        <time>2019-07-07T14:43:48Z</time>
      </trkpt>
      <trkpt lat="49.16018" lon="1.93639">
        <ele>41.32</ele>
        <time>2019-07-07T14:43:51Z</time>
      </trkpt>
      <trkpt lat="49.16018" lon="1.93633">
        <ele>43.24</ele>
        <time>2019-07-07T14:43:55Z</time>
      </trkpt>
      <trkpt lat="49.16018" lon="1.93629">
        <ele>43.41</ele>
        <time>2019-07-07T14:43:58Z</time>
      </trkpt>
      <trkpt lat="49.16016" lon="1.93621">
        <ele>43.66</ele>
        <time>2019-07-07T14:44:04Z</time>
      </trkpt>
      <trkpt lat="49.16018" lon="1.93596">
        <ele>44.24</ele>
        <time>2019-07-07T14:44:19Z</time>
      </trkpt>
      <trkpt lat="49.16026" lon="1.93582">
        <ele>43.84</ele>
        <time>2019-07-07T14:44:32Z</time>
      </trkpt>
      <trkpt lat="49.16037" lon="1.93582">
        <ele>44.16</ele>
        <time>2019-07-07T14:44:42Z</time>
      </trkpt>
      <trkpt lat="49.16055" lon="1.93585">
        <ele>42.94</ele>
        <time>2019-07-07T14:44:55Z</time>
      </trkpt>
      <trkpt lat="49.16067" lon="1.93594">
        <ele>42.98</ele>
        <time>2019-07-07T14:45:09Z</time>
      </trkpt>
      <trkpt lat="49.16069" lon="1.93597">
        <ele>43.69</ele>
        <time>2019-07-07T14:45:12Z</time>
      </trkpt>
      <trkpt lat="49.16077" lon="1.93605">
        <ele>42.66</ele>
        <time>2019-07-07T14:45:21Z</time>
      </trkpt>
      <trkpt lat="49.16091" lon="1.93615">
        <ele>43.24</ele>
        <time>2019-07-07T14:45:38Z</time>
      </trkpt>
      <trkpt lat="49.16108" lon="1.93621">
        <ele>43.21</ele>
        <time>2019-07-07T14:45:56Z</time>
      </trkpt>
      <trkpt lat="49.16113" lon="1.93626">
        <ele>43.28</ele>
        <time>2019-07-07T14:46:01Z</time>
      </trkpt>
      <trkpt lat="49.16127" lon="1.93634">
        <ele>43.42</ele>
        <time>2019-07-07T14:46:11Z</time>
      </trkpt>
      <trkpt lat="49.16141" lon="1.93642">
        <ele>43.52</ele>
        <time>2019-07-07T14:46:22Z</time>
      </trkpt>
      <trkpt lat="49.1615" lon="1.93647">
        <ele>43.32</ele>
        <time>2019-07-07T14:46:37Z</time>
      </trkpt>
      <trkpt lat="49.16169" lon="1.93655">
        <ele>42.88</ele>
        <time>2019-07-07T14:46:55Z</time>
      </trkpt>
      <trkpt lat="49.1618" lon="1.93656">
        <ele>43.56</ele>
        <time>2019-07-07T14:47:06Z</time>
      </trkpt>
      <trkpt lat="49.16202" lon="1.93654">
        <ele>43.3</ele>
        <time>2019-07-07T14:47:23Z</time>
      </trkpt>
    </trkseg>
  </trk>
</gpx>